<?xml version="1.0" encoding="UTF-8" standalone="no" ?>
<gpx xmlns="http://www.topografix.com/GPX/1/1" xmlns:xsi="http://www.w3.org/2001/XMLSchema-instance" xsi:schemaLocation="http://www.topografix.com/GPX/1/1 http://www.topografix.com/GPX/1/1/gpx.xsd" version="1.1" creator="VisuGPX - https://www.visugpx.com">
  <metadata>
    <name>brèche du Barbat brèche Badèscure</name>
    <desc><![CDATA[[url]https://plus.google.com/photos/105108571230570121986/albums/5858621596179395953?banner=pwa[/url]
[img]https://lh6.googleusercontent.com/-EsuV0IhY-Ks/UU4BTglj8wI/AAAAAAAAK8g/hsgBgnNrRSM/s646/2013.03.23 br%C3%A8che du Barbat br%C3%A8che Bad%C3%A8scure 002.jpg[/img]]]></desc>
  </metadata>
  <trk>
    <name><![CDATA[brèche du Barbat brèche Badèscure]]></name>
    <trkseg>
      <trkpt lat="42.90493" lon="-0.21271">
        <ele>1240</ele>
        <time>2013-03-23T07:12:42Z</time>
      </trkpt>
      <trkpt lat="42.90493" lon="-0.21272">
        <ele>1234</ele>
        <time>2013-03-23T07:12:44Z</time>
      </trkpt>
      <trkpt lat="42.90493" lon="-0.21271">
        <ele>1230</ele>
        <time>2013-03-23T07:12:46Z</time>
      </trkpt>
      <trkpt lat="42.90493" lon="-0.2127">
        <ele>1226</ele>
        <time>2013-03-23T07:12:48Z</time>
      </trkpt>
      <trkpt lat="42.90492" lon="-0.21269">
        <ele>1221</ele>
        <time>2013-03-23T07:12:50Z</time>
      </trkpt>
      <trkpt lat="42.90492" lon="-0.21269">
        <ele>1219</ele>
        <time>2013-03-23T07:12:52Z</time>
      </trkpt>
      <trkpt lat="42.90491" lon="-0.21268">
        <ele>1215</ele>
        <time>2013-03-23T07:12:54Z</time>
      </trkpt>
      <trkpt lat="42.90491" lon="-0.21267">
        <ele>1210</ele>
        <time>2013-03-23T07:12:57Z</time>
      </trkpt>
      <trkpt lat="42.90491" lon="-0.21265">
        <ele>1206</ele>
        <time>2013-03-23T07:13:00Z</time>
      </trkpt>
      <trkpt lat="42.90491" lon="-0.21266">
        <ele>1202</ele>
        <time>2013-03-23T07:13:03Z</time>
      </trkpt>
      <trkpt lat="42.90491" lon="-0.21267">
        <ele>1198</ele>
        <time>2013-03-23T07:13:06Z</time>
      </trkpt>
      <trkpt lat="42.9049" lon="-0.21266">
        <ele>1195</ele>
        <time>2013-03-23T07:13:09Z</time>
      </trkpt>
      <trkpt lat="42.9049" lon="-0.21266">
        <ele>1192</ele>
        <time>2013-03-23T07:13:12Z</time>
      </trkpt>
      <trkpt lat="42.9049" lon="-0.21268">
        <ele>1188</ele>
        <time>2013-03-23T07:13:16Z</time>
      </trkpt>
      <trkpt lat="42.90491" lon="-0.21267">
        <ele>1184</ele>
        <time>2013-03-23T07:13:21Z</time>
      </trkpt>
      <trkpt lat="42.90491" lon="-0.21267">
        <ele>1182</ele>
        <time>2013-03-23T07:13:26Z</time>
      </trkpt>
      <trkpt lat="42.90491" lon="-0.21267">
        <ele>1180</ele>
        <time>2013-03-23T07:13:29Z</time>
      </trkpt>
      <trkpt lat="42.90492" lon="-0.21267">
        <ele>1178</ele>
        <time>2013-03-23T07:13:34Z</time>
      </trkpt>
      <trkpt lat="42.90492" lon="-0.21267">
        <ele>1176</ele>
        <time>2013-03-23T07:13:38Z</time>
      </trkpt>
      <trkpt lat="42.90492" lon="-0.21267">
        <ele>1174</ele>
        <time>2013-03-23T07:13:42Z</time>
      </trkpt>
      <trkpt lat="42.90492" lon="-0.21268">
        <ele>1171</ele>
        <time>2013-03-23T07:13:49Z</time>
      </trkpt>
      <trkpt lat="42.90494" lon="-0.21269">
        <ele>1169</ele>
        <time>2013-03-23T07:13:56Z</time>
      </trkpt>
      <trkpt lat="42.90493" lon="-0.21267">
        <ele>1165</ele>
        <time>2013-03-23T07:14:07Z</time>
      </trkpt>
      <trkpt lat="42.90493" lon="-0.21266">
        <ele>1163</ele>
        <time>2013-03-23T07:14:19Z</time>
      </trkpt>
      <trkpt lat="42.90492" lon="-0.21268">
        <ele>1162</ele>
        <time>2013-03-23T07:14:38Z</time>
      </trkpt>
      <trkpt lat="42.90492" lon="-0.21268">
        <ele>1161</ele>
        <time>2013-03-23T07:14:52Z</time>
      </trkpt>
      <trkpt lat="42.90492" lon="-0.21266">
        <ele>1161</ele>
        <time>2013-03-23T07:15:16Z</time>
      </trkpt>
      <trkpt lat="42.90492" lon="-0.21266">
        <ele>1161</ele>
        <time>2013-03-23T07:15:38Z</time>
      </trkpt>
      <trkpt lat="42.9049" lon="-0.21266">
        <ele>1162</ele>
        <time>2013-03-23T07:16:03Z</time>
      </trkpt>
      <trkpt lat="42.9049" lon="-0.21269">
        <ele>1162</ele>
        <time>2013-03-23T07:16:21Z</time>
      </trkpt>
      <trkpt lat="42.90491" lon="-0.21272">
        <ele>1162</ele>
        <time>2013-03-23T07:16:37Z</time>
      </trkpt>
      <trkpt lat="42.90491" lon="-0.21273">
        <ele>1163</ele>
        <time>2013-03-23T07:16:44Z</time>
      </trkpt>
      <trkpt lat="42.90491" lon="-0.21273">
        <ele>1162</ele>
        <time>2013-03-23T07:16:50Z</time>
      </trkpt>
      <trkpt lat="42.90491" lon="-0.21273">
        <ele>1160</ele>
        <time>2013-03-23T07:16:51Z</time>
      </trkpt>
      <trkpt lat="42.90492" lon="-0.21273">
        <ele>1165</ele>
        <time>2013-03-23T07:16:52Z</time>
      </trkpt>
      <trkpt lat="42.90492" lon="-0.21272">
        <ele>1161</ele>
        <time>2013-03-23T07:16:58Z</time>
      </trkpt>
      <trkpt lat="42.90492" lon="-0.21272">
        <ele>1165</ele>
        <time>2013-03-23T07:16:59Z</time>
      </trkpt>
      <trkpt lat="42.90491" lon="-0.21277">
        <ele>1162</ele>
        <time>2013-03-23T07:17:09Z</time>
      </trkpt>
      <trkpt lat="42.90493" lon="-0.2127">
        <ele>1163</ele>
        <time>2013-03-23T07:17:21Z</time>
      </trkpt>
      <trkpt lat="42.90492" lon="-0.21273">
        <ele>1162</ele>
        <time>2013-03-23T07:17:33Z</time>
      </trkpt>
      <trkpt lat="42.90491" lon="-0.21271">
        <ele>1163</ele>
        <time>2013-03-23T07:17:41Z</time>
      </trkpt>
      <trkpt lat="42.90491" lon="-0.21271">
        <ele>1164</ele>
        <time>2013-03-23T07:17:51Z</time>
      </trkpt>
      <trkpt lat="42.90492" lon="-0.21274">
        <ele>1163</ele>
        <time>2013-03-23T07:17:58Z</time>
      </trkpt>
      <trkpt lat="42.90492" lon="-0.21274">
        <ele>1163</ele>
        <time>2013-03-23T07:18:05Z</time>
      </trkpt>
      <trkpt lat="42.9049" lon="-0.21274">
        <ele>1164</ele>
        <time>2013-03-23T07:18:13Z</time>
      </trkpt>
      <trkpt lat="42.90489" lon="-0.21274">
        <ele>1164</ele>
        <time>2013-03-23T07:18:22Z</time>
      </trkpt>
      <trkpt lat="42.9049" lon="-0.21271">
        <ele>1164</ele>
        <time>2013-03-23T07:18:30Z</time>
      </trkpt>
      <trkpt lat="42.90489" lon="-0.2127">
        <ele>1163</ele>
        <time>2013-03-23T07:18:36Z</time>
      </trkpt>
      <trkpt lat="42.90488" lon="-0.2127">
        <ele>1164</ele>
        <time>2013-03-23T07:18:41Z</time>
      </trkpt>
      <trkpt lat="42.90488" lon="-0.21267">
        <ele>1164</ele>
        <time>2013-03-23T07:18:47Z</time>
      </trkpt>
      <trkpt lat="42.90488" lon="-0.21267">
        <ele>1164</ele>
        <time>2013-03-23T07:18:53Z</time>
      </trkpt>
      <trkpt lat="42.90489" lon="-0.21268">
        <ele>1164</ele>
        <time>2013-03-23T07:19:09Z</time>
      </trkpt>
      <trkpt lat="42.90488" lon="-0.21269">
        <ele>1164</ele>
        <time>2013-03-23T07:19:20Z</time>
      </trkpt>
      <trkpt lat="42.90488" lon="-0.21269">
        <ele>1165</ele>
        <time>2013-03-23T07:19:26Z</time>
      </trkpt>
      <trkpt lat="42.90488" lon="-0.21267">
        <ele>1164</ele>
        <time>2013-03-23T07:19:28Z</time>
      </trkpt>
      <trkpt lat="42.90485" lon="-0.21261">
        <ele>1165</ele>
        <time>2013-03-23T07:19:32Z</time>
      </trkpt>
      <trkpt lat="42.90485" lon="-0.21257">
        <ele>1165</ele>
        <time>2013-03-23T07:19:34Z</time>
      </trkpt>
      <trkpt lat="42.90484" lon="-0.21252">
        <ele>1165</ele>
        <time>2013-03-23T07:19:37Z</time>
      </trkpt>
      <trkpt lat="42.90482" lon="-0.21243">
        <ele>1166</ele>
        <time>2013-03-23T07:19:45Z</time>
      </trkpt>
      <trkpt lat="42.9048" lon="-0.21239">
        <ele>1166</ele>
        <time>2013-03-23T07:19:51Z</time>
      </trkpt>
      <trkpt lat="42.90481" lon="-0.2124">
        <ele>1166</ele>
        <time>2013-03-23T07:19:59Z</time>
      </trkpt>
      <trkpt lat="42.90481" lon="-0.21235">
        <ele>1166</ele>
        <time>2013-03-23T07:20:08Z</time>
      </trkpt>
      <trkpt lat="42.9048" lon="-0.21232">
        <ele>1166</ele>
        <time>2013-03-23T07:20:11Z</time>
      </trkpt>
      <trkpt lat="42.90477" lon="-0.21231">
        <ele>1166</ele>
        <time>2013-03-23T07:20:18Z</time>
      </trkpt>
      <trkpt lat="42.90474" lon="-0.21229">
        <ele>1166</ele>
        <time>2013-03-23T07:20:22Z</time>
      </trkpt>
      <trkpt lat="42.9047" lon="-0.21227">
        <ele>1166</ele>
        <time>2013-03-23T07:20:27Z</time>
      </trkpt>
      <trkpt lat="42.90461" lon="-0.21221">
        <ele>1167</ele>
        <time>2013-03-23T07:20:36Z</time>
      </trkpt>
      <trkpt lat="42.90454" lon="-0.21218">
        <ele>1167</ele>
        <time>2013-03-23T07:20:43Z</time>
      </trkpt>
      <trkpt lat="42.9045" lon="-0.21216">
        <ele>1168</ele>
        <time>2013-03-23T07:20:50Z</time>
      </trkpt>
      <trkpt lat="42.90445" lon="-0.21212">
        <ele>1168</ele>
        <time>2013-03-23T07:20:56Z</time>
      </trkpt>
      <trkpt lat="42.90439" lon="-0.21202">
        <ele>1169</ele>
        <time>2013-03-23T07:21:04Z</time>
      </trkpt>
      <trkpt lat="42.90435" lon="-0.21198">
        <ele>1169</ele>
        <time>2013-03-23T07:21:11Z</time>
      </trkpt>
      <trkpt lat="42.9043" lon="-0.21191">
        <ele>1169</ele>
        <time>2013-03-23T07:21:18Z</time>
      </trkpt>
      <trkpt lat="42.90425" lon="-0.21184">
        <ele>1170</ele>
        <time>2013-03-23T07:21:25Z</time>
      </trkpt>
      <trkpt lat="42.90422" lon="-0.21177">
        <ele>1170</ele>
        <time>2013-03-23T07:21:32Z</time>
      </trkpt>
      <trkpt lat="42.90422" lon="-0.21176">
        <ele>1170</ele>
        <time>2013-03-23T07:21:33Z</time>
      </trkpt>
      <trkpt lat="42.9042" lon="-0.21167">
        <ele>1170</ele>
        <time>2013-03-23T07:21:40Z</time>
      </trkpt>
      <trkpt lat="42.9042" lon="-0.21162">
        <ele>1170</ele>
        <time>2013-03-23T07:21:46Z</time>
      </trkpt>
      <trkpt lat="42.90421" lon="-0.21152">
        <ele>1171</ele>
        <time>2013-03-23T07:21:53Z</time>
      </trkpt>
      <trkpt lat="42.90421" lon="-0.21149">
        <ele>1171</ele>
        <time>2013-03-23T07:21:55Z</time>
      </trkpt>
      <trkpt lat="42.90419" lon="-0.21139">
        <ele>1171</ele>
        <time>2013-03-23T07:22:03Z</time>
      </trkpt>
      <trkpt lat="42.90419" lon="-0.21137">
        <ele>1171</ele>
        <time>2013-03-23T07:22:07Z</time>
      </trkpt>
      <trkpt lat="42.90419" lon="-0.21132">
        <ele>1171</ele>
        <time>2013-03-23T07:22:14Z</time>
      </trkpt>
      <trkpt lat="42.90417" lon="-0.21125">
        <ele>1171</ele>
        <time>2013-03-23T07:22:21Z</time>
      </trkpt>
      <trkpt lat="42.90417" lon="-0.2112">
        <ele>1172</ele>
        <time>2013-03-23T07:22:28Z</time>
      </trkpt>
      <trkpt lat="42.90415" lon="-0.21112">
        <ele>1171</ele>
        <time>2013-03-23T07:22:35Z</time>
      </trkpt>
      <trkpt lat="42.9041" lon="-0.21108">
        <ele>1172</ele>
        <time>2013-03-23T07:22:43Z</time>
      </trkpt>
      <trkpt lat="42.90408" lon="-0.21109">
        <ele>1172</ele>
        <time>2013-03-23T07:22:49Z</time>
      </trkpt>
      <trkpt lat="42.90404" lon="-0.2111">
        <ele>1173</ele>
        <time>2013-03-23T07:22:54Z</time>
      </trkpt>
      <trkpt lat="42.90395" lon="-0.21112">
        <ele>1174</ele>
        <time>2013-03-23T07:23:03Z</time>
      </trkpt>
      <trkpt lat="42.90386" lon="-0.21115">
        <ele>1175</ele>
        <time>2013-03-23T07:23:12Z</time>
      </trkpt>
      <trkpt lat="42.90376" lon="-0.21118">
        <ele>1176</ele>
        <time>2013-03-23T07:23:20Z</time>
      </trkpt>
      <trkpt lat="42.90372" lon="-0.21122">
        <ele>1177</ele>
        <time>2013-03-23T07:23:27Z</time>
      </trkpt>
      <trkpt lat="42.90368" lon="-0.21123">
        <ele>1178</ele>
        <time>2013-03-23T07:23:30Z</time>
      </trkpt>
      <trkpt lat="42.90364" lon="-0.21124">
        <ele>1177</ele>
        <time>2013-03-23T07:23:35Z</time>
      </trkpt>
      <trkpt lat="42.90358" lon="-0.21124">
        <ele>1179</ele>
        <time>2013-03-23T07:23:43Z</time>
      </trkpt>
      <trkpt lat="42.90352" lon="-0.21126">
        <ele>1179</ele>
        <time>2013-03-23T07:23:50Z</time>
      </trkpt>
      <trkpt lat="42.90345" lon="-0.21128">
        <ele>1180</ele>
        <time>2013-03-23T07:23:58Z</time>
      </trkpt>
      <trkpt lat="42.9034" lon="-0.21128">
        <ele>1181</ele>
        <time>2013-03-23T07:24:04Z</time>
      </trkpt>
      <trkpt lat="42.90333" lon="-0.21135">
        <ele>1182</ele>
        <time>2013-03-23T07:24:12Z</time>
      </trkpt>
      <trkpt lat="42.90328" lon="-0.21138">
        <ele>1183</ele>
        <time>2013-03-23T07:24:18Z</time>
      </trkpt>
      <trkpt lat="42.90319" lon="-0.21144">
        <ele>1184</ele>
        <time>2013-03-23T07:24:28Z</time>
      </trkpt>
      <trkpt lat="42.90312" lon="-0.21142">
        <ele>1185</ele>
        <time>2013-03-23T07:24:35Z</time>
      </trkpt>
      <trkpt lat="42.90307" lon="-0.21141">
        <ele>1186</ele>
        <time>2013-03-23T07:24:43Z</time>
      </trkpt>
      <trkpt lat="42.90302" lon="-0.21138">
        <ele>1187</ele>
        <time>2013-03-23T07:24:51Z</time>
      </trkpt>
      <trkpt lat="42.903" lon="-0.21136">
        <ele>1188</ele>
        <time>2013-03-23T07:24:59Z</time>
      </trkpt>
      <trkpt lat="42.90297" lon="-0.21138">
        <ele>1188</ele>
        <time>2013-03-23T07:25:05Z</time>
      </trkpt>
      <trkpt lat="42.90289" lon="-0.21139">
        <ele>1190</ele>
        <time>2013-03-23T07:25:13Z</time>
      </trkpt>
      <trkpt lat="42.90283" lon="-0.21137">
        <ele>1191</ele>
        <time>2013-03-23T07:25:23Z</time>
      </trkpt>
      <trkpt lat="42.90278" lon="-0.21138">
        <ele>1191</ele>
        <time>2013-03-23T07:25:26Z</time>
      </trkpt>
      <trkpt lat="42.90268" lon="-0.21135">
        <ele>1193</ele>
        <time>2013-03-23T07:25:35Z</time>
      </trkpt>
      <trkpt lat="42.90267" lon="-0.21135">
        <ele>1192</ele>
        <time>2013-03-23T07:25:36Z</time>
      </trkpt>
      <trkpt lat="42.90261" lon="-0.21135">
        <ele>1194</ele>
        <time>2013-03-23T07:25:42Z</time>
      </trkpt>
      <trkpt lat="42.90258" lon="-0.21129">
        <ele>1195</ele>
        <time>2013-03-23T07:25:49Z</time>
      </trkpt>
      <trkpt lat="42.90263" lon="-0.21119">
        <ele>1196</ele>
        <time>2013-03-23T07:25:57Z</time>
      </trkpt>
      <trkpt lat="42.90267" lon="-0.21116">
        <ele>1196</ele>
        <time>2013-03-23T07:26:00Z</time>
      </trkpt>
      <trkpt lat="42.90274" lon="-0.21104">
        <ele>1197</ele>
        <time>2013-03-23T07:26:09Z</time>
      </trkpt>
      <trkpt lat="42.90279" lon="-0.21101">
        <ele>1198</ele>
        <time>2013-03-23T07:26:16Z</time>
      </trkpt>
      <trkpt lat="42.90285" lon="-0.211">
        <ele>1199</ele>
        <time>2013-03-23T07:26:24Z</time>
      </trkpt>
      <trkpt lat="42.90289" lon="-0.21093">
        <ele>1200</ele>
        <time>2013-03-23T07:26:31Z</time>
      </trkpt>
      <trkpt lat="42.90293" lon="-0.21091">
        <ele>1201</ele>
        <time>2013-03-23T07:26:39Z</time>
      </trkpt>
      <trkpt lat="42.90301" lon="-0.21086">
        <ele>1203</ele>
        <time>2013-03-23T07:26:47Z</time>
      </trkpt>
      <trkpt lat="42.90309" lon="-0.2108">
        <ele>1203</ele>
        <time>2013-03-23T07:26:55Z</time>
      </trkpt>
      <trkpt lat="42.90316" lon="-0.2108">
        <ele>1205</ele>
        <time>2013-03-23T07:27:03Z</time>
      </trkpt>
      <trkpt lat="42.90319" lon="-0.2108">
        <ele>1206</ele>
        <time>2013-03-23T07:27:10Z</time>
      </trkpt>
      <trkpt lat="42.90325" lon="-0.21079">
        <ele>1207</ele>
        <time>2013-03-23T07:27:16Z</time>
      </trkpt>
      <trkpt lat="42.90326" lon="-0.21079">
        <ele>1207</ele>
        <time>2013-03-23T07:27:17Z</time>
      </trkpt>
      <trkpt lat="42.90332" lon="-0.21079">
        <ele>1208</ele>
        <time>2013-03-23T07:27:27Z</time>
      </trkpt>
      <trkpt lat="42.90335" lon="-0.21076">
        <ele>1209</ele>
        <time>2013-03-23T07:27:33Z</time>
      </trkpt>
      <trkpt lat="42.90341" lon="-0.21076">
        <ele>1209</ele>
        <time>2013-03-23T07:27:41Z</time>
      </trkpt>
      <trkpt lat="42.90349" lon="-0.21069">
        <ele>1210</ele>
        <time>2013-03-23T07:27:49Z</time>
      </trkpt>
      <trkpt lat="42.90358" lon="-0.21067">
        <ele>1211</ele>
        <time>2013-03-23T07:27:59Z</time>
      </trkpt>
      <trkpt lat="42.90365" lon="-0.21056">
        <ele>1212</ele>
        <time>2013-03-23T07:28:08Z</time>
      </trkpt>
      <trkpt lat="42.90368" lon="-0.2105">
        <ele>1213</ele>
        <time>2013-03-23T07:28:16Z</time>
      </trkpt>
      <trkpt lat="42.90374" lon="-0.21045">
        <ele>1214</ele>
        <time>2013-03-23T07:28:24Z</time>
      </trkpt>
      <trkpt lat="42.90381" lon="-0.21037">
        <ele>1215</ele>
        <time>2013-03-23T07:28:32Z</time>
      </trkpt>
      <trkpt lat="42.90385" lon="-0.21031">
        <ele>1215</ele>
        <time>2013-03-23T07:28:37Z</time>
      </trkpt>
      <trkpt lat="42.90392" lon="-0.21019">
        <ele>1217</ele>
        <time>2013-03-23T07:28:46Z</time>
      </trkpt>
      <trkpt lat="42.90402" lon="-0.2101">
        <ele>1218</ele>
        <time>2013-03-23T07:28:56Z</time>
      </trkpt>
      <trkpt lat="42.90402" lon="-0.21005">
        <ele>1219</ele>
        <time>2013-03-23T07:29:02Z</time>
      </trkpt>
      <trkpt lat="42.90404" lon="-0.21">
        <ele>1220</ele>
        <time>2013-03-23T07:29:07Z</time>
      </trkpt>
      <trkpt lat="42.90403" lon="-0.2099">
        <ele>1220</ele>
        <time>2013-03-23T07:29:14Z</time>
      </trkpt>
      <trkpt lat="42.90404" lon="-0.20987">
        <ele>1221</ele>
        <time>2013-03-23T07:29:17Z</time>
      </trkpt>
      <trkpt lat="42.90405" lon="-0.20983">
        <ele>1221</ele>
        <time>2013-03-23T07:29:21Z</time>
      </trkpt>
      <trkpt lat="42.90408" lon="-0.20976">
        <ele>1222</ele>
        <time>2013-03-23T07:29:26Z</time>
      </trkpt>
      <trkpt lat="42.90411" lon="-0.20971">
        <ele>1222</ele>
        <time>2013-03-23T07:29:30Z</time>
      </trkpt>
      <trkpt lat="42.90415" lon="-0.20964">
        <ele>1223</ele>
        <time>2013-03-23T07:29:38Z</time>
      </trkpt>
      <trkpt lat="42.9042" lon="-0.20957">
        <ele>1224</ele>
        <time>2013-03-23T07:29:44Z</time>
      </trkpt>
      <trkpt lat="42.90421" lon="-0.20949">
        <ele>1224</ele>
        <time>2013-03-23T07:29:51Z</time>
      </trkpt>
      <trkpt lat="42.90422" lon="-0.20939">
        <ele>1225</ele>
        <time>2013-03-23T07:29:59Z</time>
      </trkpt>
      <trkpt lat="42.90422" lon="-0.20931">
        <ele>1226</ele>
        <time>2013-03-23T07:30:06Z</time>
      </trkpt>
      <trkpt lat="42.90425" lon="-0.20928">
        <ele>1226</ele>
        <time>2013-03-23T07:30:14Z</time>
      </trkpt>
      <trkpt lat="42.90426" lon="-0.2092">
        <ele>1227</ele>
        <time>2013-03-23T07:30:21Z</time>
      </trkpt>
      <trkpt lat="42.90421" lon="-0.20911">
        <ele>1228</ele>
        <time>2013-03-23T07:30:29Z</time>
      </trkpt>
      <trkpt lat="42.90421" lon="-0.20908">
        <ele>1228</ele>
        <time>2013-03-23T07:30:31Z</time>
      </trkpt>
      <trkpt lat="42.90425" lon="-0.20903">
        <ele>1228</ele>
        <time>2013-03-23T07:30:38Z</time>
      </trkpt>
      <trkpt lat="42.90428" lon="-0.20893">
        <ele>1229</ele>
        <time>2013-03-23T07:30:45Z</time>
      </trkpt>
      <trkpt lat="42.90431" lon="-0.20883">
        <ele>1230</ele>
        <time>2013-03-23T07:30:53Z</time>
      </trkpt>
      <trkpt lat="42.90431" lon="-0.20879">
        <ele>1229</ele>
        <time>2013-03-23T07:30:55Z</time>
      </trkpt>
      <trkpt lat="42.90436" lon="-0.20864">
        <ele>1230</ele>
        <time>2013-03-23T07:31:03Z</time>
      </trkpt>
      <trkpt lat="42.90442" lon="-0.20857">
        <ele>1231</ele>
        <time>2013-03-23T07:31:11Z</time>
      </trkpt>
      <trkpt lat="42.90448" lon="-0.20852">
        <ele>1231</ele>
        <time>2013-03-23T07:31:17Z</time>
      </trkpt>
      <trkpt lat="42.90454" lon="-0.20846">
        <ele>1232</ele>
        <time>2013-03-23T07:31:24Z</time>
      </trkpt>
      <trkpt lat="42.90455" lon="-0.20828">
        <ele>1233</ele>
        <time>2013-03-23T07:31:32Z</time>
      </trkpt>
      <trkpt lat="42.90456" lon="-0.2082">
        <ele>1233</ele>
        <time>2013-03-23T07:31:40Z</time>
      </trkpt>
      <trkpt lat="42.90461" lon="-0.20816">
        <ele>1233</ele>
        <time>2013-03-23T07:31:47Z</time>
      </trkpt>
      <trkpt lat="42.90468" lon="-0.20805">
        <ele>1235</ele>
        <time>2013-03-23T07:31:56Z</time>
      </trkpt>
      <trkpt lat="42.90465" lon="-0.20799">
        <ele>1236</ele>
        <time>2013-03-23T07:32:03Z</time>
      </trkpt>
      <trkpt lat="42.90464" lon="-0.20795">
        <ele>1236</ele>
        <time>2013-03-23T07:32:06Z</time>
      </trkpt>
      <trkpt lat="42.90461" lon="-0.20783">
        <ele>1236</ele>
        <time>2013-03-23T07:32:14Z</time>
      </trkpt>
      <trkpt lat="42.90458" lon="-0.20771">
        <ele>1237</ele>
        <time>2013-03-23T07:32:22Z</time>
      </trkpt>
      <trkpt lat="42.90456" lon="-0.20762">
        <ele>1238</ele>
        <time>2013-03-23T07:32:31Z</time>
      </trkpt>
      <trkpt lat="42.90455" lon="-0.20761">
        <ele>1238</ele>
        <time>2013-03-23T07:32:32Z</time>
      </trkpt>
      <trkpt lat="42.90449" lon="-0.20754">
        <ele>1239</ele>
        <time>2013-03-23T07:32:41Z</time>
      </trkpt>
      <trkpt lat="42.90446" lon="-0.20748">
        <ele>1239</ele>
        <time>2013-03-23T07:32:48Z</time>
      </trkpt>
      <trkpt lat="42.90444" lon="-0.2074">
        <ele>1240</ele>
        <time>2013-03-23T07:32:56Z</time>
      </trkpt>
      <trkpt lat="42.90444" lon="-0.2074">
        <ele>1242</ele>
        <time>2013-03-23T07:33:04Z</time>
      </trkpt>
      <trkpt lat="42.90441" lon="-0.20748">
        <ele>1244</ele>
        <time>2013-03-23T07:33:13Z</time>
      </trkpt>
      <trkpt lat="42.90435" lon="-0.20744">
        <ele>1245</ele>
        <time>2013-03-23T07:33:21Z</time>
      </trkpt>
      <trkpt lat="42.90435" lon="-0.2074">
        <ele>1246</ele>
        <time>2013-03-23T07:33:29Z</time>
      </trkpt>
      <trkpt lat="42.90428" lon="-0.20737">
        <ele>1247</ele>
        <time>2013-03-23T07:33:38Z</time>
      </trkpt>
      <trkpt lat="42.90419" lon="-0.2074">
        <ele>1249</ele>
        <time>2013-03-23T07:33:47Z</time>
      </trkpt>
      <trkpt lat="42.90417" lon="-0.20742">
        <ele>1251</ele>
        <time>2013-03-23T07:33:53Z</time>
      </trkpt>
      <trkpt lat="42.90415" lon="-0.20742">
        <ele>1251</ele>
        <time>2013-03-23T07:33:56Z</time>
      </trkpt>
      <trkpt lat="42.9041" lon="-0.20739">
        <ele>1252</ele>
        <time>2013-03-23T07:34:05Z</time>
      </trkpt>
      <trkpt lat="42.90401" lon="-0.20738">
        <ele>1254</ele>
        <time>2013-03-23T07:34:15Z</time>
      </trkpt>
      <trkpt lat="42.90396" lon="-0.20734">
        <ele>1255</ele>
        <time>2013-03-23T07:34:24Z</time>
      </trkpt>
      <trkpt lat="42.90395" lon="-0.20731">
        <ele>1257</ele>
        <time>2013-03-23T07:34:33Z</time>
      </trkpt>
      <trkpt lat="42.90393" lon="-0.20736">
        <ele>1258</ele>
        <time>2013-03-23T07:34:39Z</time>
      </trkpt>
      <trkpt lat="42.90392" lon="-0.20735">
        <ele>1258</ele>
        <time>2013-03-23T07:34:48Z</time>
      </trkpt>
      <trkpt lat="42.90395" lon="-0.20732">
        <ele>1258</ele>
        <time>2013-03-23T07:35:03Z</time>
      </trkpt>
      <trkpt lat="42.90391" lon="-0.20729">
        <ele>1258</ele>
        <time>2013-03-23T07:35:20Z</time>
      </trkpt>
      <trkpt lat="42.90393" lon="-0.20731">
        <ele>1258</ele>
        <time>2013-03-23T07:35:33Z</time>
      </trkpt>
      <trkpt lat="42.90394" lon="-0.20734">
        <ele>1258</ele>
        <time>2013-03-23T07:35:42Z</time>
      </trkpt>
      <trkpt lat="42.90393" lon="-0.20735">
        <ele>1259</ele>
        <time>2013-03-23T07:35:55Z</time>
      </trkpt>
      <trkpt lat="42.90396" lon="-0.20733">
        <ele>1259</ele>
        <time>2013-03-23T07:36:09Z</time>
      </trkpt>
      <trkpt lat="42.90399" lon="-0.2073">
        <ele>1258</ele>
        <time>2013-03-23T07:36:29Z</time>
      </trkpt>
      <trkpt lat="42.90394" lon="-0.20733">
        <ele>1259</ele>
        <time>2013-03-23T07:36:41Z</time>
      </trkpt>
      <trkpt lat="42.90393" lon="-0.20743">
        <ele>1261</ele>
        <time>2013-03-23T07:36:49Z</time>
      </trkpt>
      <trkpt lat="42.90389" lon="-0.20743">
        <ele>1263</ele>
        <time>2013-03-23T07:36:58Z</time>
      </trkpt>
      <trkpt lat="42.90388" lon="-0.20752">
        <ele>1264</ele>
        <time>2013-03-23T07:37:07Z</time>
      </trkpt>
      <trkpt lat="42.90382" lon="-0.20755">
        <ele>1265</ele>
        <time>2013-03-23T07:37:13Z</time>
      </trkpt>
      <trkpt lat="42.90377" lon="-0.20756">
        <ele>1267</ele>
        <time>2013-03-23T07:37:18Z</time>
      </trkpt>
      <trkpt lat="42.90374" lon="-0.20759">
        <ele>1269</ele>
        <time>2013-03-23T07:37:25Z</time>
      </trkpt>
      <trkpt lat="42.90365" lon="-0.20756">
        <ele>1270</ele>
        <time>2013-03-23T07:37:34Z</time>
      </trkpt>
      <trkpt lat="42.9036" lon="-0.20752">
        <ele>1271</ele>
        <time>2013-03-23T07:37:41Z</time>
      </trkpt>
      <trkpt lat="42.90353" lon="-0.20754">
        <ele>1273</ele>
        <time>2013-03-23T07:37:49Z</time>
      </trkpt>
      <trkpt lat="42.90347" lon="-0.20751">
        <ele>1275</ele>
        <time>2013-03-23T07:37:57Z</time>
      </trkpt>
      <trkpt lat="42.90343" lon="-0.20742">
        <ele>1275</ele>
        <time>2013-03-23T07:38:04Z</time>
      </trkpt>
      <trkpt lat="42.90341" lon="-0.20741">
        <ele>1276</ele>
        <time>2013-03-23T07:38:05Z</time>
      </trkpt>
      <trkpt lat="42.90335" lon="-0.20733">
        <ele>1277</ele>
        <time>2013-03-23T07:38:13Z</time>
      </trkpt>
      <trkpt lat="42.90335" lon="-0.20724">
        <ele>1278</ele>
        <time>2013-03-23T07:38:20Z</time>
      </trkpt>
      <trkpt lat="42.90333" lon="-0.20722">
        <ele>1278</ele>
        <time>2013-03-23T07:38:22Z</time>
      </trkpt>
      <trkpt lat="42.9033" lon="-0.20715">
        <ele>1280</ele>
        <time>2013-03-23T07:38:29Z</time>
      </trkpt>
      <trkpt lat="42.90329" lon="-0.20715">
        <ele>1281</ele>
        <time>2013-03-23T07:38:35Z</time>
      </trkpt>
      <trkpt lat="42.90329" lon="-0.20711">
        <ele>1281</ele>
        <time>2013-03-23T07:38:41Z</time>
      </trkpt>
      <trkpt lat="42.90331" lon="-0.20705">
        <ele>1283</ele>
        <time>2013-03-23T07:38:47Z</time>
      </trkpt>
      <trkpt lat="42.90331" lon="-0.20704">
        <ele>1283</ele>
        <time>2013-03-23T07:38:49Z</time>
      </trkpt>
      <trkpt lat="42.90327" lon="-0.20707">
        <ele>1283</ele>
        <time>2013-03-23T07:38:56Z</time>
      </trkpt>
      <trkpt lat="42.90326" lon="-0.20711">
        <ele>1284</ele>
        <time>2013-03-23T07:39:00Z</time>
      </trkpt>
      <trkpt lat="42.90324" lon="-0.20719">
        <ele>1284</ele>
        <time>2013-03-23T07:39:08Z</time>
      </trkpt>
      <trkpt lat="42.90322" lon="-0.20722">
        <ele>1285</ele>
        <time>2013-03-23T07:39:15Z</time>
      </trkpt>
      <trkpt lat="42.90322" lon="-0.20723">
        <ele>1284</ele>
        <time>2013-03-23T07:39:16Z</time>
      </trkpt>
      <trkpt lat="42.90315" lon="-0.20732">
        <ele>1286</ele>
        <time>2013-03-23T07:39:25Z</time>
      </trkpt>
      <trkpt lat="42.90312" lon="-0.20737">
        <ele>1287</ele>
        <time>2013-03-23T07:39:32Z</time>
      </trkpt>
      <trkpt lat="42.9031" lon="-0.20743">
        <ele>1288</ele>
        <time>2013-03-23T07:39:39Z</time>
      </trkpt>
      <trkpt lat="42.90307" lon="-0.20745">
        <ele>1289</ele>
        <time>2013-03-23T07:39:44Z</time>
      </trkpt>
      <trkpt lat="42.90305" lon="-0.20746">
        <ele>1290</ele>
        <time>2013-03-23T07:39:51Z</time>
      </trkpt>
      <trkpt lat="42.90302" lon="-0.20746">
        <ele>1291</ele>
        <time>2013-03-23T07:40:00Z</time>
      </trkpt>
      <trkpt lat="42.90299" lon="-0.2075">
        <ele>1292</ele>
        <time>2013-03-23T07:40:07Z</time>
      </trkpt>
      <trkpt lat="42.90295" lon="-0.20752">
        <ele>1294</ele>
        <time>2013-03-23T07:40:15Z</time>
      </trkpt>
      <trkpt lat="42.90294" lon="-0.20756">
        <ele>1295</ele>
        <time>2013-03-23T07:40:23Z</time>
      </trkpt>
      <trkpt lat="42.90293" lon="-0.20757">
        <ele>1296</ele>
        <time>2013-03-23T07:40:29Z</time>
      </trkpt>
      <trkpt lat="42.90285" lon="-0.20758">
        <ele>1298</ele>
        <time>2013-03-23T07:40:39Z</time>
      </trkpt>
      <trkpt lat="42.9028" lon="-0.20762">
        <ele>1300</ele>
        <time>2013-03-23T07:40:46Z</time>
      </trkpt>
      <trkpt lat="42.90277" lon="-0.20763">
        <ele>1301</ele>
        <time>2013-03-23T07:40:49Z</time>
      </trkpt>
      <trkpt lat="42.90268" lon="-0.20766">
        <ele>1302</ele>
        <time>2013-03-23T07:40:57Z</time>
      </trkpt>
      <trkpt lat="42.90265" lon="-0.20766">
        <ele>1303</ele>
        <time>2013-03-23T07:41:01Z</time>
      </trkpt>
      <trkpt lat="42.90259" lon="-0.20764">
        <ele>1305</ele>
        <time>2013-03-23T07:41:08Z</time>
      </trkpt>
      <trkpt lat="42.90258" lon="-0.20763">
        <ele>1306</ele>
        <time>2013-03-23T07:41:14Z</time>
      </trkpt>
      <trkpt lat="42.90255" lon="-0.20761">
        <ele>1308</ele>
        <time>2013-03-23T07:41:22Z</time>
      </trkpt>
      <trkpt lat="42.90254" lon="-0.20758">
        <ele>1308</ele>
        <time>2013-03-23T07:41:33Z</time>
      </trkpt>
      <trkpt lat="42.9025" lon="-0.20759">
        <ele>1308</ele>
        <time>2013-03-23T07:41:44Z</time>
      </trkpt>
      <trkpt lat="42.90243" lon="-0.20759">
        <ele>1308</ele>
        <time>2013-03-23T07:41:51Z</time>
      </trkpt>
      <trkpt lat="42.90249" lon="-0.20755">
        <ele>1310</ele>
        <time>2013-03-23T07:41:59Z</time>
      </trkpt>
      <trkpt lat="42.90248" lon="-0.2075">
        <ele>1312</ele>
        <time>2013-03-23T07:42:07Z</time>
      </trkpt>
      <trkpt lat="42.90246" lon="-0.20749">
        <ele>1314</ele>
        <time>2013-03-23T07:42:15Z</time>
      </trkpt>
      <trkpt lat="42.90238" lon="-0.20746">
        <ele>1315</ele>
        <time>2013-03-23T07:42:24Z</time>
      </trkpt>
      <trkpt lat="42.90231" lon="-0.20739">
        <ele>1317</ele>
        <time>2013-03-23T07:42:33Z</time>
      </trkpt>
      <trkpt lat="42.90229" lon="-0.20732">
        <ele>1319</ele>
        <time>2013-03-23T07:42:41Z</time>
      </trkpt>
      <trkpt lat="42.90224" lon="-0.20728">
        <ele>1320</ele>
        <time>2013-03-23T07:42:49Z</time>
      </trkpt>
      <trkpt lat="42.90224" lon="-0.20724">
        <ele>1321</ele>
        <time>2013-03-23T07:42:56Z</time>
      </trkpt>
      <trkpt lat="42.90224" lon="-0.20719">
        <ele>1324</ele>
        <time>2013-03-23T07:43:04Z</time>
      </trkpt>
      <trkpt lat="42.90227" lon="-0.20715">
        <ele>1325</ele>
        <time>2013-03-23T07:43:08Z</time>
      </trkpt>
      <trkpt lat="42.90229" lon="-0.20706">
        <ele>1326</ele>
        <time>2013-03-23T07:43:15Z</time>
      </trkpt>
      <trkpt lat="42.90226" lon="-0.20701">
        <ele>1328</ele>
        <time>2013-03-23T07:43:22Z</time>
      </trkpt>
      <trkpt lat="42.90224" lon="-0.20696">
        <ele>1329</ele>
        <time>2013-03-23T07:43:29Z</time>
      </trkpt>
      <trkpt lat="42.90232" lon="-0.2069">
        <ele>1331</ele>
        <time>2013-03-23T07:43:38Z</time>
      </trkpt>
      <trkpt lat="42.9023" lon="-0.20686">
        <ele>1331</ele>
        <time>2013-03-23T07:43:45Z</time>
      </trkpt>
      <trkpt lat="42.90228" lon="-0.20682">
        <ele>1332</ele>
        <time>2013-03-23T07:43:51Z</time>
      </trkpt>
      <trkpt lat="42.90221" lon="-0.20674">
        <ele>1333</ele>
        <time>2013-03-23T07:43:59Z</time>
      </trkpt>
      <trkpt lat="42.90215" lon="-0.20665">
        <ele>1335</ele>
        <time>2013-03-23T07:44:07Z</time>
      </trkpt>
      <trkpt lat="42.90213" lon="-0.20658">
        <ele>1336</ele>
        <time>2013-03-23T07:44:13Z</time>
      </trkpt>
      <trkpt lat="42.90214" lon="-0.20652">
        <ele>1338</ele>
        <time>2013-03-23T07:44:21Z</time>
      </trkpt>
      <trkpt lat="42.90207" lon="-0.20651">
        <ele>1339</ele>
        <time>2013-03-23T07:44:28Z</time>
      </trkpt>
      <trkpt lat="42.90205" lon="-0.20649">
        <ele>1341</ele>
        <time>2013-03-23T07:44:36Z</time>
      </trkpt>
      <trkpt lat="42.90196" lon="-0.20642">
        <ele>1343</ele>
        <time>2013-03-23T07:44:46Z</time>
      </trkpt>
      <trkpt lat="42.9019" lon="-0.20641">
        <ele>1344</ele>
        <time>2013-03-23T07:44:53Z</time>
      </trkpt>
      <trkpt lat="42.90184" lon="-0.20637">
        <ele>1346</ele>
        <time>2013-03-23T07:45:02Z</time>
      </trkpt>
      <trkpt lat="42.90181" lon="-0.20632">
        <ele>1347</ele>
        <time>2013-03-23T07:45:10Z</time>
      </trkpt>
      <trkpt lat="42.90177" lon="-0.2063">
        <ele>1349</ele>
        <time>2013-03-23T07:45:17Z</time>
      </trkpt>
      <trkpt lat="42.90176" lon="-0.20629">
        <ele>1350</ele>
        <time>2013-03-23T07:45:24Z</time>
      </trkpt>
      <trkpt lat="42.90175" lon="-0.20624">
        <ele>1351</ele>
        <time>2013-03-23T07:45:33Z</time>
      </trkpt>
      <trkpt lat="42.90168" lon="-0.20622">
        <ele>1353</ele>
        <time>2013-03-23T07:45:41Z</time>
      </trkpt>
      <trkpt lat="42.90168" lon="-0.20619">
        <ele>1354</ele>
        <time>2013-03-23T07:45:49Z</time>
      </trkpt>
      <trkpt lat="42.90162" lon="-0.20612">
        <ele>1356</ele>
        <time>2013-03-23T07:45:58Z</time>
      </trkpt>
      <trkpt lat="42.90155" lon="-0.20606">
        <ele>1358</ele>
        <time>2013-03-23T07:46:07Z</time>
      </trkpt>
      <trkpt lat="42.90151" lon="-0.20601">
        <ele>1359</ele>
        <time>2013-03-23T07:46:15Z</time>
      </trkpt>
      <trkpt lat="42.90148" lon="-0.20593">
        <ele>1361</ele>
        <time>2013-03-23T07:46:25Z</time>
      </trkpt>
      <trkpt lat="42.90146" lon="-0.20588">
        <ele>1361</ele>
        <time>2013-03-23T07:46:32Z</time>
      </trkpt>
      <trkpt lat="42.90143" lon="-0.20585">
        <ele>1363</ele>
        <time>2013-03-23T07:46:40Z</time>
      </trkpt>
      <trkpt lat="42.90142" lon="-0.20578">
        <ele>1365</ele>
        <time>2013-03-23T07:46:48Z</time>
      </trkpt>
      <trkpt lat="42.90139" lon="-0.20574">
        <ele>1367</ele>
        <time>2013-03-23T07:46:58Z</time>
      </trkpt>
      <trkpt lat="42.90139" lon="-0.20569">
        <ele>1369</ele>
        <time>2013-03-23T07:47:08Z</time>
      </trkpt>
      <trkpt lat="42.90139" lon="-0.20566">
        <ele>1370</ele>
        <time>2013-03-23T07:47:16Z</time>
      </trkpt>
      <trkpt lat="42.90135" lon="-0.20565">
        <ele>1372</ele>
        <time>2013-03-23T07:47:23Z</time>
      </trkpt>
      <trkpt lat="42.90131" lon="-0.20561">
        <ele>1373</ele>
        <time>2013-03-23T07:47:32Z</time>
      </trkpt>
      <trkpt lat="42.90131" lon="-0.20557">
        <ele>1376</ele>
        <time>2013-03-23T07:47:41Z</time>
      </trkpt>
      <trkpt lat="42.90128" lon="-0.20553">
        <ele>1378</ele>
        <time>2013-03-23T07:47:53Z</time>
      </trkpt>
      <trkpt lat="42.90125" lon="-0.20552">
        <ele>1379</ele>
        <time>2013-03-23T07:47:58Z</time>
      </trkpt>
      <trkpt lat="42.90115" lon="-0.20553">
        <ele>1381</ele>
        <time>2013-03-23T07:48:07Z</time>
      </trkpt>
      <trkpt lat="42.9011" lon="-0.2055">
        <ele>1382</ele>
        <time>2013-03-23T07:48:18Z</time>
      </trkpt>
      <trkpt lat="42.90108" lon="-0.20547">
        <ele>1383</ele>
        <time>2013-03-23T07:48:32Z</time>
      </trkpt>
      <trkpt lat="42.90104" lon="-0.20547">
        <ele>1384</ele>
        <time>2013-03-23T07:48:42Z</time>
      </trkpt>
      <trkpt lat="42.90099" lon="-0.20548">
        <ele>1386</ele>
        <time>2013-03-23T07:48:51Z</time>
      </trkpt>
      <trkpt lat="42.90085" lon="-0.20552">
        <ele>1388</ele>
        <time>2013-03-23T07:49:00Z</time>
      </trkpt>
      <trkpt lat="42.9008" lon="-0.20554">
        <ele>1389</ele>
        <time>2013-03-23T07:49:07Z</time>
      </trkpt>
      <trkpt lat="42.90077" lon="-0.20552">
        <ele>1391</ele>
        <time>2013-03-23T07:49:15Z</time>
      </trkpt>
      <trkpt lat="42.90074" lon="-0.20551">
        <ele>1392</ele>
        <time>2013-03-23T07:49:25Z</time>
      </trkpt>
      <trkpt lat="42.90073" lon="-0.2055">
        <ele>1395</ele>
        <time>2013-03-23T07:49:34Z</time>
      </trkpt>
      <trkpt lat="42.90072" lon="-0.20552">
        <ele>1395</ele>
        <time>2013-03-23T07:49:42Z</time>
      </trkpt>
      <trkpt lat="42.90067" lon="-0.20556">
        <ele>1397</ele>
        <time>2013-03-23T07:49:51Z</time>
      </trkpt>
      <trkpt lat="42.90064" lon="-0.20556">
        <ele>1397</ele>
        <time>2013-03-23T07:50:01Z</time>
      </trkpt>
      <trkpt lat="42.90062" lon="-0.2055">
        <ele>1399</ele>
        <time>2013-03-23T07:50:11Z</time>
      </trkpt>
      <trkpt lat="42.90059" lon="-0.20549">
        <ele>1400</ele>
        <time>2013-03-23T07:50:20Z</time>
      </trkpt>
      <trkpt lat="42.90061" lon="-0.20548">
        <ele>1400</ele>
        <time>2013-03-23T07:50:31Z</time>
      </trkpt>
      <trkpt lat="42.90058" lon="-0.20548">
        <ele>1400</ele>
        <time>2013-03-23T07:50:42Z</time>
      </trkpt>
      <trkpt lat="42.90059" lon="-0.20548">
        <ele>1400</ele>
        <time>2013-03-23T07:50:54Z</time>
      </trkpt>
      <trkpt lat="42.90057" lon="-0.20552">
        <ele>1400</ele>
        <time>2013-03-23T07:51:10Z</time>
      </trkpt>
      <trkpt lat="42.90062" lon="-0.20551">
        <ele>1400</ele>
        <time>2013-03-23T07:51:23Z</time>
      </trkpt>
      <trkpt lat="42.90058" lon="-0.20548">
        <ele>1400</ele>
        <time>2013-03-23T07:51:32Z</time>
      </trkpt>
      <trkpt lat="42.90057" lon="-0.20547">
        <ele>1401</ele>
        <time>2013-03-23T07:51:39Z</time>
      </trkpt>
      <trkpt lat="42.90055" lon="-0.20547">
        <ele>1402</ele>
        <time>2013-03-23T07:51:47Z</time>
      </trkpt>
      <trkpt lat="42.90052" lon="-0.20542">
        <ele>1403</ele>
        <time>2013-03-23T07:51:55Z</time>
      </trkpt>
      <trkpt lat="42.90048" lon="-0.20537">
        <ele>1405</ele>
        <time>2013-03-23T07:52:03Z</time>
      </trkpt>
      <trkpt lat="42.90044" lon="-0.20532">
        <ele>1407</ele>
        <time>2013-03-23T07:52:10Z</time>
      </trkpt>
      <trkpt lat="42.90044" lon="-0.20526">
        <ele>1408</ele>
        <time>2013-03-23T07:52:17Z</time>
      </trkpt>
      <trkpt lat="42.9004" lon="-0.20521">
        <ele>1409</ele>
        <time>2013-03-23T07:52:24Z</time>
      </trkpt>
      <trkpt lat="42.90034" lon="-0.20515">
        <ele>1411</ele>
        <time>2013-03-23T07:52:34Z</time>
      </trkpt>
      <trkpt lat="42.90028" lon="-0.20511">
        <ele>1411</ele>
        <time>2013-03-23T07:52:42Z</time>
      </trkpt>
      <trkpt lat="42.90028" lon="-0.20508">
        <ele>1412</ele>
        <time>2013-03-23T07:52:49Z</time>
      </trkpt>
      <trkpt lat="42.90027" lon="-0.20504">
        <ele>1413</ele>
        <time>2013-03-23T07:52:58Z</time>
      </trkpt>
      <trkpt lat="42.90025" lon="-0.20503">
        <ele>1413</ele>
        <time>2013-03-23T07:53:03Z</time>
      </trkpt>
      <trkpt lat="42.90021" lon="-0.20498">
        <ele>1414</ele>
        <time>2013-03-23T07:53:10Z</time>
      </trkpt>
      <trkpt lat="42.9002" lon="-0.20498">
        <ele>1415</ele>
        <time>2013-03-23T07:53:17Z</time>
      </trkpt>
      <trkpt lat="42.90017" lon="-0.20502">
        <ele>1416</ele>
        <time>2013-03-23T07:53:24Z</time>
      </trkpt>
      <trkpt lat="42.90016" lon="-0.20501">
        <ele>1417</ele>
        <time>2013-03-23T07:53:27Z</time>
      </trkpt>
      <trkpt lat="42.90012" lon="-0.20492">
        <ele>1418</ele>
        <time>2013-03-23T07:53:36Z</time>
      </trkpt>
      <trkpt lat="42.90009" lon="-0.2049">
        <ele>1419</ele>
        <time>2013-03-23T07:53:42Z</time>
      </trkpt>
      <trkpt lat="42.90005" lon="-0.20488">
        <ele>1420</ele>
        <time>2013-03-23T07:53:50Z</time>
      </trkpt>
      <trkpt lat="42.90003" lon="-0.20488">
        <ele>1421</ele>
        <time>2013-03-23T07:53:53Z</time>
      </trkpt>
      <trkpt lat="42.89997" lon="-0.20488">
        <ele>1422</ele>
        <time>2013-03-23T07:54:00Z</time>
      </trkpt>
      <trkpt lat="42.89991" lon="-0.2049">
        <ele>1423</ele>
        <time>2013-03-23T07:54:07Z</time>
      </trkpt>
      <trkpt lat="42.89985" lon="-0.20493">
        <ele>1423</ele>
        <time>2013-03-23T07:54:14Z</time>
      </trkpt>
      <trkpt lat="42.89977" lon="-0.20495">
        <ele>1423</ele>
        <time>2013-03-23T07:54:22Z</time>
      </trkpt>
      <trkpt lat="42.8997" lon="-0.20499">
        <ele>1424</ele>
        <time>2013-03-23T07:54:29Z</time>
      </trkpt>
      <trkpt lat="42.89967" lon="-0.205">
        <ele>1424</ele>
        <time>2013-03-23T07:54:32Z</time>
      </trkpt>
      <trkpt lat="42.8996" lon="-0.20503">
        <ele>1425</ele>
        <time>2013-03-23T07:54:40Z</time>
      </trkpt>
      <trkpt lat="42.89954" lon="-0.20505">
        <ele>1427</ele>
        <time>2013-03-23T07:54:48Z</time>
      </trkpt>
      <trkpt lat="42.89952" lon="-0.20503">
        <ele>1428</ele>
        <time>2013-03-23T07:54:51Z</time>
      </trkpt>
      <trkpt lat="42.89949" lon="-0.20501">
        <ele>1428</ele>
        <time>2013-03-23T07:54:55Z</time>
      </trkpt>
      <trkpt lat="42.89942" lon="-0.205">
        <ele>1430</ele>
        <time>2013-03-23T07:55:05Z</time>
      </trkpt>
      <trkpt lat="42.89935" lon="-0.20499">
        <ele>1431</ele>
        <time>2013-03-23T07:55:13Z</time>
      </trkpt>
      <trkpt lat="42.89928" lon="-0.20497">
        <ele>1432</ele>
        <time>2013-03-23T07:55:21Z</time>
      </trkpt>
      <trkpt lat="42.89927" lon="-0.20497">
        <ele>1432</ele>
        <time>2013-03-23T07:55:22Z</time>
      </trkpt>
      <trkpt lat="42.89919" lon="-0.20494">
        <ele>1434</ele>
        <time>2013-03-23T07:55:31Z</time>
      </trkpt>
      <trkpt lat="42.89914" lon="-0.2049">
        <ele>1435</ele>
        <time>2013-03-23T07:55:38Z</time>
      </trkpt>
      <trkpt lat="42.89909" lon="-0.20486">
        <ele>1436</ele>
        <time>2013-03-23T07:55:46Z</time>
      </trkpt>
      <trkpt lat="42.89903" lon="-0.20482">
        <ele>1437</ele>
        <time>2013-03-23T07:55:53Z</time>
      </trkpt>
      <trkpt lat="42.89897" lon="-0.20478">
        <ele>1440</ele>
        <time>2013-03-23T07:56:01Z</time>
      </trkpt>
      <trkpt lat="42.89892" lon="-0.20478">
        <ele>1441</ele>
        <time>2013-03-23T07:56:09Z</time>
      </trkpt>
      <trkpt lat="42.89886" lon="-0.20479">
        <ele>1443</ele>
        <time>2013-03-23T07:56:16Z</time>
      </trkpt>
      <trkpt lat="42.89879" lon="-0.20478">
        <ele>1444</ele>
        <time>2013-03-23T07:56:25Z</time>
      </trkpt>
      <trkpt lat="42.89872" lon="-0.20479">
        <ele>1446</ele>
        <time>2013-03-23T07:56:33Z</time>
      </trkpt>
      <trkpt lat="42.89865" lon="-0.20477">
        <ele>1447</ele>
        <time>2013-03-23T07:56:42Z</time>
      </trkpt>
      <trkpt lat="42.89858" lon="-0.20476">
        <ele>1448</ele>
        <time>2013-03-23T07:56:50Z</time>
      </trkpt>
      <trkpt lat="42.89851" lon="-0.20479">
        <ele>1450</ele>
        <time>2013-03-23T07:57:00Z</time>
      </trkpt>
      <trkpt lat="42.89845" lon="-0.20477">
        <ele>1452</ele>
        <time>2013-03-23T07:57:08Z</time>
      </trkpt>
      <trkpt lat="42.89844" lon="-0.20473">
        <ele>1452</ele>
        <time>2013-03-23T07:57:11Z</time>
      </trkpt>
      <trkpt lat="42.89846" lon="-0.20464">
        <ele>1453</ele>
        <time>2013-03-23T07:57:19Z</time>
      </trkpt>
      <trkpt lat="42.89848" lon="-0.20456">
        <ele>1454</ele>
        <time>2013-03-23T07:57:26Z</time>
      </trkpt>
      <trkpt lat="42.8985" lon="-0.20446">
        <ele>1457</ele>
        <time>2013-03-23T07:57:34Z</time>
      </trkpt>
      <trkpt lat="42.89848" lon="-0.20446">
        <ele>1457</ele>
        <time>2013-03-23T07:57:36Z</time>
      </trkpt>
      <trkpt lat="42.8984" lon="-0.2045">
        <ele>1457</ele>
        <time>2013-03-23T07:57:44Z</time>
      </trkpt>
      <trkpt lat="42.89832" lon="-0.20454">
        <ele>1457</ele>
        <time>2013-03-23T07:57:51Z</time>
      </trkpt>
      <trkpt lat="42.89822" lon="-0.20459">
        <ele>1457</ele>
        <time>2013-03-23T07:58:00Z</time>
      </trkpt>
      <trkpt lat="42.89817" lon="-0.2047">
        <ele>1458</ele>
        <time>2013-03-23T07:58:09Z</time>
      </trkpt>
      <trkpt lat="42.89815" lon="-0.20478">
        <ele>1459</ele>
        <time>2013-03-23T07:58:17Z</time>
      </trkpt>
      <trkpt lat="42.89811" lon="-0.20487">
        <ele>1460</ele>
        <time>2013-03-23T07:58:24Z</time>
      </trkpt>
      <trkpt lat="42.8981" lon="-0.20495">
        <ele>1461</ele>
        <time>2013-03-23T07:58:31Z</time>
      </trkpt>
      <trkpt lat="42.89808" lon="-0.20506">
        <ele>1461</ele>
        <time>2013-03-23T07:58:39Z</time>
      </trkpt>
      <trkpt lat="42.89806" lon="-0.20519">
        <ele>1462</ele>
        <time>2013-03-23T07:58:49Z</time>
      </trkpt>
      <trkpt lat="42.89805" lon="-0.2053">
        <ele>1464</ele>
        <time>2013-03-23T07:58:58Z</time>
      </trkpt>
      <trkpt lat="42.89804" lon="-0.2054">
        <ele>1464</ele>
        <time>2013-03-23T07:59:06Z</time>
      </trkpt>
      <trkpt lat="42.89802" lon="-0.20549">
        <ele>1465</ele>
        <time>2013-03-23T07:59:14Z</time>
      </trkpt>
      <trkpt lat="42.89801" lon="-0.20559">
        <ele>1466</ele>
        <time>2013-03-23T07:59:22Z</time>
      </trkpt>
      <trkpt lat="42.898" lon="-0.2057">
        <ele>1467</ele>
        <time>2013-03-23T07:59:31Z</time>
      </trkpt>
      <trkpt lat="42.898" lon="-0.2058">
        <ele>1468</ele>
        <time>2013-03-23T07:59:39Z</time>
      </trkpt>
      <trkpt lat="42.898" lon="-0.20589">
        <ele>1468</ele>
        <time>2013-03-23T07:59:47Z</time>
      </trkpt>
      <trkpt lat="42.89799" lon="-0.20598">
        <ele>1469</ele>
        <time>2013-03-23T07:59:56Z</time>
      </trkpt>
      <trkpt lat="42.89798" lon="-0.20607">
        <ele>1471</ele>
        <time>2013-03-23T08:00:06Z</time>
      </trkpt>
      <trkpt lat="42.89798" lon="-0.20616">
        <ele>1473</ele>
        <time>2013-03-23T08:00:15Z</time>
      </trkpt>
      <trkpt lat="42.89796" lon="-0.2062">
        <ele>1474</ele>
        <time>2013-03-23T08:00:22Z</time>
      </trkpt>
      <trkpt lat="42.89794" lon="-0.20628">
        <ele>1475</ele>
        <time>2013-03-23T08:00:31Z</time>
      </trkpt>
      <trkpt lat="42.89793" lon="-0.20633">
        <ele>1476</ele>
        <time>2013-03-23T08:00:39Z</time>
      </trkpt>
      <trkpt lat="42.89791" lon="-0.20635">
        <ele>1477</ele>
        <time>2013-03-23T08:00:45Z</time>
      </trkpt>
      <trkpt lat="42.89786" lon="-0.20629">
        <ele>1478</ele>
        <time>2013-03-23T08:00:53Z</time>
      </trkpt>
      <trkpt lat="42.8978" lon="-0.20623">
        <ele>1480</ele>
        <time>2013-03-23T08:01:02Z</time>
      </trkpt>
      <trkpt lat="42.89776" lon="-0.20618">
        <ele>1481</ele>
        <time>2013-03-23T08:01:09Z</time>
      </trkpt>
      <trkpt lat="42.89774" lon="-0.20615">
        <ele>1482</ele>
        <time>2013-03-23T08:01:13Z</time>
      </trkpt>
      <trkpt lat="42.8977" lon="-0.20611">
        <ele>1482</ele>
        <time>2013-03-23T08:01:20Z</time>
      </trkpt>
      <trkpt lat="42.89765" lon="-0.20607">
        <ele>1484</ele>
        <time>2013-03-23T08:01:29Z</time>
      </trkpt>
      <trkpt lat="42.89763" lon="-0.20605">
        <ele>1485</ele>
        <time>2013-03-23T08:01:36Z</time>
      </trkpt>
      <trkpt lat="42.89762" lon="-0.20603">
        <ele>1484</ele>
        <time>2013-03-23T08:01:42Z</time>
      </trkpt>
      <trkpt lat="42.89756" lon="-0.20599">
        <ele>1487</ele>
        <time>2013-03-23T08:01:51Z</time>
      </trkpt>
      <trkpt lat="42.8975" lon="-0.20596">
        <ele>1488</ele>
        <time>2013-03-23T08:01:58Z</time>
      </trkpt>
      <trkpt lat="42.89746" lon="-0.20593">
        <ele>1488</ele>
        <time>2013-03-23T08:02:05Z</time>
      </trkpt>
      <trkpt lat="42.89741" lon="-0.20589">
        <ele>1489</ele>
        <time>2013-03-23T08:02:13Z</time>
      </trkpt>
      <trkpt lat="42.89739" lon="-0.20587">
        <ele>1488</ele>
        <time>2013-03-23T08:02:20Z</time>
      </trkpt>
      <trkpt lat="42.89737" lon="-0.20585">
        <ele>1489</ele>
        <time>2013-03-23T08:02:26Z</time>
      </trkpt>
      <trkpt lat="42.89738" lon="-0.20585">
        <ele>1488</ele>
        <time>2013-03-23T08:02:37Z</time>
      </trkpt>
      <trkpt lat="42.89737" lon="-0.20585">
        <ele>1489</ele>
        <time>2013-03-23T08:02:51Z</time>
      </trkpt>
      <trkpt lat="42.89736" lon="-0.20586">
        <ele>1489</ele>
        <time>2013-03-23T08:03:07Z</time>
      </trkpt>
      <trkpt lat="42.89736" lon="-0.20588">
        <ele>1489</ele>
        <time>2013-03-23T08:03:26Z</time>
      </trkpt>
      <trkpt lat="42.89736" lon="-0.20588">
        <ele>1488</ele>
        <time>2013-03-23T08:03:43Z</time>
      </trkpt>
      <trkpt lat="42.89736" lon="-0.20586">
        <ele>1488</ele>
        <time>2013-03-23T08:03:55Z</time>
      </trkpt>
      <trkpt lat="42.89735" lon="-0.20586">
        <ele>1489</ele>
        <time>2013-03-23T08:04:02Z</time>
      </trkpt>
      <trkpt lat="42.89734" lon="-0.20584">
        <ele>1488</ele>
        <time>2013-03-23T08:04:15Z</time>
      </trkpt>
      <trkpt lat="42.89729" lon="-0.2058">
        <ele>1490</ele>
        <time>2013-03-23T08:04:23Z</time>
      </trkpt>
      <trkpt lat="42.89719" lon="-0.20576">
        <ele>1490</ele>
        <time>2013-03-23T08:04:31Z</time>
      </trkpt>
      <trkpt lat="42.89709" lon="-0.20569">
        <ele>1491</ele>
        <time>2013-03-23T08:04:39Z</time>
      </trkpt>
      <trkpt lat="42.89697" lon="-0.20564">
        <ele>1493</ele>
        <time>2013-03-23T08:04:48Z</time>
      </trkpt>
      <trkpt lat="42.89687" lon="-0.2056">
        <ele>1494</ele>
        <time>2013-03-23T08:04:56Z</time>
      </trkpt>
      <trkpt lat="42.89676" lon="-0.20555">
        <ele>1495</ele>
        <time>2013-03-23T08:05:05Z</time>
      </trkpt>
      <trkpt lat="42.89662" lon="-0.2055">
        <ele>1496</ele>
        <time>2013-03-23T08:05:17Z</time>
      </trkpt>
      <trkpt lat="42.8965" lon="-0.20544">
        <ele>1497</ele>
        <time>2013-03-23T08:05:27Z</time>
      </trkpt>
      <trkpt lat="42.8964" lon="-0.2054">
        <ele>1498</ele>
        <time>2013-03-23T08:05:35Z</time>
      </trkpt>
      <trkpt lat="42.89631" lon="-0.20537">
        <ele>1499</ele>
        <time>2013-03-23T08:05:43Z</time>
      </trkpt>
      <trkpt lat="42.89621" lon="-0.20533">
        <ele>1501</ele>
        <time>2013-03-23T08:05:52Z</time>
      </trkpt>
      <trkpt lat="42.89613" lon="-0.2053">
        <ele>1503</ele>
        <time>2013-03-23T08:06:00Z</time>
      </trkpt>
      <trkpt lat="42.89605" lon="-0.20527">
        <ele>1504</ele>
        <time>2013-03-23T08:06:08Z</time>
      </trkpt>
      <trkpt lat="42.89597" lon="-0.20523">
        <ele>1505</ele>
        <time>2013-03-23T08:06:16Z</time>
      </trkpt>
      <trkpt lat="42.89588" lon="-0.20521">
        <ele>1506</ele>
        <time>2013-03-23T08:06:24Z</time>
      </trkpt>
      <trkpt lat="42.89579" lon="-0.20517">
        <ele>1507</ele>
        <time>2013-03-23T08:06:32Z</time>
      </trkpt>
      <trkpt lat="42.89571" lon="-0.20514">
        <ele>1509</ele>
        <time>2013-03-23T08:06:40Z</time>
      </trkpt>
      <trkpt lat="42.89563" lon="-0.2051">
        <ele>1511</ele>
        <time>2013-03-23T08:06:48Z</time>
      </trkpt>
      <trkpt lat="42.89555" lon="-0.20503">
        <ele>1511</ele>
        <time>2013-03-23T08:06:56Z</time>
      </trkpt>
      <trkpt lat="42.89547" lon="-0.20496">
        <ele>1513</ele>
        <time>2013-03-23T08:07:05Z</time>
      </trkpt>
      <trkpt lat="42.8954" lon="-0.20491">
        <ele>1515</ele>
        <time>2013-03-23T08:07:13Z</time>
      </trkpt>
      <trkpt lat="42.89533" lon="-0.20486">
        <ele>1516</ele>
        <time>2013-03-23T08:07:21Z</time>
      </trkpt>
      <trkpt lat="42.89525" lon="-0.20482">
        <ele>1517</ele>
        <time>2013-03-23T08:07:28Z</time>
      </trkpt>
      <trkpt lat="42.89517" lon="-0.20478">
        <ele>1518</ele>
        <time>2013-03-23T08:07:36Z</time>
      </trkpt>
      <trkpt lat="42.89508" lon="-0.20472">
        <ele>1519</ele>
        <time>2013-03-23T08:07:45Z</time>
      </trkpt>
      <trkpt lat="42.895" lon="-0.20466">
        <ele>1520</ele>
        <time>2013-03-23T08:07:53Z</time>
      </trkpt>
      <trkpt lat="42.89495" lon="-0.20461">
        <ele>1520</ele>
        <time>2013-03-23T08:08:00Z</time>
      </trkpt>
      <trkpt lat="42.89487" lon="-0.20455">
        <ele>1521</ele>
        <time>2013-03-23T08:08:09Z</time>
      </trkpt>
      <trkpt lat="42.8948" lon="-0.20451">
        <ele>1523</ele>
        <time>2013-03-23T08:08:17Z</time>
      </trkpt>
      <trkpt lat="42.89474" lon="-0.20448">
        <ele>1524</ele>
        <time>2013-03-23T08:08:24Z</time>
      </trkpt>
      <trkpt lat="42.89467" lon="-0.20443">
        <ele>1525</ele>
        <time>2013-03-23T08:08:33Z</time>
      </trkpt>
      <trkpt lat="42.89462" lon="-0.20439">
        <ele>1526</ele>
        <time>2013-03-23T08:08:41Z</time>
      </trkpt>
      <trkpt lat="42.89455" lon="-0.20435">
        <ele>1527</ele>
        <time>2013-03-23T08:08:49Z</time>
      </trkpt>
      <trkpt lat="42.89449" lon="-0.20431">
        <ele>1528</ele>
        <time>2013-03-23T08:08:57Z</time>
      </trkpt>
      <trkpt lat="42.89442" lon="-0.20427">
        <ele>1529</ele>
        <time>2013-03-23T08:09:05Z</time>
      </trkpt>
      <trkpt lat="42.89436" lon="-0.20423">
        <ele>1529</ele>
        <time>2013-03-23T08:09:13Z</time>
      </trkpt>
      <trkpt lat="42.8943" lon="-0.20416">
        <ele>1531</ele>
        <time>2013-03-23T08:09:23Z</time>
      </trkpt>
      <trkpt lat="42.89429" lon="-0.20416">
        <ele>1531</ele>
        <time>2013-03-23T08:09:24Z</time>
      </trkpt>
      <trkpt lat="42.89422" lon="-0.20413">
        <ele>1532</ele>
        <time>2013-03-23T08:09:32Z</time>
      </trkpt>
      <trkpt lat="42.89419" lon="-0.20411">
        <ele>1532</ele>
        <time>2013-03-23T08:09:37Z</time>
      </trkpt>
      <trkpt lat="42.89413" lon="-0.20407">
        <ele>1533</ele>
        <time>2013-03-23T08:09:45Z</time>
      </trkpt>
      <trkpt lat="42.8941" lon="-0.20402">
        <ele>1533</ele>
        <time>2013-03-23T08:09:52Z</time>
      </trkpt>
      <trkpt lat="42.89405" lon="-0.20396">
        <ele>1534</ele>
        <time>2013-03-23T08:09:59Z</time>
      </trkpt>
      <trkpt lat="42.894" lon="-0.2039">
        <ele>1535</ele>
        <time>2013-03-23T08:10:08Z</time>
      </trkpt>
      <trkpt lat="42.89398" lon="-0.20387">
        <ele>1535</ele>
        <time>2013-03-23T08:10:11Z</time>
      </trkpt>
      <trkpt lat="42.89394" lon="-0.2038">
        <ele>1536</ele>
        <time>2013-03-23T08:10:20Z</time>
      </trkpt>
      <trkpt lat="42.8939" lon="-0.20374">
        <ele>1537</ele>
        <time>2013-03-23T08:10:27Z</time>
      </trkpt>
      <trkpt lat="42.89385" lon="-0.20369">
        <ele>1537</ele>
        <time>2013-03-23T08:10:34Z</time>
      </trkpt>
      <trkpt lat="42.89379" lon="-0.20367">
        <ele>1538</ele>
        <time>2013-03-23T08:10:41Z</time>
      </trkpt>
      <trkpt lat="42.89372" lon="-0.20363">
        <ele>1539</ele>
        <time>2013-03-23T08:10:50Z</time>
      </trkpt>
      <trkpt lat="42.89365" lon="-0.20362">
        <ele>1539</ele>
        <time>2013-03-23T08:10:57Z</time>
      </trkpt>
      <trkpt lat="42.89359" lon="-0.20358">
        <ele>1539</ele>
        <time>2013-03-23T08:11:04Z</time>
      </trkpt>
      <trkpt lat="42.89355" lon="-0.20354">
        <ele>1540</ele>
        <time>2013-03-23T08:11:10Z</time>
      </trkpt>
      <trkpt lat="42.89349" lon="-0.20351">
        <ele>1541</ele>
        <time>2013-03-23T08:11:17Z</time>
      </trkpt>
      <trkpt lat="42.89348" lon="-0.2035">
        <ele>1541</ele>
        <time>2013-03-23T08:11:20Z</time>
      </trkpt>
      <trkpt lat="42.89346" lon="-0.20349">
        <ele>1541</ele>
        <time>2013-03-23T08:11:22Z</time>
      </trkpt>
      <trkpt lat="42.89341" lon="-0.20342">
        <ele>1542</ele>
        <time>2013-03-23T08:11:31Z</time>
      </trkpt>
      <trkpt lat="42.8934" lon="-0.20342">
        <ele>1542</ele>
        <time>2013-03-23T08:11:32Z</time>
      </trkpt>
      <trkpt lat="42.89331" lon="-0.20338">
        <ele>1542</ele>
        <time>2013-03-23T08:11:41Z</time>
      </trkpt>
      <trkpt lat="42.89324" lon="-0.20337">
        <ele>1542</ele>
        <time>2013-03-23T08:11:49Z</time>
      </trkpt>
      <trkpt lat="42.89317" lon="-0.20333">
        <ele>1543</ele>
        <time>2013-03-23T08:11:58Z</time>
      </trkpt>
      <trkpt lat="42.8931" lon="-0.20331">
        <ele>1544</ele>
        <time>2013-03-23T08:12:05Z</time>
      </trkpt>
      <trkpt lat="42.89303" lon="-0.2033">
        <ele>1544</ele>
        <time>2013-03-23T08:12:13Z</time>
      </trkpt>
      <trkpt lat="42.89297" lon="-0.20329">
        <ele>1545</ele>
        <time>2013-03-23T08:12:21Z</time>
      </trkpt>
      <trkpt lat="42.89291" lon="-0.20326">
        <ele>1545</ele>
        <time>2013-03-23T08:12:29Z</time>
      </trkpt>
      <trkpt lat="42.8929" lon="-0.20325">
        <ele>1546</ele>
        <time>2013-03-23T08:12:30Z</time>
      </trkpt>
      <trkpt lat="42.89284" lon="-0.20321">
        <ele>1546</ele>
        <time>2013-03-23T08:12:37Z</time>
      </trkpt>
      <trkpt lat="42.89278" lon="-0.20323">
        <ele>1548</ele>
        <time>2013-03-23T08:12:46Z</time>
      </trkpt>
      <trkpt lat="42.89273" lon="-0.20322">
        <ele>1547</ele>
        <time>2013-03-23T08:12:54Z</time>
      </trkpt>
      <trkpt lat="42.8927" lon="-0.20319">
        <ele>1548</ele>
        <time>2013-03-23T08:13:00Z</time>
      </trkpt>
      <trkpt lat="42.89264" lon="-0.20318">
        <ele>1549</ele>
        <time>2013-03-23T08:13:07Z</time>
      </trkpt>
      <trkpt lat="42.89259" lon="-0.20315">
        <ele>1549</ele>
        <time>2013-03-23T08:13:13Z</time>
      </trkpt>
      <trkpt lat="42.89253" lon="-0.20315">
        <ele>1550</ele>
        <time>2013-03-23T08:13:21Z</time>
      </trkpt>
      <trkpt lat="42.89248" lon="-0.20315">
        <ele>1552</ele>
        <time>2013-03-23T08:13:30Z</time>
      </trkpt>
      <trkpt lat="42.89242" lon="-0.2031">
        <ele>1554</ele>
        <time>2013-03-23T08:13:39Z</time>
      </trkpt>
      <trkpt lat="42.89238" lon="-0.2031">
        <ele>1555</ele>
        <time>2013-03-23T08:13:45Z</time>
      </trkpt>
      <trkpt lat="42.89233" lon="-0.20309">
        <ele>1556</ele>
        <time>2013-03-23T08:13:52Z</time>
      </trkpt>
      <trkpt lat="42.89229" lon="-0.20306">
        <ele>1557</ele>
        <time>2013-03-23T08:14:00Z</time>
      </trkpt>
      <trkpt lat="42.89225" lon="-0.20304">
        <ele>1558</ele>
        <time>2013-03-23T08:14:06Z</time>
      </trkpt>
      <trkpt lat="42.8922" lon="-0.20302">
        <ele>1559</ele>
        <time>2013-03-23T08:14:12Z</time>
      </trkpt>
      <trkpt lat="42.89215" lon="-0.20297">
        <ele>1560</ele>
        <time>2013-03-23T08:14:20Z</time>
      </trkpt>
      <trkpt lat="42.89212" lon="-0.20294">
        <ele>1560</ele>
        <time>2013-03-23T08:14:27Z</time>
      </trkpt>
      <trkpt lat="42.89206" lon="-0.20293">
        <ele>1562</ele>
        <time>2013-03-23T08:14:35Z</time>
      </trkpt>
      <trkpt lat="42.89201" lon="-0.20296">
        <ele>1563</ele>
        <time>2013-03-23T08:14:42Z</time>
      </trkpt>
      <trkpt lat="42.89195" lon="-0.20299">
        <ele>1565</ele>
        <time>2013-03-23T08:14:51Z</time>
      </trkpt>
      <trkpt lat="42.89188" lon="-0.203">
        <ele>1567</ele>
        <time>2013-03-23T08:15:01Z</time>
      </trkpt>
      <trkpt lat="42.89186" lon="-0.20299">
        <ele>1568</ele>
        <time>2013-03-23T08:15:05Z</time>
      </trkpt>
      <trkpt lat="42.89179" lon="-0.20296">
        <ele>1569</ele>
        <time>2013-03-23T08:15:15Z</time>
      </trkpt>
      <trkpt lat="42.89178" lon="-0.20296">
        <ele>1569</ele>
        <time>2013-03-23T08:15:16Z</time>
      </trkpt>
      <trkpt lat="42.89171" lon="-0.20294">
        <ele>1570</ele>
        <time>2013-03-23T08:15:24Z</time>
      </trkpt>
      <trkpt lat="42.89164" lon="-0.20292">
        <ele>1571</ele>
        <time>2013-03-23T08:15:33Z</time>
      </trkpt>
      <trkpt lat="42.89159" lon="-0.20288">
        <ele>1572</ele>
        <time>2013-03-23T08:15:41Z</time>
      </trkpt>
      <trkpt lat="42.89153" lon="-0.20284">
        <ele>1574</ele>
        <time>2013-03-23T08:15:49Z</time>
      </trkpt>
      <trkpt lat="42.89148" lon="-0.2028">
        <ele>1574</ele>
        <time>2013-03-23T08:15:56Z</time>
      </trkpt>
      <trkpt lat="42.89144" lon="-0.20278">
        <ele>1576</ele>
        <time>2013-03-23T08:16:03Z</time>
      </trkpt>
      <trkpt lat="42.89137" lon="-0.2027">
        <ele>1577</ele>
        <time>2013-03-23T08:16:12Z</time>
      </trkpt>
      <trkpt lat="42.89134" lon="-0.20268">
        <ele>1577</ele>
        <time>2013-03-23T08:16:19Z</time>
      </trkpt>
      <trkpt lat="42.89133" lon="-0.20267">
        <ele>1578</ele>
        <time>2013-03-23T08:16:25Z</time>
      </trkpt>
      <trkpt lat="42.89128" lon="-0.20263">
        <ele>1579</ele>
        <time>2013-03-23T08:16:32Z</time>
      </trkpt>
      <trkpt lat="42.89118" lon="-0.20256">
        <ele>1580</ele>
        <time>2013-03-23T08:16:42Z</time>
      </trkpt>
      <trkpt lat="42.89111" lon="-0.2025">
        <ele>1581</ele>
        <time>2013-03-23T08:16:52Z</time>
      </trkpt>
      <trkpt lat="42.89107" lon="-0.20241">
        <ele>1581</ele>
        <time>2013-03-23T08:17:00Z</time>
      </trkpt>
      <trkpt lat="42.89103" lon="-0.20233">
        <ele>1581</ele>
        <time>2013-03-23T08:17:07Z</time>
      </trkpt>
      <trkpt lat="42.89102" lon="-0.20232">
        <ele>1581</ele>
        <time>2013-03-23T08:17:08Z</time>
      </trkpt>
      <trkpt lat="42.89099" lon="-0.20225">
        <ele>1581</ele>
        <time>2013-03-23T08:17:13Z</time>
      </trkpt>
      <trkpt lat="42.89092" lon="-0.20219">
        <ele>1581</ele>
        <time>2013-03-23T08:17:20Z</time>
      </trkpt>
      <trkpt lat="42.89083" lon="-0.2022">
        <ele>1582</ele>
        <time>2013-03-23T08:17:29Z</time>
      </trkpt>
      <trkpt lat="42.89078" lon="-0.20217">
        <ele>1583</ele>
        <time>2013-03-23T08:17:35Z</time>
      </trkpt>
      <trkpt lat="42.89075" lon="-0.20215">
        <ele>1583</ele>
        <time>2013-03-23T08:17:39Z</time>
      </trkpt>
      <trkpt lat="42.89069" lon="-0.20211">
        <ele>1584</ele>
        <time>2013-03-23T08:17:47Z</time>
      </trkpt>
      <trkpt lat="42.89063" lon="-0.20205">
        <ele>1585</ele>
        <time>2013-03-23T08:17:55Z</time>
      </trkpt>
      <trkpt lat="42.89057" lon="-0.202">
        <ele>1586</ele>
        <time>2013-03-23T08:18:03Z</time>
      </trkpt>
      <trkpt lat="42.89051" lon="-0.20197">
        <ele>1586</ele>
        <time>2013-03-23T08:18:12Z</time>
      </trkpt>
      <trkpt lat="42.89044" lon="-0.20191">
        <ele>1587</ele>
        <time>2013-03-23T08:18:19Z</time>
      </trkpt>
      <trkpt lat="42.89039" lon="-0.20187">
        <ele>1588</ele>
        <time>2013-03-23T08:18:26Z</time>
      </trkpt>
      <trkpt lat="42.89035" lon="-0.20181">
        <ele>1590</ele>
        <time>2013-03-23T08:18:34Z</time>
      </trkpt>
      <trkpt lat="42.8903" lon="-0.20176">
        <ele>1590</ele>
        <time>2013-03-23T08:18:41Z</time>
      </trkpt>
      <trkpt lat="42.89023" lon="-0.2017">
        <ele>1592</ele>
        <time>2013-03-23T08:18:51Z</time>
      </trkpt>
      <trkpt lat="42.8902" lon="-0.2017">
        <ele>1592</ele>
        <time>2013-03-23T08:18:57Z</time>
      </trkpt>
      <trkpt lat="42.89016" lon="-0.20168">
        <ele>1593</ele>
        <time>2013-03-23T08:19:06Z</time>
      </trkpt>
      <trkpt lat="42.89013" lon="-0.20165">
        <ele>1593</ele>
        <time>2013-03-23T08:19:13Z</time>
      </trkpt>
      <trkpt lat="42.8901" lon="-0.20164">
        <ele>1594</ele>
        <time>2013-03-23T08:19:19Z</time>
      </trkpt>
      <trkpt lat="42.89004" lon="-0.2016">
        <ele>1595</ele>
        <time>2013-03-23T08:19:27Z</time>
      </trkpt>
      <trkpt lat="42.88999" lon="-0.20155">
        <ele>1596</ele>
        <time>2013-03-23T08:19:35Z</time>
      </trkpt>
      <trkpt lat="42.88993" lon="-0.2015">
        <ele>1596</ele>
        <time>2013-03-23T08:19:43Z</time>
      </trkpt>
      <trkpt lat="42.88987" lon="-0.20144">
        <ele>1597</ele>
        <time>2013-03-23T08:19:51Z</time>
      </trkpt>
      <trkpt lat="42.88981" lon="-0.2014">
        <ele>1598</ele>
        <time>2013-03-23T08:19:59Z</time>
      </trkpt>
      <trkpt lat="42.88976" lon="-0.20134">
        <ele>1600</ele>
        <time>2013-03-23T08:20:06Z</time>
      </trkpt>
      <trkpt lat="42.8897" lon="-0.20129">
        <ele>1600</ele>
        <time>2013-03-23T08:20:13Z</time>
      </trkpt>
      <trkpt lat="42.88965" lon="-0.20125">
        <ele>1602</ele>
        <time>2013-03-23T08:20:20Z</time>
      </trkpt>
      <trkpt lat="42.88963" lon="-0.20122">
        <ele>1601</ele>
        <time>2013-03-23T08:20:25Z</time>
      </trkpt>
      <trkpt lat="42.8896" lon="-0.2012">
        <ele>1602</ele>
        <time>2013-03-23T08:20:29Z</time>
      </trkpt>
      <trkpt lat="42.88954" lon="-0.20114">
        <ele>1603</ele>
        <time>2013-03-23T08:20:38Z</time>
      </trkpt>
      <trkpt lat="42.8895" lon="-0.20109">
        <ele>1604</ele>
        <time>2013-03-23T08:20:45Z</time>
      </trkpt>
      <trkpt lat="42.88945" lon="-0.20104">
        <ele>1606</ele>
        <time>2013-03-23T08:20:53Z</time>
      </trkpt>
      <trkpt lat="42.88941" lon="-0.20099">
        <ele>1606</ele>
        <time>2013-03-23T08:21:00Z</time>
      </trkpt>
      <trkpt lat="42.88941" lon="-0.20097">
        <ele>1606</ele>
        <time>2013-03-23T08:21:02Z</time>
      </trkpt>
      <trkpt lat="42.88935" lon="-0.20092">
        <ele>1608</ele>
        <time>2013-03-23T08:21:10Z</time>
      </trkpt>
      <trkpt lat="42.88931" lon="-0.20088">
        <ele>1609</ele>
        <time>2013-03-23T08:21:17Z</time>
      </trkpt>
      <trkpt lat="42.88926" lon="-0.20083">
        <ele>1609</ele>
        <time>2013-03-23T08:21:26Z</time>
      </trkpt>
      <trkpt lat="42.88922" lon="-0.20079">
        <ele>1611</ele>
        <time>2013-03-23T08:21:34Z</time>
      </trkpt>
      <trkpt lat="42.88916" lon="-0.20072">
        <ele>1612</ele>
        <time>2013-03-23T08:21:41Z</time>
      </trkpt>
      <trkpt lat="42.88915" lon="-0.20071">
        <ele>1612</ele>
        <time>2013-03-23T08:21:42Z</time>
      </trkpt>
      <trkpt lat="42.88909" lon="-0.20067">
        <ele>1613</ele>
        <time>2013-03-23T08:21:50Z</time>
      </trkpt>
      <trkpt lat="42.88905" lon="-0.20063">
        <ele>1614</ele>
        <time>2013-03-23T08:21:58Z</time>
      </trkpt>
      <trkpt lat="42.88901" lon="-0.20059">
        <ele>1615</ele>
        <time>2013-03-23T08:22:05Z</time>
      </trkpt>
      <trkpt lat="42.88896" lon="-0.20055">
        <ele>1616</ele>
        <time>2013-03-23T08:22:12Z</time>
      </trkpt>
      <trkpt lat="42.88891" lon="-0.2005">
        <ele>1618</ele>
        <time>2013-03-23T08:22:20Z</time>
      </trkpt>
      <trkpt lat="42.88887" lon="-0.20047">
        <ele>1619</ele>
        <time>2013-03-23T08:22:27Z</time>
      </trkpt>
      <trkpt lat="42.88885" lon="-0.20044">
        <ele>1619</ele>
        <time>2013-03-23T08:22:33Z</time>
      </trkpt>
      <trkpt lat="42.8888" lon="-0.20039">
        <ele>1620</ele>
        <time>2013-03-23T08:22:41Z</time>
      </trkpt>
      <trkpt lat="42.88874" lon="-0.20033">
        <ele>1622</ele>
        <time>2013-03-23T08:22:51Z</time>
      </trkpt>
      <trkpt lat="42.8887" lon="-0.20031">
        <ele>1623</ele>
        <time>2013-03-23T08:22:58Z</time>
      </trkpt>
      <trkpt lat="42.88863" lon="-0.20026">
        <ele>1625</ele>
        <time>2013-03-23T08:23:07Z</time>
      </trkpt>
      <trkpt lat="42.88859" lon="-0.20024">
        <ele>1625</ele>
        <time>2013-03-23T08:23:12Z</time>
      </trkpt>
      <trkpt lat="42.88853" lon="-0.2002">
        <ele>1627</ele>
        <time>2013-03-23T08:23:21Z</time>
      </trkpt>
      <trkpt lat="42.8885" lon="-0.20014">
        <ele>1628</ele>
        <time>2013-03-23T08:23:29Z</time>
      </trkpt>
      <trkpt lat="42.88845" lon="-0.20011">
        <ele>1629</ele>
        <time>2013-03-23T08:23:38Z</time>
      </trkpt>
      <trkpt lat="42.88844" lon="-0.2001">
        <ele>1631</ele>
        <time>2013-03-23T08:23:41Z</time>
      </trkpt>
      <trkpt lat="42.88839" lon="-0.20006">
        <ele>1632</ele>
        <time>2013-03-23T08:23:50Z</time>
      </trkpt>
      <trkpt lat="42.88834" lon="-0.20003">
        <ele>1633</ele>
        <time>2013-03-23T08:23:56Z</time>
      </trkpt>
      <trkpt lat="42.88833" lon="-0.20004">
        <ele>1634</ele>
        <time>2013-03-23T08:23:58Z</time>
      </trkpt>
      <trkpt lat="42.88832" lon="-0.20019">
        <ele>1635</ele>
        <time>2013-03-23T08:24:08Z</time>
      </trkpt>
      <trkpt lat="42.88832" lon="-0.20026">
        <ele>1637</ele>
        <time>2013-03-23T08:24:17Z</time>
      </trkpt>
      <trkpt lat="42.88831" lon="-0.20032">
        <ele>1639</ele>
        <time>2013-03-23T08:24:25Z</time>
      </trkpt>
      <trkpt lat="42.88831" lon="-0.20037">
        <ele>1640</ele>
        <time>2013-03-23T08:24:34Z</time>
      </trkpt>
      <trkpt lat="42.88829" lon="-0.2004">
        <ele>1641</ele>
        <time>2013-03-23T08:24:38Z</time>
      </trkpt>
      <trkpt lat="42.88823" lon="-0.20043">
        <ele>1643</ele>
        <time>2013-03-23T08:24:46Z</time>
      </trkpt>
      <trkpt lat="42.8882" lon="-0.20044">
        <ele>1643</ele>
        <time>2013-03-23T08:24:50Z</time>
      </trkpt>
      <trkpt lat="42.88811" lon="-0.2005">
        <ele>1644</ele>
        <time>2013-03-23T08:24:59Z</time>
      </trkpt>
      <trkpt lat="42.88806" lon="-0.20052">
        <ele>1645</ele>
        <time>2013-03-23T08:25:06Z</time>
      </trkpt>
      <trkpt lat="42.88801" lon="-0.20054">
        <ele>1646</ele>
        <time>2013-03-23T08:25:14Z</time>
      </trkpt>
      <trkpt lat="42.88799" lon="-0.20058">
        <ele>1648</ele>
        <time>2013-03-23T08:25:21Z</time>
      </trkpt>
      <trkpt lat="42.88796" lon="-0.20058">
        <ele>1649</ele>
        <time>2013-03-23T08:25:30Z</time>
      </trkpt>
      <trkpt lat="42.8879" lon="-0.20057">
        <ele>1651</ele>
        <time>2013-03-23T08:25:36Z</time>
      </trkpt>
      <trkpt lat="42.88785" lon="-0.20057">
        <ele>1652</ele>
        <time>2013-03-23T08:25:43Z</time>
      </trkpt>
      <trkpt lat="42.88781" lon="-0.20055">
        <ele>1654</ele>
        <time>2013-03-23T08:25:51Z</time>
      </trkpt>
      <trkpt lat="42.88778" lon="-0.20053">
        <ele>1656</ele>
        <time>2013-03-23T08:25:59Z</time>
      </trkpt>
      <trkpt lat="42.88775" lon="-0.20051">
        <ele>1657</ele>
        <time>2013-03-23T08:26:07Z</time>
      </trkpt>
      <trkpt lat="42.88772" lon="-0.20045">
        <ele>1659</ele>
        <time>2013-03-23T08:26:17Z</time>
      </trkpt>
      <trkpt lat="42.88767" lon="-0.20042">
        <ele>1660</ele>
        <time>2013-03-23T08:26:22Z</time>
      </trkpt>
      <trkpt lat="42.8876" lon="-0.20036">
        <ele>1661</ele>
        <time>2013-03-23T08:26:30Z</time>
      </trkpt>
      <trkpt lat="42.88755" lon="-0.20031">
        <ele>1663</ele>
        <time>2013-03-23T08:26:38Z</time>
      </trkpt>
      <trkpt lat="42.88751" lon="-0.20029">
        <ele>1665</ele>
        <time>2013-03-23T08:26:44Z</time>
      </trkpt>
      <trkpt lat="42.88747" lon="-0.20027">
        <ele>1666</ele>
        <time>2013-03-23T08:26:53Z</time>
      </trkpt>
      <trkpt lat="42.88744" lon="-0.20023">
        <ele>1668</ele>
        <time>2013-03-23T08:27:03Z</time>
      </trkpt>
      <trkpt lat="42.88743" lon="-0.2002">
        <ele>1668</ele>
        <time>2013-03-23T08:27:10Z</time>
      </trkpt>
      <trkpt lat="42.88738" lon="-0.20018">
        <ele>1670</ele>
        <time>2013-03-23T08:27:17Z</time>
      </trkpt>
      <trkpt lat="42.88731" lon="-0.20018">
        <ele>1671</ele>
        <time>2013-03-23T08:27:26Z</time>
      </trkpt>
      <trkpt lat="42.88725" lon="-0.20016">
        <ele>1674</ele>
        <time>2013-03-23T08:27:36Z</time>
      </trkpt>
      <trkpt lat="42.88719" lon="-0.20014">
        <ele>1676</ele>
        <time>2013-03-23T08:27:48Z</time>
      </trkpt>
      <trkpt lat="42.88714" lon="-0.20011">
        <ele>1677</ele>
        <time>2013-03-23T08:27:57Z</time>
      </trkpt>
      <trkpt lat="42.88707" lon="-0.20009">
        <ele>1679</ele>
        <time>2013-03-23T08:28:07Z</time>
      </trkpt>
      <trkpt lat="42.88699" lon="-0.20003">
        <ele>1681</ele>
        <time>2013-03-23T08:28:17Z</time>
      </trkpt>
      <trkpt lat="42.88692" lon="-0.20001">
        <ele>1683</ele>
        <time>2013-03-23T08:28:25Z</time>
      </trkpt>
      <trkpt lat="42.88687" lon="-0.19999">
        <ele>1685</ele>
        <time>2013-03-23T08:28:32Z</time>
      </trkpt>
      <trkpt lat="42.88681" lon="-0.19997">
        <ele>1686</ele>
        <time>2013-03-23T08:28:39Z</time>
      </trkpt>
      <trkpt lat="42.88678" lon="-0.19995">
        <ele>1687</ele>
        <time>2013-03-23T08:28:46Z</time>
      </trkpt>
      <trkpt lat="42.88674" lon="-0.19993">
        <ele>1689</ele>
        <time>2013-03-23T08:28:54Z</time>
      </trkpt>
      <trkpt lat="42.8867" lon="-0.1999">
        <ele>1690</ele>
        <time>2013-03-23T08:29:00Z</time>
      </trkpt>
      <trkpt lat="42.88667" lon="-0.19987">
        <ele>1691</ele>
        <time>2013-03-23T08:29:07Z</time>
      </trkpt>
      <trkpt lat="42.88662" lon="-0.19984">
        <ele>1693</ele>
        <time>2013-03-23T08:29:15Z</time>
      </trkpt>
      <trkpt lat="42.88658" lon="-0.19982">
        <ele>1693</ele>
        <time>2013-03-23T08:29:20Z</time>
      </trkpt>
      <trkpt lat="42.88655" lon="-0.19981">
        <ele>1694</ele>
        <time>2013-03-23T08:29:25Z</time>
      </trkpt>
      <trkpt lat="42.88651" lon="-0.19977">
        <ele>1696</ele>
        <time>2013-03-23T08:29:33Z</time>
      </trkpt>
      <trkpt lat="42.88648" lon="-0.19978">
        <ele>1697</ele>
        <time>2013-03-23T08:29:39Z</time>
      </trkpt>
      <trkpt lat="42.88642" lon="-0.19975">
        <ele>1698</ele>
        <time>2013-03-23T08:29:48Z</time>
      </trkpt>
      <trkpt lat="42.8864" lon="-0.19973">
        <ele>1699</ele>
        <time>2013-03-23T08:29:52Z</time>
      </trkpt>
      <trkpt lat="42.88633" lon="-0.1997">
        <ele>1701</ele>
        <time>2013-03-23T08:30:00Z</time>
      </trkpt>
      <trkpt lat="42.88628" lon="-0.19967">
        <ele>1701</ele>
        <time>2013-03-23T08:30:07Z</time>
      </trkpt>
      <trkpt lat="42.88624" lon="-0.19967">
        <ele>1703</ele>
        <time>2013-03-23T08:30:12Z</time>
      </trkpt>
      <trkpt lat="42.88618" lon="-0.19966">
        <ele>1704</ele>
        <time>2013-03-23T08:30:20Z</time>
      </trkpt>
      <trkpt lat="42.88616" lon="-0.19965">
        <ele>1704</ele>
        <time>2013-03-23T08:30:22Z</time>
      </trkpt>
      <trkpt lat="42.88608" lon="-0.19964">
        <ele>1706</ele>
        <time>2013-03-23T08:30:31Z</time>
      </trkpt>
      <trkpt lat="42.88605" lon="-0.19964">
        <ele>1707</ele>
        <time>2013-03-23T08:30:38Z</time>
      </trkpt>
      <trkpt lat="42.88602" lon="-0.19965">
        <ele>1709</ele>
        <time>2013-03-23T08:30:48Z</time>
      </trkpt>
      <trkpt lat="42.88593" lon="-0.19964">
        <ele>1710</ele>
        <time>2013-03-23T08:30:56Z</time>
      </trkpt>
      <trkpt lat="42.88587" lon="-0.19963">
        <ele>1712</ele>
        <time>2013-03-23T08:31:06Z</time>
      </trkpt>
      <trkpt lat="42.88583" lon="-0.19963">
        <ele>1713</ele>
        <time>2013-03-23T08:31:14Z</time>
      </trkpt>
      <trkpt lat="42.88578" lon="-0.1996">
        <ele>1714</ele>
        <time>2013-03-23T08:31:22Z</time>
      </trkpt>
      <trkpt lat="42.88571" lon="-0.19959">
        <ele>1716</ele>
        <time>2013-03-23T08:31:30Z</time>
      </trkpt>
      <trkpt lat="42.88565" lon="-0.19956">
        <ele>1717</ele>
        <time>2013-03-23T08:31:38Z</time>
      </trkpt>
      <trkpt lat="42.88559" lon="-0.19957">
        <ele>1718</ele>
        <time>2013-03-23T08:31:47Z</time>
      </trkpt>
      <trkpt lat="42.88551" lon="-0.19957">
        <ele>1719</ele>
        <time>2013-03-23T08:31:58Z</time>
      </trkpt>
      <trkpt lat="42.88544" lon="-0.19956">
        <ele>1720</ele>
        <time>2013-03-23T08:32:06Z</time>
      </trkpt>
      <trkpt lat="42.88537" lon="-0.19956">
        <ele>1721</ele>
        <time>2013-03-23T08:32:16Z</time>
      </trkpt>
      <trkpt lat="42.8853" lon="-0.19955">
        <ele>1723</ele>
        <time>2013-03-23T08:32:25Z</time>
      </trkpt>
      <trkpt lat="42.88523" lon="-0.19952">
        <ele>1724</ele>
        <time>2013-03-23T08:32:34Z</time>
      </trkpt>
      <trkpt lat="42.88517" lon="-0.19954">
        <ele>1725</ele>
        <time>2013-03-23T08:32:41Z</time>
      </trkpt>
      <trkpt lat="42.88514" lon="-0.19952">
        <ele>1727</ele>
        <time>2013-03-23T08:32:48Z</time>
      </trkpt>
      <trkpt lat="42.88509" lon="-0.19951">
        <ele>1728</ele>
        <time>2013-03-23T08:32:56Z</time>
      </trkpt>
      <trkpt lat="42.88503" lon="-0.1995">
        <ele>1729</ele>
        <time>2013-03-23T08:33:03Z</time>
      </trkpt>
      <trkpt lat="42.88498" lon="-0.19947">
        <ele>1730</ele>
        <time>2013-03-23T08:33:11Z</time>
      </trkpt>
      <trkpt lat="42.88494" lon="-0.19946">
        <ele>1731</ele>
        <time>2013-03-23T08:33:19Z</time>
      </trkpt>
      <trkpt lat="42.88488" lon="-0.19945">
        <ele>1732</ele>
        <time>2013-03-23T08:33:26Z</time>
      </trkpt>
      <trkpt lat="42.88483" lon="-0.19942">
        <ele>1734</ele>
        <time>2013-03-23T08:33:35Z</time>
      </trkpt>
      <trkpt lat="42.88481" lon="-0.19942">
        <ele>1735</ele>
        <time>2013-03-23T08:33:38Z</time>
      </trkpt>
      <trkpt lat="42.88479" lon="-0.19941">
        <ele>1735</ele>
        <time>2013-03-23T08:33:41Z</time>
      </trkpt>
      <trkpt lat="42.88472" lon="-0.19937">
        <ele>1737</ele>
        <time>2013-03-23T08:33:51Z</time>
      </trkpt>
      <trkpt lat="42.88467" lon="-0.19932">
        <ele>1738</ele>
        <time>2013-03-23T08:34:00Z</time>
      </trkpt>
      <trkpt lat="42.88463" lon="-0.19932">
        <ele>1740</ele>
        <time>2013-03-23T08:34:07Z</time>
      </trkpt>
      <trkpt lat="42.88455" lon="-0.19931">
        <ele>1741</ele>
        <time>2013-03-23T08:34:16Z</time>
      </trkpt>
      <trkpt lat="42.88453" lon="-0.19929">
        <ele>1742</ele>
        <time>2013-03-23T08:34:22Z</time>
      </trkpt>
      <trkpt lat="42.88451" lon="-0.19929">
        <ele>1743</ele>
        <time>2013-03-23T08:34:28Z</time>
      </trkpt>
      <trkpt lat="42.88446" lon="-0.19926">
        <ele>1743</ele>
        <time>2013-03-23T08:34:36Z</time>
      </trkpt>
      <trkpt lat="42.88443" lon="-0.19924">
        <ele>1744</ele>
        <time>2013-03-23T08:34:43Z</time>
      </trkpt>
      <trkpt lat="42.88436" lon="-0.19921">
        <ele>1746</ele>
        <time>2013-03-23T08:34:50Z</time>
      </trkpt>
      <trkpt lat="42.88432" lon="-0.19921">
        <ele>1746</ele>
        <time>2013-03-23T08:34:54Z</time>
      </trkpt>
      <trkpt lat="42.88425" lon="-0.19919">
        <ele>1748</ele>
        <time>2013-03-23T08:35:02Z</time>
      </trkpt>
      <trkpt lat="42.8842" lon="-0.19918">
        <ele>1749</ele>
        <time>2013-03-23T08:35:09Z</time>
      </trkpt>
      <trkpt lat="42.88417" lon="-0.19917">
        <ele>1750</ele>
        <time>2013-03-23T08:35:17Z</time>
      </trkpt>
      <trkpt lat="42.88414" lon="-0.19915">
        <ele>1752</ele>
        <time>2013-03-23T08:35:23Z</time>
      </trkpt>
      <trkpt lat="42.88413" lon="-0.19908">
        <ele>1754</ele>
        <time>2013-03-23T08:35:32Z</time>
      </trkpt>
      <trkpt lat="42.88408" lon="-0.19901">
        <ele>1755</ele>
        <time>2013-03-23T08:35:41Z</time>
      </trkpt>
      <trkpt lat="42.88408" lon="-0.19898">
        <ele>1754</ele>
        <time>2013-03-23T08:35:52Z</time>
      </trkpt>
      <trkpt lat="42.88407" lon="-0.19898">
        <ele>1755</ele>
        <time>2013-03-23T08:35:58Z</time>
      </trkpt>
      <trkpt lat="42.88402" lon="-0.19892">
        <ele>1756</ele>
        <time>2013-03-23T08:36:08Z</time>
      </trkpt>
      <trkpt lat="42.88399" lon="-0.19889">
        <ele>1758</ele>
        <time>2013-03-23T08:36:15Z</time>
      </trkpt>
      <trkpt lat="42.88395" lon="-0.19884">
        <ele>1760</ele>
        <time>2013-03-23T08:36:23Z</time>
      </trkpt>
      <trkpt lat="42.88394" lon="-0.19884">
        <ele>1760</ele>
        <time>2013-03-23T08:36:24Z</time>
      </trkpt>
      <trkpt lat="42.88388" lon="-0.19883">
        <ele>1761</ele>
        <time>2013-03-23T08:36:31Z</time>
      </trkpt>
      <trkpt lat="42.88385" lon="-0.19883">
        <ele>1762</ele>
        <time>2013-03-23T08:36:37Z</time>
      </trkpt>
      <trkpt lat="42.88387" lon="-0.19884">
        <ele>1763</ele>
        <time>2013-03-23T08:36:47Z</time>
      </trkpt>
      <trkpt lat="42.88387" lon="-0.19884">
        <ele>1763</ele>
        <time>2013-03-23T08:36:55Z</time>
      </trkpt>
      <trkpt lat="42.88387" lon="-0.19885">
        <ele>1764</ele>
        <time>2013-03-23T08:37:08Z</time>
      </trkpt>
      <trkpt lat="42.88386" lon="-0.19886">
        <ele>1762</ele>
        <time>2013-03-23T08:37:15Z</time>
      </trkpt>
      <trkpt lat="42.88388" lon="-0.19887">
        <ele>1762</ele>
        <time>2013-03-23T08:37:26Z</time>
      </trkpt>
      <trkpt lat="42.88387" lon="-0.19891">
        <ele>1762</ele>
        <time>2013-03-23T08:37:38Z</time>
      </trkpt>
      <trkpt lat="42.88386" lon="-0.1989">
        <ele>1762</ele>
        <time>2013-03-23T08:37:44Z</time>
      </trkpt>
      <trkpt lat="42.88386" lon="-0.19893">
        <ele>1761</ele>
        <time>2013-03-23T08:38:00Z</time>
      </trkpt>
      <trkpt lat="42.8839" lon="-0.19893">
        <ele>1762</ele>
        <time>2013-03-23T08:38:26Z</time>
      </trkpt>
      <trkpt lat="42.8839" lon="-0.19893">
        <ele>1763</ele>
        <time>2013-03-23T08:38:44Z</time>
      </trkpt>
      <trkpt lat="42.88389" lon="-0.19888">
        <ele>1763</ele>
        <time>2013-03-23T08:39:00Z</time>
      </trkpt>
      <trkpt lat="42.8839" lon="-0.19885">
        <ele>1764</ele>
        <time>2013-03-23T08:39:22Z</time>
      </trkpt>
      <trkpt lat="42.88387" lon="-0.19884">
        <ele>1764</ele>
        <time>2013-03-23T08:39:31Z</time>
      </trkpt>
      <trkpt lat="42.88388" lon="-0.19886">
        <ele>1764</ele>
        <time>2013-03-23T08:39:44Z</time>
      </trkpt>
      <trkpt lat="42.88386" lon="-0.19886">
        <ele>1765</ele>
        <time>2013-03-23T08:39:58Z</time>
      </trkpt>
      <trkpt lat="42.88377" lon="-0.19895">
        <ele>1768</ele>
        <time>2013-03-23T08:40:12Z</time>
      </trkpt>
      <trkpt lat="42.88373" lon="-0.19892">
        <ele>1771</ele>
        <time>2013-03-23T08:40:22Z</time>
      </trkpt>
      <trkpt lat="42.88368" lon="-0.19884">
        <ele>1773</ele>
        <time>2013-03-23T08:40:33Z</time>
      </trkpt>
      <trkpt lat="42.88366" lon="-0.19878">
        <ele>1775</ele>
        <time>2013-03-23T08:40:38Z</time>
      </trkpt>
      <trkpt lat="42.88361" lon="-0.19868">
        <ele>1778</ele>
        <time>2013-03-23T08:40:51Z</time>
      </trkpt>
      <trkpt lat="42.8836" lon="-0.19868">
        <ele>1778</ele>
        <time>2013-03-23T08:40:52Z</time>
      </trkpt>
      <trkpt lat="42.88352" lon="-0.19861">
        <ele>1781</ele>
        <time>2013-03-23T08:41:05Z</time>
      </trkpt>
      <trkpt lat="42.88349" lon="-0.19858">
        <ele>1782</ele>
        <time>2013-03-23T08:41:10Z</time>
      </trkpt>
      <trkpt lat="42.88341" lon="-0.1985">
        <ele>1785</ele>
        <time>2013-03-23T08:41:25Z</time>
      </trkpt>
      <trkpt lat="42.88332" lon="-0.1984">
        <ele>1788</ele>
        <time>2013-03-23T08:41:40Z</time>
      </trkpt>
      <trkpt lat="42.88325" lon="-0.19841">
        <ele>1791</ele>
        <time>2013-03-23T08:41:53Z</time>
      </trkpt>
      <trkpt lat="42.88323" lon="-0.19842">
        <ele>1792</ele>
        <time>2013-03-23T08:41:56Z</time>
      </trkpt>
      <trkpt lat="42.88319" lon="-0.19845">
        <ele>1795</ele>
        <time>2013-03-23T08:42:09Z</time>
      </trkpt>
      <trkpt lat="42.88314" lon="-0.19862">
        <ele>1797</ele>
        <time>2013-03-23T08:42:24Z</time>
      </trkpt>
      <trkpt lat="42.88312" lon="-0.19867">
        <ele>1798</ele>
        <time>2013-03-23T08:42:31Z</time>
      </trkpt>
      <trkpt lat="42.8831" lon="-0.19864">
        <ele>1801</ele>
        <time>2013-03-23T08:42:43Z</time>
      </trkpt>
      <trkpt lat="42.88305" lon="-0.19857">
        <ele>1802</ele>
        <time>2013-03-23T08:42:58Z</time>
      </trkpt>
      <trkpt lat="42.88302" lon="-0.19864">
        <ele>1804</ele>
        <time>2013-03-23T08:43:04Z</time>
      </trkpt>
      <trkpt lat="42.88297" lon="-0.19862">
        <ele>1806</ele>
        <time>2013-03-23T08:43:16Z</time>
      </trkpt>
      <trkpt lat="42.88288" lon="-0.19856">
        <ele>1809</ele>
        <time>2013-03-23T08:43:31Z</time>
      </trkpt>
      <trkpt lat="42.88284" lon="-0.19853">
        <ele>1811</ele>
        <time>2013-03-23T08:43:44Z</time>
      </trkpt>
      <trkpt lat="42.88281" lon="-0.19861">
        <ele>1813</ele>
        <time>2013-03-23T08:43:54Z</time>
      </trkpt>
      <trkpt lat="42.88271" lon="-0.19867">
        <ele>1816</ele>
        <time>2013-03-23T08:44:10Z</time>
      </trkpt>
      <trkpt lat="42.88259" lon="-0.19876">
        <ele>1818</ele>
        <time>2013-03-23T08:44:22Z</time>
      </trkpt>
      <trkpt lat="42.88259" lon="-0.19877">
        <ele>1818</ele>
        <time>2013-03-23T08:44:23Z</time>
      </trkpt>
      <trkpt lat="42.88257" lon="-0.19878">
        <ele>1821</ele>
        <time>2013-03-23T08:44:37Z</time>
      </trkpt>
      <trkpt lat="42.88254" lon="-0.19879">
        <ele>1823</ele>
        <time>2013-03-23T08:44:51Z</time>
      </trkpt>
      <trkpt lat="42.88256" lon="-0.19891">
        <ele>1826</ele>
        <time>2013-03-23T08:45:04Z</time>
      </trkpt>
      <trkpt lat="42.88253" lon="-0.19894">
        <ele>1827</ele>
        <time>2013-03-23T08:45:17Z</time>
      </trkpt>
      <trkpt lat="42.88251" lon="-0.19892">
        <ele>1828</ele>
        <time>2013-03-23T08:45:19Z</time>
      </trkpt>
      <trkpt lat="42.88247" lon="-0.19882">
        <ele>1830</ele>
        <time>2013-03-23T08:45:31Z</time>
      </trkpt>
      <trkpt lat="42.88247" lon="-0.19866">
        <ele>1832</ele>
        <time>2013-03-23T08:45:46Z</time>
      </trkpt>
      <trkpt lat="42.88237" lon="-0.19855">
        <ele>1835</ele>
        <time>2013-03-23T08:46:01Z</time>
      </trkpt>
      <trkpt lat="42.88235" lon="-0.19857">
        <ele>1838</ele>
        <time>2013-03-23T08:46:14Z</time>
      </trkpt>
      <trkpt lat="42.88229" lon="-0.1987">
        <ele>1840</ele>
        <time>2013-03-23T08:46:27Z</time>
      </trkpt>
      <trkpt lat="42.88224" lon="-0.1988">
        <ele>1843</ele>
        <time>2013-03-23T08:46:43Z</time>
      </trkpt>
      <trkpt lat="42.88223" lon="-0.1989">
        <ele>1845</ele>
        <time>2013-03-23T08:46:55Z</time>
      </trkpt>
      <trkpt lat="42.88218" lon="-0.19878">
        <ele>1848</ele>
        <time>2013-03-23T08:47:13Z</time>
      </trkpt>
      <trkpt lat="42.88205" lon="-0.19865">
        <ele>1851</ele>
        <time>2013-03-23T08:47:29Z</time>
      </trkpt>
      <trkpt lat="42.88204" lon="-0.19864">
        <ele>1851</ele>
        <time>2013-03-23T08:47:30Z</time>
      </trkpt>
      <trkpt lat="42.88195" lon="-0.19849">
        <ele>1854</ele>
        <time>2013-03-23T08:47:48Z</time>
      </trkpt>
      <trkpt lat="42.88191" lon="-0.19841">
        <ele>1855</ele>
        <time>2013-03-23T08:48:00Z</time>
      </trkpt>
      <trkpt lat="42.88188" lon="-0.19831">
        <ele>1858</ele>
        <time>2013-03-23T08:48:13Z</time>
      </trkpt>
      <trkpt lat="42.88187" lon="-0.19832">
        <ele>1857</ele>
        <time>2013-03-23T08:48:14Z</time>
      </trkpt>
      <trkpt lat="42.88184" lon="-0.19848">
        <ele>1859</ele>
        <time>2013-03-23T08:48:28Z</time>
      </trkpt>
      <trkpt lat="42.8818" lon="-0.19857">
        <ele>1862</ele>
        <time>2013-03-23T08:48:42Z</time>
      </trkpt>
      <trkpt lat="42.88174" lon="-0.19873">
        <ele>1865</ele>
        <time>2013-03-23T08:48:56Z</time>
      </trkpt>
      <trkpt lat="42.88172" lon="-0.19873">
        <ele>1866</ele>
        <time>2013-03-23T08:49:02Z</time>
      </trkpt>
      <trkpt lat="42.88166" lon="-0.19859">
        <ele>1869</ele>
        <time>2013-03-23T08:49:19Z</time>
      </trkpt>
      <trkpt lat="42.88164" lon="-0.19857">
        <ele>1870</ele>
        <time>2013-03-23T08:49:24Z</time>
      </trkpt>
      <trkpt lat="42.88156" lon="-0.1985">
        <ele>1873</ele>
        <time>2013-03-23T08:49:39Z</time>
      </trkpt>
      <trkpt lat="42.88149" lon="-0.19845">
        <ele>1876</ele>
        <time>2013-03-23T08:49:51Z</time>
      </trkpt>
      <trkpt lat="42.88141" lon="-0.19841">
        <ele>1880</ele>
        <time>2013-03-23T08:50:07Z</time>
      </trkpt>
      <trkpt lat="42.8814" lon="-0.19843">
        <ele>1881</ele>
        <time>2013-03-23T08:50:21Z</time>
      </trkpt>
      <trkpt lat="42.88133" lon="-0.19856">
        <ele>1884</ele>
        <time>2013-03-23T08:50:41Z</time>
      </trkpt>
      <trkpt lat="42.88131" lon="-0.19862">
        <ele>1887</ele>
        <time>2013-03-23T08:50:55Z</time>
      </trkpt>
      <trkpt lat="42.88126" lon="-0.19875">
        <ele>1890</ele>
        <time>2013-03-23T08:51:09Z</time>
      </trkpt>
      <trkpt lat="42.88122" lon="-0.1988">
        <ele>1893</ele>
        <time>2013-03-23T08:51:24Z</time>
      </trkpt>
      <trkpt lat="42.88118" lon="-0.1989">
        <ele>1896</ele>
        <time>2013-03-23T08:51:38Z</time>
      </trkpt>
      <trkpt lat="42.88118" lon="-0.19894">
        <ele>1896</ele>
        <time>2013-03-23T08:51:41Z</time>
      </trkpt>
      <trkpt lat="42.88123" lon="-0.19905">
        <ele>1900</ele>
        <time>2013-03-23T08:51:58Z</time>
      </trkpt>
      <trkpt lat="42.88124" lon="-0.19913">
        <ele>1903</ele>
        <time>2013-03-23T08:52:16Z</time>
      </trkpt>
      <trkpt lat="42.88125" lon="-0.19919">
        <ele>1906</ele>
        <time>2013-03-23T08:52:27Z</time>
      </trkpt>
      <trkpt lat="42.88115" lon="-0.19921">
        <ele>1908</ele>
        <time>2013-03-23T08:52:44Z</time>
      </trkpt>
      <trkpt lat="42.88112" lon="-0.19919">
        <ele>1910</ele>
        <time>2013-03-23T08:52:51Z</time>
      </trkpt>
      <trkpt lat="42.88099" lon="-0.19916">
        <ele>1913</ele>
        <time>2013-03-23T08:53:08Z</time>
      </trkpt>
      <trkpt lat="42.88094" lon="-0.19916">
        <ele>1917</ele>
        <time>2013-03-23T08:53:22Z</time>
      </trkpt>
      <trkpt lat="42.88083" lon="-0.19917">
        <ele>1919</ele>
        <time>2013-03-23T08:53:41Z</time>
      </trkpt>
      <trkpt lat="42.88076" lon="-0.19915">
        <ele>1923</ele>
        <time>2013-03-23T08:53:56Z</time>
      </trkpt>
      <trkpt lat="42.88063" lon="-0.19918">
        <ele>1926</ele>
        <time>2013-03-23T08:54:10Z</time>
      </trkpt>
      <trkpt lat="42.88056" lon="-0.19917">
        <ele>1929</ele>
        <time>2013-03-23T08:54:23Z</time>
      </trkpt>
      <trkpt lat="42.88049" lon="-0.19906">
        <ele>1932</ele>
        <time>2013-03-23T08:54:39Z</time>
      </trkpt>
      <trkpt lat="42.88042" lon="-0.19899">
        <ele>1934</ele>
        <time>2013-03-23T08:54:54Z</time>
      </trkpt>
      <trkpt lat="42.88039" lon="-0.19904">
        <ele>1937</ele>
        <time>2013-03-23T08:55:08Z</time>
      </trkpt>
      <trkpt lat="42.88035" lon="-0.19916">
        <ele>1940</ele>
        <time>2013-03-23T08:55:27Z</time>
      </trkpt>
      <trkpt lat="42.88029" lon="-0.19927">
        <ele>1942</ele>
        <time>2013-03-23T08:55:44Z</time>
      </trkpt>
      <trkpt lat="42.88026" lon="-0.19939">
        <ele>1945</ele>
        <time>2013-03-23T08:56:00Z</time>
      </trkpt>
      <trkpt lat="42.88023" lon="-0.19942">
        <ele>1948</ele>
        <time>2013-03-23T08:56:16Z</time>
      </trkpt>
      <trkpt lat="42.88015" lon="-0.19942">
        <ele>1951</ele>
        <time>2013-03-23T08:56:32Z</time>
      </trkpt>
      <trkpt lat="42.88007" lon="-0.19942">
        <ele>1954</ele>
        <time>2013-03-23T08:56:46Z</time>
      </trkpt>
      <trkpt lat="42.88001" lon="-0.19943">
        <ele>1957</ele>
        <time>2013-03-23T08:56:55Z</time>
      </trkpt>
      <trkpt lat="42.87999" lon="-0.19944">
        <ele>1957</ele>
        <time>2013-03-23T08:57:00Z</time>
      </trkpt>
      <trkpt lat="42.87991" lon="-0.19953">
        <ele>1961</ele>
        <time>2013-03-23T08:57:17Z</time>
      </trkpt>
      <trkpt lat="42.87982" lon="-0.19964">
        <ele>1964</ele>
        <time>2013-03-23T08:57:33Z</time>
      </trkpt>
      <trkpt lat="42.87978" lon="-0.19965">
        <ele>1964</ele>
        <time>2013-03-23T08:57:47Z</time>
      </trkpt>
      <trkpt lat="42.87977" lon="-0.19965">
        <ele>1964</ele>
        <time>2013-03-23T08:58:06Z</time>
      </trkpt>
      <trkpt lat="42.8798" lon="-0.19965">
        <ele>1964</ele>
        <time>2013-03-23T08:58:32Z</time>
      </trkpt>
      <trkpt lat="42.87977" lon="-0.19966">
        <ele>1964</ele>
        <time>2013-03-23T08:58:50Z</time>
      </trkpt>
      <trkpt lat="42.87975" lon="-0.19964">
        <ele>1964</ele>
        <time>2013-03-23T08:59:07Z</time>
      </trkpt>
      <trkpt lat="42.87983" lon="-0.19965">
        <ele>1964</ele>
        <time>2013-03-23T08:59:41Z</time>
      </trkpt>
      <trkpt lat="42.87981" lon="-0.19967">
        <ele>1964</ele>
        <time>2013-03-23T08:59:57Z</time>
      </trkpt>
      <trkpt lat="42.87975" lon="-0.19969">
        <ele>1965</ele>
        <time>2013-03-23T09:00:13Z</time>
      </trkpt>
      <trkpt lat="42.87966" lon="-0.19976">
        <ele>1966</ele>
        <time>2013-03-23T09:00:26Z</time>
      </trkpt>
      <trkpt lat="42.87955" lon="-0.19983">
        <ele>1969</ele>
        <time>2013-03-23T09:00:41Z</time>
      </trkpt>
      <trkpt lat="42.87953" lon="-0.1998">
        <ele>1970</ele>
        <time>2013-03-23T09:00:56Z</time>
      </trkpt>
      <trkpt lat="42.87945" lon="-0.19981">
        <ele>1973</ele>
        <time>2013-03-23T09:01:10Z</time>
      </trkpt>
      <trkpt lat="42.87942" lon="-0.19981">
        <ele>1975</ele>
        <time>2013-03-23T09:01:23Z</time>
      </trkpt>
      <trkpt lat="42.87937" lon="-0.19971">
        <ele>1978</ele>
        <time>2013-03-23T09:01:36Z</time>
      </trkpt>
      <trkpt lat="42.87929" lon="-0.19971">
        <ele>1981</ele>
        <time>2013-03-23T09:01:52Z</time>
      </trkpt>
      <trkpt lat="42.87923" lon="-0.19974">
        <ele>1983</ele>
        <time>2013-03-23T09:02:07Z</time>
      </trkpt>
      <trkpt lat="42.87912" lon="-0.19977">
        <ele>1986</ele>
        <time>2013-03-23T09:02:24Z</time>
      </trkpt>
      <trkpt lat="42.87904" lon="-0.19978">
        <ele>1989</ele>
        <time>2013-03-23T09:02:39Z</time>
      </trkpt>
      <trkpt lat="42.87897" lon="-0.19969">
        <ele>1991</ele>
        <time>2013-03-23T09:02:58Z</time>
      </trkpt>
      <trkpt lat="42.87892" lon="-0.19961">
        <ele>1994</ele>
        <time>2013-03-23T09:03:15Z</time>
      </trkpt>
      <trkpt lat="42.87884" lon="-0.19952">
        <ele>1997</ele>
        <time>2013-03-23T09:03:31Z</time>
      </trkpt>
      <trkpt lat="42.87876" lon="-0.19953">
        <ele>2000</ele>
        <time>2013-03-23T09:03:46Z</time>
      </trkpt>
      <trkpt lat="42.8787" lon="-0.19966">
        <ele>2002</ele>
        <time>2013-03-23T09:03:58Z</time>
      </trkpt>
      <trkpt lat="42.87865" lon="-0.19975">
        <ele>2004</ele>
        <time>2013-03-23T09:04:13Z</time>
      </trkpt>
      <trkpt lat="42.87865" lon="-0.19988">
        <ele>2007</ele>
        <time>2013-03-23T09:04:29Z</time>
      </trkpt>
      <trkpt lat="42.87857" lon="-0.19986">
        <ele>2008</ele>
        <time>2013-03-23T09:04:43Z</time>
      </trkpt>
      <trkpt lat="42.87845" lon="-0.19981">
        <ele>2011</ele>
        <time>2013-03-23T09:04:56Z</time>
      </trkpt>
      <trkpt lat="42.87836" lon="-0.19984">
        <ele>2014</ele>
        <time>2013-03-23T09:05:12Z</time>
      </trkpt>
      <trkpt lat="42.87825" lon="-0.19988">
        <ele>2016</ele>
        <time>2013-03-23T09:05:27Z</time>
      </trkpt>
      <trkpt lat="42.87818" lon="-0.19993">
        <ele>2017</ele>
        <time>2013-03-23T09:05:42Z</time>
      </trkpt>
      <trkpt lat="42.8781" lon="-0.19996">
        <ele>2020</ele>
        <time>2013-03-23T09:05:56Z</time>
      </trkpt>
      <trkpt lat="42.87801" lon="-0.19997">
        <ele>2022</ele>
        <time>2013-03-23T09:06:13Z</time>
      </trkpt>
      <trkpt lat="42.87789" lon="-0.19996">
        <ele>2025</ele>
        <time>2013-03-23T09:06:30Z</time>
      </trkpt>
      <trkpt lat="42.87772" lon="-0.19991">
        <ele>2027</ele>
        <time>2013-03-23T09:06:45Z</time>
      </trkpt>
      <trkpt lat="42.87763" lon="-0.1999">
        <ele>2029</ele>
        <time>2013-03-23T09:07:01Z</time>
      </trkpt>
      <trkpt lat="42.87763" lon="-0.1999">
        <ele>2028</ele>
        <time>2013-03-23T09:07:02Z</time>
      </trkpt>
      <trkpt lat="42.87755" lon="-0.19981">
        <ele>2030</ele>
        <time>2013-03-23T09:07:19Z</time>
      </trkpt>
      <trkpt lat="42.87749" lon="-0.19972">
        <ele>2031</ele>
        <time>2013-03-23T09:07:32Z</time>
      </trkpt>
      <trkpt lat="42.87743" lon="-0.19968">
        <ele>2034</ele>
        <time>2013-03-23T09:07:46Z</time>
      </trkpt>
      <trkpt lat="42.87735" lon="-0.19964">
        <ele>2036</ele>
        <time>2013-03-23T09:08:03Z</time>
      </trkpt>
      <trkpt lat="42.87729" lon="-0.19962">
        <ele>2038</ele>
        <time>2013-03-23T09:08:16Z</time>
      </trkpt>
      <trkpt lat="42.87723" lon="-0.19963">
        <ele>2040</ele>
        <time>2013-03-23T09:08:28Z</time>
      </trkpt>
      <trkpt lat="42.87717" lon="-0.19964">
        <ele>2042</ele>
        <time>2013-03-23T09:08:43Z</time>
      </trkpt>
      <trkpt lat="42.87709" lon="-0.19963">
        <ele>2046</ele>
        <time>2013-03-23T09:08:55Z</time>
      </trkpt>
      <trkpt lat="42.87699" lon="-0.19961">
        <ele>2048</ele>
        <time>2013-03-23T09:09:11Z</time>
      </trkpt>
      <trkpt lat="42.87693" lon="-0.19961">
        <ele>2050</ele>
        <time>2013-03-23T09:09:24Z</time>
      </trkpt>
      <trkpt lat="42.87687" lon="-0.19968">
        <ele>2052</ele>
        <time>2013-03-23T09:09:36Z</time>
      </trkpt>
      <trkpt lat="42.87676" lon="-0.1997">
        <ele>2054</ele>
        <time>2013-03-23T09:09:51Z</time>
      </trkpt>
      <trkpt lat="42.87681" lon="-0.19963">
        <ele>2056</ele>
        <time>2013-03-23T09:10:04Z</time>
      </trkpt>
      <trkpt lat="42.87683" lon="-0.19955">
        <ele>2059</ele>
        <time>2013-03-23T09:10:20Z</time>
      </trkpt>
      <trkpt lat="42.87679" lon="-0.19954">
        <ele>2060</ele>
        <time>2013-03-23T09:10:34Z</time>
      </trkpt>
      <trkpt lat="42.8767" lon="-0.19959">
        <ele>2063</ele>
        <time>2013-03-23T09:10:50Z</time>
      </trkpt>
      <trkpt lat="42.87659" lon="-0.19963">
        <ele>2066</ele>
        <time>2013-03-23T09:11:05Z</time>
      </trkpt>
      <trkpt lat="42.87656" lon="-0.19958">
        <ele>2067</ele>
        <time>2013-03-23T09:11:13Z</time>
      </trkpt>
      <trkpt lat="42.87648" lon="-0.19945">
        <ele>2070</ele>
        <time>2013-03-23T09:11:29Z</time>
      </trkpt>
      <trkpt lat="42.87642" lon="-0.19934">
        <ele>2073</ele>
        <time>2013-03-23T09:11:45Z</time>
      </trkpt>
      <trkpt lat="42.87645" lon="-0.19922">
        <ele>2076</ele>
        <time>2013-03-23T09:12:01Z</time>
      </trkpt>
      <trkpt lat="42.87639" lon="-0.19914">
        <ele>2079</ele>
        <time>2013-03-23T09:12:16Z</time>
      </trkpt>
      <trkpt lat="42.87632" lon="-0.19911">
        <ele>2081</ele>
        <time>2013-03-23T09:12:32Z</time>
      </trkpt>
      <trkpt lat="42.87624" lon="-0.1991">
        <ele>2084</ele>
        <time>2013-03-23T09:12:47Z</time>
      </trkpt>
      <trkpt lat="42.87616" lon="-0.19913">
        <ele>2086</ele>
        <time>2013-03-23T09:13:03Z</time>
      </trkpt>
      <trkpt lat="42.87608" lon="-0.19917">
        <ele>2090</ele>
        <time>2013-03-23T09:13:17Z</time>
      </trkpt>
      <trkpt lat="42.87599" lon="-0.19922">
        <ele>2092</ele>
        <time>2013-03-23T09:13:33Z</time>
      </trkpt>
      <trkpt lat="42.8759" lon="-0.19924">
        <ele>2095</ele>
        <time>2013-03-23T09:13:51Z</time>
      </trkpt>
      <trkpt lat="42.87582" lon="-0.19928">
        <ele>2098</ele>
        <time>2013-03-23T09:14:06Z</time>
      </trkpt>
      <trkpt lat="42.87572" lon="-0.19931">
        <ele>2101</ele>
        <time>2013-03-23T09:14:22Z</time>
      </trkpt>
      <trkpt lat="42.8756" lon="-0.19938">
        <ele>2103</ele>
        <time>2013-03-23T09:14:41Z</time>
      </trkpt>
      <trkpt lat="42.87552" lon="-0.19942">
        <ele>2106</ele>
        <time>2013-03-23T09:14:56Z</time>
      </trkpt>
      <trkpt lat="42.87543" lon="-0.19944">
        <ele>2109</ele>
        <time>2013-03-23T09:15:12Z</time>
      </trkpt>
      <trkpt lat="42.87536" lon="-0.19944">
        <ele>2111</ele>
        <time>2013-03-23T09:15:30Z</time>
      </trkpt>
      <trkpt lat="42.87533" lon="-0.19939">
        <ele>2111</ele>
        <time>2013-03-23T09:15:49Z</time>
      </trkpt>
      <trkpt lat="42.87532" lon="-0.1994">
        <ele>2111</ele>
        <time>2013-03-23T09:16:02Z</time>
      </trkpt>
      <trkpt lat="42.87533" lon="-0.19941">
        <ele>2110</ele>
        <time>2013-03-23T09:16:22Z</time>
      </trkpt>
      <trkpt lat="42.87527" lon="-0.19941">
        <ele>2109</ele>
        <time>2013-03-23T09:16:36Z</time>
      </trkpt>
      <trkpt lat="42.87525" lon="-0.19942">
        <ele>2110</ele>
        <time>2013-03-23T09:17:12Z</time>
      </trkpt>
      <trkpt lat="42.87526" lon="-0.19942">
        <ele>2109</ele>
        <time>2013-03-23T09:17:52Z</time>
      </trkpt>
      <trkpt lat="42.87529" lon="-0.19939">
        <ele>2108</ele>
        <time>2013-03-23T09:18:32Z</time>
      </trkpt>
      <trkpt lat="42.87532" lon="-0.19941">
        <ele>2108</ele>
        <time>2013-03-23T09:19:09Z</time>
      </trkpt>
      <trkpt lat="42.87531" lon="-0.19938">
        <ele>2108</ele>
        <time>2013-03-23T09:19:45Z</time>
      </trkpt>
      <trkpt lat="42.87528" lon="-0.19937">
        <ele>2109</ele>
        <time>2013-03-23T09:20:19Z</time>
      </trkpt>
      <trkpt lat="42.87524" lon="-0.19938">
        <ele>2108</ele>
        <time>2013-03-23T09:20:52Z</time>
      </trkpt>
      <trkpt lat="42.87527" lon="-0.19937">
        <ele>2099</ele>
        <time>2013-03-23T09:21:18Z</time>
      </trkpt>
      <trkpt lat="42.87527" lon="-0.19937">
        <ele>2099</ele>
        <time>2013-03-23T09:21:19Z</time>
      </trkpt>
      <trkpt lat="42.87527" lon="-0.19937">
        <ele>2114</ele>
        <time>2013-03-23T09:21:20Z</time>
      </trkpt>
      <trkpt lat="42.87528" lon="-0.19937">
        <ele>2101</ele>
        <time>2013-03-23T09:21:21Z</time>
      </trkpt>
      <trkpt lat="42.87528" lon="-0.19937">
        <ele>2109</ele>
        <time>2013-03-23T09:21:22Z</time>
      </trkpt>
      <trkpt lat="42.87529" lon="-0.19938">
        <ele>2115</ele>
        <time>2013-03-23T09:21:23Z</time>
      </trkpt>
      <trkpt lat="42.87529" lon="-0.1994">
        <ele>2109</ele>
        <time>2013-03-23T09:21:24Z</time>
      </trkpt>
      <trkpt lat="42.8753" lon="-0.19942">
        <ele>2108</ele>
        <time>2013-03-23T09:21:26Z</time>
      </trkpt>
      <trkpt lat="42.87531" lon="-0.19943">
        <ele>2108</ele>
        <time>2013-03-23T09:21:57Z</time>
      </trkpt>
      <trkpt lat="42.87534" lon="-0.19948">
        <ele>2108</ele>
        <time>2013-03-23T09:22:28Z</time>
      </trkpt>
      <trkpt lat="42.87538" lon="-0.19946">
        <ele>2109</ele>
        <time>2013-03-23T09:23:00Z</time>
      </trkpt>
      <trkpt lat="42.8754" lon="-0.19949">
        <ele>2109</ele>
        <time>2013-03-23T09:23:29Z</time>
      </trkpt>
      <trkpt lat="42.87539" lon="-0.19948">
        <ele>2109</ele>
        <time>2013-03-23T09:23:54Z</time>
      </trkpt>
      <trkpt lat="42.87542" lon="-0.1995">
        <ele>2109</ele>
        <time>2013-03-23T09:24:23Z</time>
      </trkpt>
      <trkpt lat="42.87547" lon="-0.19948">
        <ele>2109</ele>
        <time>2013-03-23T09:24:50Z</time>
      </trkpt>
      <trkpt lat="42.87548" lon="-0.19947">
        <ele>2109</ele>
        <time>2013-03-23T09:25:08Z</time>
      </trkpt>
      <trkpt lat="42.87547" lon="-0.19953">
        <ele>2112</ele>
        <time>2013-03-23T09:25:26Z</time>
      </trkpt>
      <trkpt lat="42.87549" lon="-0.19954">
        <ele>2111</ele>
        <time>2013-03-23T09:25:32Z</time>
      </trkpt>
      <trkpt lat="42.87551" lon="-0.19948">
        <ele>2114</ele>
        <time>2013-03-23T09:25:39Z</time>
      </trkpt>
      <trkpt lat="42.8755" lon="-0.19947">
        <ele>2113</ele>
        <time>2013-03-23T09:25:45Z</time>
      </trkpt>
      <trkpt lat="42.87544" lon="-0.19943">
        <ele>2111</ele>
        <time>2013-03-23T09:25:52Z</time>
      </trkpt>
      <trkpt lat="42.87541" lon="-0.19941">
        <ele>2110</ele>
        <time>2013-03-23T09:25:55Z</time>
      </trkpt>
      <trkpt lat="42.87539" lon="-0.1994">
        <ele>2109</ele>
        <time>2013-03-23T09:25:57Z</time>
      </trkpt>
      <trkpt lat="42.87537" lon="-0.19934">
        <ele>2108</ele>
        <time>2013-03-23T09:26:08Z</time>
      </trkpt>
      <trkpt lat="42.87538" lon="-0.19934">
        <ele>2109</ele>
        <time>2013-03-23T09:26:12Z</time>
      </trkpt>
      <trkpt lat="42.87539" lon="-0.1993">
        <ele>2109</ele>
        <time>2013-03-23T09:26:27Z</time>
      </trkpt>
      <trkpt lat="42.87539" lon="-0.1993">
        <ele>2107</ele>
        <time>2013-03-23T09:26:29Z</time>
      </trkpt>
      <trkpt lat="42.87539" lon="-0.19934">
        <ele>2106</ele>
        <time>2013-03-23T09:26:57Z</time>
      </trkpt>
      <trkpt lat="42.87544" lon="-0.19932">
        <ele>2108</ele>
        <time>2013-03-23T09:27:32Z</time>
      </trkpt>
      <trkpt lat="42.87545" lon="-0.19933">
        <ele>2107</ele>
        <time>2013-03-23T09:27:35Z</time>
      </trkpt>
      <trkpt lat="42.87552" lon="-0.19929">
        <ele>2109</ele>
        <time>2013-03-23T09:28:02Z</time>
      </trkpt>
      <trkpt lat="42.87553" lon="-0.19933">
        <ele>2109</ele>
        <time>2013-03-23T09:28:23Z</time>
      </trkpt>
      <trkpt lat="42.8755" lon="-0.19932">
        <ele>2110</ele>
        <time>2013-03-23T09:28:41Z</time>
      </trkpt>
      <trkpt lat="42.87549" lon="-0.19927">
        <ele>2112</ele>
        <time>2013-03-23T09:29:01Z</time>
      </trkpt>
      <trkpt lat="42.87545" lon="-0.19928">
        <ele>2112</ele>
        <time>2013-03-23T09:29:17Z</time>
      </trkpt>
      <trkpt lat="42.87547" lon="-0.19938">
        <ele>2113</ele>
        <time>2013-03-23T09:29:41Z</time>
      </trkpt>
      <trkpt lat="42.87544" lon="-0.19932">
        <ele>2114</ele>
        <time>2013-03-23T09:29:53Z</time>
      </trkpt>
      <trkpt lat="42.8754" lon="-0.19937">
        <ele>2115</ele>
        <time>2013-03-23T09:30:12Z</time>
      </trkpt>
      <trkpt lat="42.87535" lon="-0.19939">
        <ele>2116</ele>
        <time>2013-03-23T09:30:21Z</time>
      </trkpt>
      <trkpt lat="42.87529" lon="-0.19938">
        <ele>2117</ele>
        <time>2013-03-23T09:30:29Z</time>
      </trkpt>
      <trkpt lat="42.87523" lon="-0.19914">
        <ele>2196</ele>
        <time>2013-03-23T09:37:30Z</time>
      </trkpt>
      <trkpt lat="42.87522" lon="-0.19928">
        <ele>2206</ele>
        <time>2013-03-23T09:38:02Z</time>
      </trkpt>
      <trkpt lat="42.87524" lon="-0.19933">
        <ele>2209</ele>
        <time>2013-03-23T09:38:17Z</time>
      </trkpt>
      <trkpt lat="42.8752" lon="-0.19936">
        <ele>2211</ele>
        <time>2013-03-23T09:38:21Z</time>
      </trkpt>
      <trkpt lat="42.87513" lon="-0.19939">
        <ele>2213</ele>
        <time>2013-03-23T09:38:41Z</time>
      </trkpt>
      <trkpt lat="42.87503" lon="-0.19945">
        <ele>2215</ele>
        <time>2013-03-23T09:38:56Z</time>
      </trkpt>
      <trkpt lat="42.87502" lon="-0.19953">
        <ele>2217</ele>
        <time>2013-03-23T09:39:11Z</time>
      </trkpt>
      <trkpt lat="42.87498" lon="-0.19951">
        <ele>2220</ele>
        <time>2013-03-23T09:39:27Z</time>
      </trkpt>
      <trkpt lat="42.87496" lon="-0.19948">
        <ele>2221</ele>
        <time>2013-03-23T09:39:31Z</time>
      </trkpt>
      <trkpt lat="42.87491" lon="-0.1994">
        <ele>2224</ele>
        <time>2013-03-23T09:39:43Z</time>
      </trkpt>
      <trkpt lat="42.87483" lon="-0.19934">
        <ele>2227</ele>
        <time>2013-03-23T09:39:52Z</time>
      </trkpt>
      <trkpt lat="42.87475" lon="-0.19934">
        <ele>2227</ele>
        <time>2013-03-23T09:40:07Z</time>
      </trkpt>
      <trkpt lat="42.87467" lon="-0.19942">
        <ele>2230</ele>
        <time>2013-03-23T09:40:24Z</time>
      </trkpt>
      <trkpt lat="42.87457" lon="-0.19943">
        <ele>2233</ele>
        <time>2013-03-23T09:40:37Z</time>
      </trkpt>
      <trkpt lat="42.87449" lon="-0.19945">
        <ele>2237</ele>
        <time>2013-03-23T09:40:50Z</time>
      </trkpt>
      <trkpt lat="42.87436" lon="-0.19939">
        <ele>2237</ele>
        <time>2013-03-23T09:41:03Z</time>
      </trkpt>
      <trkpt lat="42.87432" lon="-0.19931">
        <ele>2240</ele>
        <time>2013-03-23T09:41:17Z</time>
      </trkpt>
      <trkpt lat="42.87429" lon="-0.19932">
        <ele>2241</ele>
        <time>2013-03-23T09:41:38Z</time>
      </trkpt>
      <trkpt lat="42.87419" lon="-0.19927">
        <ele>2244</ele>
        <time>2013-03-23T09:41:52Z</time>
      </trkpt>
      <trkpt lat="42.87419" lon="-0.19926">
        <ele>2246</ele>
        <time>2013-03-23T09:41:53Z</time>
      </trkpt>
      <trkpt lat="42.87414" lon="-0.19923">
        <ele>2248</ele>
        <time>2013-03-23T09:42:04Z</time>
      </trkpt>
      <trkpt lat="42.87412" lon="-0.19922">
        <ele>2249</ele>
        <time>2013-03-23T09:42:07Z</time>
      </trkpt>
      <trkpt lat="42.87405" lon="-0.19921">
        <ele>2250</ele>
        <time>2013-03-23T09:42:23Z</time>
      </trkpt>
      <trkpt lat="42.874" lon="-0.19919">
        <ele>2252</ele>
        <time>2013-03-23T09:42:30Z</time>
      </trkpt>
      <trkpt lat="42.8739" lon="-0.19915">
        <ele>2254</ele>
        <time>2013-03-23T09:42:47Z</time>
      </trkpt>
      <trkpt lat="42.87385" lon="-0.19908">
        <ele>2256</ele>
        <time>2013-03-23T09:42:54Z</time>
      </trkpt>
      <trkpt lat="42.87372" lon="-0.19902">
        <ele>2258</ele>
        <time>2013-03-23T09:43:11Z</time>
      </trkpt>
      <trkpt lat="42.87361" lon="-0.19895">
        <ele>2262</ele>
        <time>2013-03-23T09:43:25Z</time>
      </trkpt>
      <trkpt lat="42.87349" lon="-0.19887">
        <ele>2261</ele>
        <time>2013-03-23T09:43:41Z</time>
      </trkpt>
      <trkpt lat="42.87344" lon="-0.19882">
        <ele>2264</ele>
        <time>2013-03-23T09:43:49Z</time>
      </trkpt>
      <trkpt lat="42.87339" lon="-0.19874">
        <ele>2265</ele>
        <time>2013-03-23T09:43:56Z</time>
      </trkpt>
      <trkpt lat="42.87337" lon="-0.19874">
        <ele>2267</ele>
        <time>2013-03-23T09:43:59Z</time>
      </trkpt>
      <trkpt lat="42.87336" lon="-0.19875">
        <ele>2268</ele>
        <time>2013-03-23T09:44:01Z</time>
      </trkpt>
      <trkpt lat="42.87325" lon="-0.19888">
        <ele>2269</ele>
        <time>2013-03-23T09:44:20Z</time>
      </trkpt>
      <trkpt lat="42.87323" lon="-0.19894">
        <ele>2272</ele>
        <time>2013-03-23T09:44:34Z</time>
      </trkpt>
      <trkpt lat="42.87319" lon="-0.19907">
        <ele>2275</ele>
        <time>2013-03-23T09:44:51Z</time>
      </trkpt>
      <trkpt lat="42.87312" lon="-0.19909">
        <ele>2278</ele>
        <time>2013-03-23T09:45:04Z</time>
      </trkpt>
      <trkpt lat="42.87296" lon="-0.19911">
        <ele>2279</ele>
        <time>2013-03-23T09:45:19Z</time>
      </trkpt>
      <trkpt lat="42.87288" lon="-0.19908">
        <ele>2281</ele>
        <time>2013-03-23T09:45:30Z</time>
      </trkpt>
      <trkpt lat="42.87278" lon="-0.19907">
        <ele>2283</ele>
        <time>2013-03-23T09:45:39Z</time>
      </trkpt>
      <trkpt lat="42.87264" lon="-0.19905">
        <ele>2286</ele>
        <time>2013-03-23T09:45:55Z</time>
      </trkpt>
      <trkpt lat="42.87257" lon="-0.19903">
        <ele>2287</ele>
        <time>2013-03-23T09:46:00Z</time>
      </trkpt>
      <trkpt lat="42.87249" lon="-0.19902">
        <ele>2289</ele>
        <time>2013-03-23T09:46:10Z</time>
      </trkpt>
      <trkpt lat="42.87239" lon="-0.19901">
        <ele>2292</ele>
        <time>2013-03-23T09:46:25Z</time>
      </trkpt>
      <trkpt lat="42.8723" lon="-0.19897">
        <ele>2294</ele>
        <time>2013-03-23T09:46:41Z</time>
      </trkpt>
      <trkpt lat="42.87222" lon="-0.19895">
        <ele>2297</ele>
        <time>2013-03-23T09:46:57Z</time>
      </trkpt>
      <trkpt lat="42.87213" lon="-0.1989">
        <ele>2301</ele>
        <time>2013-03-23T09:47:11Z</time>
      </trkpt>
      <trkpt lat="42.87209" lon="-0.19891">
        <ele>2302</ele>
        <time>2013-03-23T09:47:17Z</time>
      </trkpt>
      <trkpt lat="42.87207" lon="-0.19892">
        <ele>2303</ele>
        <time>2013-03-23T09:47:22Z</time>
      </trkpt>
      <trkpt lat="42.87204" lon="-0.199">
        <ele>2304</ele>
        <time>2013-03-23T09:47:38Z</time>
      </trkpt>
      <trkpt lat="42.872" lon="-0.19907">
        <ele>2307</ele>
        <time>2013-03-23T09:47:55Z</time>
      </trkpt>
      <trkpt lat="42.87194" lon="-0.19914">
        <ele>2309</ele>
        <time>2013-03-23T09:48:11Z</time>
      </trkpt>
      <trkpt lat="42.87188" lon="-0.19919">
        <ele>2311</ele>
        <time>2013-03-23T09:48:28Z</time>
      </trkpt>
      <trkpt lat="42.87186" lon="-0.1992">
        <ele>2314</ele>
        <time>2013-03-23T09:48:34Z</time>
      </trkpt>
      <trkpt lat="42.87176" lon="-0.19925">
        <ele>2316</ele>
        <time>2013-03-23T09:48:57Z</time>
      </trkpt>
      <trkpt lat="42.87171" lon="-0.19932">
        <ele>2320</ele>
        <time>2013-03-23T09:49:15Z</time>
      </trkpt>
      <trkpt lat="42.87158" lon="-0.1994">
        <ele>2323</ele>
        <time>2013-03-23T09:49:34Z</time>
      </trkpt>
      <trkpt lat="42.87142" lon="-0.1994">
        <ele>2325</ele>
        <time>2013-03-23T09:49:49Z</time>
      </trkpt>
      <trkpt lat="42.87132" lon="-0.19947">
        <ele>2327</ele>
        <time>2013-03-23T09:50:07Z</time>
      </trkpt>
      <trkpt lat="42.87124" lon="-0.19951">
        <ele>2330</ele>
        <time>2013-03-23T09:50:22Z</time>
      </trkpt>
      <trkpt lat="42.87113" lon="-0.19951">
        <ele>2333</ele>
        <time>2013-03-23T09:50:39Z</time>
      </trkpt>
      <trkpt lat="42.871" lon="-0.19954">
        <ele>2336</ele>
        <time>2013-03-23T09:50:55Z</time>
      </trkpt>
      <trkpt lat="42.87093" lon="-0.19959">
        <ele>2337</ele>
        <time>2013-03-23T09:51:08Z</time>
      </trkpt>
      <trkpt lat="42.87087" lon="-0.19959">
        <ele>2340</ele>
        <time>2013-03-23T09:51:18Z</time>
      </trkpt>
      <trkpt lat="42.8707" lon="-0.19963">
        <ele>2342</ele>
        <time>2013-03-23T09:51:37Z</time>
      </trkpt>
      <trkpt lat="42.87065" lon="-0.19964">
        <ele>2344</ele>
        <time>2013-03-23T09:51:51Z</time>
      </trkpt>
      <trkpt lat="42.87065" lon="-0.19964">
        <ele>2348</ele>
        <time>2013-03-23T09:52:03Z</time>
      </trkpt>
      <trkpt lat="42.87069" lon="-0.19976">
        <ele>2350</ele>
        <time>2013-03-23T09:52:16Z</time>
      </trkpt>
      <trkpt lat="42.87069" lon="-0.19993">
        <ele>2352</ele>
        <time>2013-03-23T09:52:36Z</time>
      </trkpt>
      <trkpt lat="42.87036" lon="-0.19976">
        <ele>2356</ele>
        <time>2013-03-23T09:52:56Z</time>
      </trkpt>
      <trkpt lat="42.8701" lon="-0.19954">
        <ele>2358</ele>
        <time>2013-03-23T09:53:03Z</time>
      </trkpt>
      <trkpt lat="42.86977" lon="-0.19932">
        <ele>2360</ele>
        <time>2013-03-23T09:53:13Z</time>
      </trkpt>
      <trkpt lat="42.86881" lon="-0.19983">
        <ele>2361</ele>
        <time>2013-03-23T09:53:32Z</time>
      </trkpt>
      <trkpt lat="42.86876" lon="-0.20007">
        <ele>2364</ele>
        <time>2013-03-23T09:53:49Z</time>
      </trkpt>
      <trkpt lat="42.86873" lon="-0.20022">
        <ele>2367</ele>
        <time>2013-03-23T09:54:05Z</time>
      </trkpt>
      <trkpt lat="42.86856" lon="-0.20011">
        <ele>2369</ele>
        <time>2013-03-23T09:54:22Z</time>
      </trkpt>
      <trkpt lat="42.86735" lon="-0.20062">
        <ele>2395</ele>
        <time>2013-03-23T09:57:50Z</time>
      </trkpt>
      <trkpt lat="42.8673" lon="-0.20079">
        <ele>2398</ele>
        <time>2013-03-23T09:58:08Z</time>
      </trkpt>
      <trkpt lat="42.86727" lon="-0.2007">
        <ele>2400</ele>
        <time>2013-03-23T09:58:27Z</time>
      </trkpt>
      <trkpt lat="42.86719" lon="-0.20065">
        <ele>2403</ele>
        <time>2013-03-23T09:58:44Z</time>
      </trkpt>
      <trkpt lat="42.86707" lon="-0.20051">
        <ele>2403</ele>
        <time>2013-03-23T09:58:56Z</time>
      </trkpt>
      <trkpt lat="42.86701" lon="-0.20056">
        <ele>2406</ele>
        <time>2013-03-23T09:59:14Z</time>
      </trkpt>
      <trkpt lat="42.86696" lon="-0.20069">
        <ele>2409</ele>
        <time>2013-03-23T09:59:31Z</time>
      </trkpt>
      <trkpt lat="42.86691" lon="-0.20079">
        <ele>2412</ele>
        <time>2013-03-23T09:59:48Z</time>
      </trkpt>
      <trkpt lat="42.8669" lon="-0.20095">
        <ele>2414</ele>
        <time>2013-03-23T10:00:03Z</time>
      </trkpt>
      <trkpt lat="42.86683" lon="-0.20088">
        <ele>2416</ele>
        <time>2013-03-23T10:00:19Z</time>
      </trkpt>
      <trkpt lat="42.86678" lon="-0.2008">
        <ele>2419</ele>
        <time>2013-03-23T10:00:30Z</time>
      </trkpt>
      <trkpt lat="42.8667" lon="-0.20064">
        <ele>2420</ele>
        <time>2013-03-23T10:00:48Z</time>
      </trkpt>
      <trkpt lat="42.86664" lon="-0.20055">
        <ele>2423</ele>
        <time>2013-03-23T10:01:03Z</time>
      </trkpt>
      <trkpt lat="42.86659" lon="-0.20062">
        <ele>2425</ele>
        <time>2013-03-23T10:01:21Z</time>
      </trkpt>
      <trkpt lat="42.86655" lon="-0.20072">
        <ele>2427</ele>
        <time>2013-03-23T10:01:38Z</time>
      </trkpt>
      <trkpt lat="42.86654" lon="-0.20088">
        <ele>2430</ele>
        <time>2013-03-23T10:01:55Z</time>
      </trkpt>
      <trkpt lat="42.86648" lon="-0.20078">
        <ele>2432</ele>
        <time>2013-03-23T10:02:11Z</time>
      </trkpt>
      <trkpt lat="42.86643" lon="-0.20065">
        <ele>2432</ele>
        <time>2013-03-23T10:02:28Z</time>
      </trkpt>
      <trkpt lat="42.8664" lon="-0.20059">
        <ele>2434</ele>
        <time>2013-03-23T10:02:42Z</time>
      </trkpt>
      <trkpt lat="42.86634" lon="-0.20071">
        <ele>2437</ele>
        <time>2013-03-23T10:03:02Z</time>
      </trkpt>
      <trkpt lat="42.8663" lon="-0.20085">
        <ele>2439</ele>
        <time>2013-03-23T10:03:20Z</time>
      </trkpt>
      <trkpt lat="42.86625" lon="-0.20095">
        <ele>2442</ele>
        <time>2013-03-23T10:03:39Z</time>
      </trkpt>
      <trkpt lat="42.86626" lon="-0.20099">
        <ele>2445</ele>
        <time>2013-03-23T10:03:56Z</time>
      </trkpt>
      <trkpt lat="42.86619" lon="-0.2009">
        <ele>2446</ele>
        <time>2013-03-23T10:04:12Z</time>
      </trkpt>
      <trkpt lat="42.86613" lon="-0.20081">
        <ele>2449</ele>
        <time>2013-03-23T10:04:28Z</time>
      </trkpt>
      <trkpt lat="42.86611" lon="-0.20074">
        <ele>2451</ele>
        <time>2013-03-23T10:04:41Z</time>
      </trkpt>
      <trkpt lat="42.86609" lon="-0.2006">
        <ele>2453</ele>
        <time>2013-03-23T10:04:58Z</time>
      </trkpt>
      <trkpt lat="42.86605" lon="-0.20044">
        <ele>2455</ele>
        <time>2013-03-23T10:05:17Z</time>
      </trkpt>
      <trkpt lat="42.86603" lon="-0.20043">
        <ele>2456</ele>
        <time>2013-03-23T10:05:29Z</time>
      </trkpt>
      <trkpt lat="42.86602" lon="-0.20046">
        <ele>2457</ele>
        <time>2013-03-23T10:05:44Z</time>
      </trkpt>
      <trkpt lat="42.86599" lon="-0.20056">
        <ele>2460</ele>
        <time>2013-03-23T10:06:04Z</time>
      </trkpt>
      <trkpt lat="42.86594" lon="-0.20064">
        <ele>2462</ele>
        <time>2013-03-23T10:06:22Z</time>
      </trkpt>
      <trkpt lat="42.8659" lon="-0.20074">
        <ele>2465</ele>
        <time>2013-03-23T10:06:34Z</time>
      </trkpt>
      <trkpt lat="42.86589" lon="-0.20074">
        <ele>2464</ele>
        <time>2013-03-23T10:06:47Z</time>
      </trkpt>
      <trkpt lat="42.86587" lon="-0.20063">
        <ele>2466</ele>
        <time>2013-03-23T10:07:04Z</time>
      </trkpt>
      <trkpt lat="42.86585" lon="-0.20055">
        <ele>2467</ele>
        <time>2013-03-23T10:07:21Z</time>
      </trkpt>
      <trkpt lat="42.86582" lon="-0.20059">
        <ele>2469</ele>
        <time>2013-03-23T10:07:38Z</time>
      </trkpt>
      <trkpt lat="42.86577" lon="-0.20067">
        <ele>2473</ele>
        <time>2013-03-23T10:07:55Z</time>
      </trkpt>
      <trkpt lat="42.86574" lon="-0.20073">
        <ele>2476</ele>
        <time>2013-03-23T10:08:09Z</time>
      </trkpt>
      <trkpt lat="42.86574" lon="-0.20074">
        <ele>2476</ele>
        <time>2013-03-23T10:08:10Z</time>
      </trkpt>
      <trkpt lat="42.86572" lon="-0.2007">
        <ele>2476</ele>
        <time>2013-03-23T10:08:25Z</time>
      </trkpt>
      <trkpt lat="42.86569" lon="-0.20059">
        <ele>2477</ele>
        <time>2013-03-23T10:08:42Z</time>
      </trkpt>
      <trkpt lat="42.86567" lon="-0.20052">
        <ele>2478</ele>
        <time>2013-03-23T10:08:56Z</time>
      </trkpt>
      <trkpt lat="42.86566" lon="-0.2005">
        <ele>2481</ele>
        <time>2013-03-23T10:09:08Z</time>
      </trkpt>
      <trkpt lat="42.86562" lon="-0.20057">
        <ele>2483</ele>
        <time>2013-03-23T10:09:27Z</time>
      </trkpt>
      <trkpt lat="42.86559" lon="-0.20064">
        <ele>2486</ele>
        <time>2013-03-23T10:09:38Z</time>
      </trkpt>
      <trkpt lat="42.8656" lon="-0.20067">
        <ele>2487</ele>
        <time>2013-03-23T10:09:52Z</time>
      </trkpt>
      <trkpt lat="42.86557" lon="-0.20055">
        <ele>2489</ele>
        <time>2013-03-23T10:10:09Z</time>
      </trkpt>
      <trkpt lat="42.86556" lon="-0.20046">
        <ele>2490</ele>
        <time>2013-03-23T10:10:22Z</time>
      </trkpt>
      <trkpt lat="42.86553" lon="-0.20037">
        <ele>2492</ele>
        <time>2013-03-23T10:10:36Z</time>
      </trkpt>
      <trkpt lat="42.8655" lon="-0.20038">
        <ele>2494</ele>
        <time>2013-03-23T10:10:51Z</time>
      </trkpt>
      <trkpt lat="42.86547" lon="-0.2005">
        <ele>2497</ele>
        <time>2013-03-23T10:11:09Z</time>
      </trkpt>
      <trkpt lat="42.86543" lon="-0.20058">
        <ele>2499</ele>
        <time>2013-03-23T10:11:26Z</time>
      </trkpt>
      <trkpt lat="42.86544" lon="-0.20046">
        <ele>2501</ele>
        <time>2013-03-23T10:11:44Z</time>
      </trkpt>
      <trkpt lat="42.86541" lon="-0.2004">
        <ele>2502</ele>
        <time>2013-03-23T10:12:00Z</time>
      </trkpt>
      <trkpt lat="42.86537" lon="-0.20046">
        <ele>2503</ele>
        <time>2013-03-23T10:12:22Z</time>
      </trkpt>
      <trkpt lat="42.86536" lon="-0.20056">
        <ele>2506</ele>
        <time>2013-03-23T10:12:38Z</time>
      </trkpt>
      <trkpt lat="42.86531" lon="-0.20044">
        <ele>2508</ele>
        <time>2013-03-23T10:12:55Z</time>
      </trkpt>
      <trkpt lat="42.86527" lon="-0.20031">
        <ele>2511</ele>
        <time>2013-03-23T10:13:11Z</time>
      </trkpt>
      <trkpt lat="42.86523" lon="-0.20029">
        <ele>2511</ele>
        <time>2013-03-23T10:13:23Z</time>
      </trkpt>
      <trkpt lat="42.86521" lon="-0.20034">
        <ele>2512</ele>
        <time>2013-03-23T10:13:38Z</time>
      </trkpt>
      <trkpt lat="42.86521" lon="-0.20039">
        <ele>2513</ele>
        <time>2013-03-23T10:13:53Z</time>
      </trkpt>
      <trkpt lat="42.86516" lon="-0.20026">
        <ele>2517</ele>
        <time>2013-03-23T10:14:10Z</time>
      </trkpt>
      <trkpt lat="42.86514" lon="-0.20016">
        <ele>2518</ele>
        <time>2013-03-23T10:14:25Z</time>
      </trkpt>
      <trkpt lat="42.86512" lon="-0.2001">
        <ele>2520</ele>
        <time>2013-03-23T10:14:41Z</time>
      </trkpt>
      <trkpt lat="42.8651" lon="-0.20016">
        <ele>2521</ele>
        <time>2013-03-23T10:14:59Z</time>
      </trkpt>
      <trkpt lat="42.8651" lon="-0.20017">
        <ele>2522</ele>
        <time>2013-03-23T10:15:02Z</time>
      </trkpt>
      <trkpt lat="42.86507" lon="-0.20007">
        <ele>2525</ele>
        <time>2013-03-23T10:15:22Z</time>
      </trkpt>
      <trkpt lat="42.86504" lon="-0.19997">
        <ele>2527</ele>
        <time>2013-03-23T10:15:40Z</time>
      </trkpt>
      <trkpt lat="42.86502" lon="-0.1998">
        <ele>2529</ele>
        <time>2013-03-23T10:15:59Z</time>
      </trkpt>
      <trkpt lat="42.86497" lon="-0.19975">
        <ele>2532</ele>
        <time>2013-03-23T10:16:16Z</time>
      </trkpt>
      <trkpt lat="42.86492" lon="-0.19983">
        <ele>2534</ele>
        <time>2013-03-23T10:16:34Z</time>
      </trkpt>
      <trkpt lat="42.86489" lon="-0.19993">
        <ele>2537</ele>
        <time>2013-03-23T10:16:52Z</time>
      </trkpt>
      <trkpt lat="42.86488" lon="-0.19988">
        <ele>2539</ele>
        <time>2013-03-23T10:17:07Z</time>
      </trkpt>
      <trkpt lat="42.8648" lon="-0.19976">
        <ele>2542</ele>
        <time>2013-03-23T10:17:25Z</time>
      </trkpt>
      <trkpt lat="42.86476" lon="-0.19966">
        <ele>2545</ele>
        <time>2013-03-23T10:17:44Z</time>
      </trkpt>
      <trkpt lat="42.86473" lon="-0.19962">
        <ele>2545</ele>
        <time>2013-03-23T10:17:59Z</time>
      </trkpt>
      <trkpt lat="42.86463" lon="-0.1996">
        <ele>2548</ele>
        <time>2013-03-23T10:18:18Z</time>
      </trkpt>
      <trkpt lat="42.86459" lon="-0.19969">
        <ele>2551</ele>
        <time>2013-03-23T10:18:37Z</time>
      </trkpt>
      <trkpt lat="42.86457" lon="-0.19978">
        <ele>2554</ele>
        <time>2013-03-23T10:18:51Z</time>
      </trkpt>
      <trkpt lat="42.86452" lon="-0.19971">
        <ele>2557</ele>
        <time>2013-03-23T10:19:11Z</time>
      </trkpt>
      <trkpt lat="42.86438" lon="-0.19966">
        <ele>2560</ele>
        <time>2013-03-23T10:19:28Z</time>
      </trkpt>
      <trkpt lat="42.86432" lon="-0.19972">
        <ele>2563</ele>
        <time>2013-03-23T10:19:44Z</time>
      </trkpt>
      <trkpt lat="42.86427" lon="-0.19976">
        <ele>2565</ele>
        <time>2013-03-23T10:20:01Z</time>
      </trkpt>
      <trkpt lat="42.86424" lon="-0.19976">
        <ele>2567</ele>
        <time>2013-03-23T10:20:13Z</time>
      </trkpt>
      <trkpt lat="42.86421" lon="-0.19968">
        <ele>2570</ele>
        <time>2013-03-23T10:20:33Z</time>
      </trkpt>
      <trkpt lat="42.86413" lon="-0.19958">
        <ele>2573</ele>
        <time>2013-03-23T10:20:51Z</time>
      </trkpt>
      <trkpt lat="42.86406" lon="-0.19948">
        <ele>2576</ele>
        <time>2013-03-23T10:21:07Z</time>
      </trkpt>
      <trkpt lat="42.86396" lon="-0.1994">
        <ele>2577</ele>
        <time>2013-03-23T10:21:20Z</time>
      </trkpt>
      <trkpt lat="42.86393" lon="-0.19942">
        <ele>2580</ele>
        <time>2013-03-23T10:21:38Z</time>
      </trkpt>
      <trkpt lat="42.8639" lon="-0.19952">
        <ele>2582</ele>
        <time>2013-03-23T10:21:56Z</time>
      </trkpt>
      <trkpt lat="42.8639" lon="-0.19959">
        <ele>2586</ele>
        <time>2013-03-23T10:22:13Z</time>
      </trkpt>
      <trkpt lat="42.86393" lon="-0.19971">
        <ele>2586</ele>
        <time>2013-03-23T10:22:26Z</time>
      </trkpt>
      <trkpt lat="42.8639" lon="-0.19973">
        <ele>2589</ele>
        <time>2013-03-23T10:22:43Z</time>
      </trkpt>
      <trkpt lat="42.86385" lon="-0.19962">
        <ele>2591</ele>
        <time>2013-03-23T10:22:58Z</time>
      </trkpt>
      <trkpt lat="42.86376" lon="-0.19947">
        <ele>2594</ele>
        <time>2013-03-23T10:23:15Z</time>
      </trkpt>
      <trkpt lat="42.86366" lon="-0.19939">
        <ele>2595</ele>
        <time>2013-03-23T10:23:30Z</time>
      </trkpt>
      <trkpt lat="42.86359" lon="-0.19944">
        <ele>2597</ele>
        <time>2013-03-23T10:23:46Z</time>
      </trkpt>
      <trkpt lat="42.86353" lon="-0.19955">
        <ele>2601</ele>
        <time>2013-03-23T10:24:05Z</time>
      </trkpt>
      <trkpt lat="42.86349" lon="-0.19961">
        <ele>2603</ele>
        <time>2013-03-23T10:24:23Z</time>
      </trkpt>
      <trkpt lat="42.86348" lon="-0.19952">
        <ele>2606</ele>
        <time>2013-03-23T10:24:39Z</time>
      </trkpt>
      <trkpt lat="42.86342" lon="-0.19938">
        <ele>2610</ele>
        <time>2013-03-23T10:24:57Z</time>
      </trkpt>
      <trkpt lat="42.86339" lon="-0.19927">
        <ele>2612</ele>
        <time>2013-03-23T10:25:11Z</time>
      </trkpt>
      <trkpt lat="42.86339" lon="-0.19914">
        <ele>2614</ele>
        <time>2013-03-23T10:25:26Z</time>
      </trkpt>
      <trkpt lat="42.86339" lon="-0.19905">
        <ele>2615</ele>
        <time>2013-03-23T10:25:42Z</time>
      </trkpt>
      <trkpt lat="42.86331" lon="-0.19903">
        <ele>2617</ele>
        <time>2013-03-23T10:25:58Z</time>
      </trkpt>
      <trkpt lat="42.86319" lon="-0.19904">
        <ele>2620</ele>
        <time>2013-03-23T10:26:15Z</time>
      </trkpt>
      <trkpt lat="42.86311" lon="-0.19913">
        <ele>2622</ele>
        <time>2013-03-23T10:26:31Z</time>
      </trkpt>
      <trkpt lat="42.86306" lon="-0.19921">
        <ele>2625</ele>
        <time>2013-03-23T10:26:43Z</time>
      </trkpt>
      <trkpt lat="42.86302" lon="-0.19927">
        <ele>2628</ele>
        <time>2013-03-23T10:27:02Z</time>
      </trkpt>
      <trkpt lat="42.86303" lon="-0.19931">
        <ele>2628</ele>
        <time>2013-03-23T10:27:16Z</time>
      </trkpt>
      <trkpt lat="42.86298" lon="-0.19926">
        <ele>2631</ele>
        <time>2013-03-23T10:27:30Z</time>
      </trkpt>
      <trkpt lat="42.86294" lon="-0.19919">
        <ele>2634</ele>
        <time>2013-03-23T10:27:46Z</time>
      </trkpt>
      <trkpt lat="42.86285" lon="-0.19921">
        <ele>2637</ele>
        <time>2013-03-23T10:28:09Z</time>
      </trkpt>
      <trkpt lat="42.86285" lon="-0.19923">
        <ele>2638</ele>
        <time>2013-03-23T10:28:25Z</time>
      </trkpt>
      <trkpt lat="42.86283" lon="-0.19919">
        <ele>2642</ele>
        <time>2013-03-23T10:28:44Z</time>
      </trkpt>
      <trkpt lat="42.86279" lon="-0.19911">
        <ele>2644</ele>
        <time>2013-03-23T10:28:59Z</time>
      </trkpt>
      <trkpt lat="42.86271" lon="-0.19912">
        <ele>2646</ele>
        <time>2013-03-23T10:29:17Z</time>
      </trkpt>
      <trkpt lat="42.86266" lon="-0.19918">
        <ele>2648</ele>
        <time>2013-03-23T10:29:32Z</time>
      </trkpt>
      <trkpt lat="42.86264" lon="-0.19917">
        <ele>2649</ele>
        <time>2013-03-23T10:29:44Z</time>
      </trkpt>
      <trkpt lat="42.86264" lon="-0.19915">
        <ele>2650</ele>
        <time>2013-03-23T10:29:49Z</time>
      </trkpt>
      <trkpt lat="42.86257" lon="-0.19906">
        <ele>2651</ele>
        <time>2013-03-23T10:30:07Z</time>
      </trkpt>
      <trkpt lat="42.86257" lon="-0.19903">
        <ele>2653</ele>
        <time>2013-03-23T10:30:15Z</time>
      </trkpt>
      <trkpt lat="42.86258" lon="-0.19893">
        <ele>2655</ele>
        <time>2013-03-23T10:30:29Z</time>
      </trkpt>
      <trkpt lat="42.8625" lon="-0.19891">
        <ele>2658</ele>
        <time>2013-03-23T10:30:44Z</time>
      </trkpt>
      <trkpt lat="42.86243" lon="-0.19892">
        <ele>2661</ele>
        <time>2013-03-23T10:30:58Z</time>
      </trkpt>
      <trkpt lat="42.86234" lon="-0.19891">
        <ele>2662</ele>
        <time>2013-03-23T10:31:15Z</time>
      </trkpt>
      <trkpt lat="42.86229" lon="-0.19891">
        <ele>2666</ele>
        <time>2013-03-23T10:31:31Z</time>
      </trkpt>
      <trkpt lat="42.86224" lon="-0.19887">
        <ele>2666</ele>
        <time>2013-03-23T10:31:45Z</time>
      </trkpt>
      <trkpt lat="42.86222" lon="-0.19882">
        <ele>2666</ele>
        <time>2013-03-23T10:32:13Z</time>
      </trkpt>
      <trkpt lat="42.86222" lon="-0.19886">
        <ele>2666</ele>
        <time>2013-03-23T10:32:26Z</time>
      </trkpt>
      <trkpt lat="42.86222" lon="-0.19887">
        <ele>2666</ele>
        <time>2013-03-23T10:32:57Z</time>
      </trkpt>
      <trkpt lat="42.86224" lon="-0.19891">
        <ele>2665</ele>
        <time>2013-03-23T10:33:20Z</time>
      </trkpt>
      <trkpt lat="42.8622" lon="-0.19888">
        <ele>2667</ele>
        <time>2013-03-23T10:33:37Z</time>
      </trkpt>
      <trkpt lat="42.86218" lon="-0.19888">
        <ele>2668</ele>
        <time>2013-03-23T10:33:42Z</time>
      </trkpt>
      <trkpt lat="42.86217" lon="-0.19887">
        <ele>2669</ele>
        <time>2013-03-23T10:34:00Z</time>
      </trkpt>
      <trkpt lat="42.8622" lon="-0.19886">
        <ele>2672</ele>
        <time>2013-03-23T10:34:16Z</time>
      </trkpt>
      <trkpt lat="42.86222" lon="-0.1988">
        <ele>2675</ele>
        <time>2013-03-23T10:34:30Z</time>
      </trkpt>
      <trkpt lat="42.86229" lon="-0.19856">
        <ele>2679</ele>
        <time>2013-03-23T10:34:48Z</time>
      </trkpt>
      <trkpt lat="42.86233" lon="-0.19847">
        <ele>2682</ele>
        <time>2013-03-23T10:35:07Z</time>
      </trkpt>
      <trkpt lat="42.86241" lon="-0.19828">
        <ele>2684</ele>
        <time>2013-03-23T10:35:23Z</time>
      </trkpt>
      <trkpt lat="42.86241" lon="-0.19816">
        <ele>2687</ele>
        <time>2013-03-23T10:35:39Z</time>
      </trkpt>
      <trkpt lat="42.8624" lon="-0.19804">
        <ele>2690</ele>
        <time>2013-03-23T10:35:56Z</time>
      </trkpt>
      <trkpt lat="42.8624" lon="-0.19803">
        <ele>2690</ele>
        <time>2013-03-23T10:35:57Z</time>
      </trkpt>
      <trkpt lat="42.86242" lon="-0.19794">
        <ele>2691</ele>
        <time>2013-03-23T10:36:12Z</time>
      </trkpt>
      <trkpt lat="42.86242" lon="-0.19789">
        <ele>2692</ele>
        <time>2013-03-23T10:36:35Z</time>
      </trkpt>
      <trkpt lat="42.86246" lon="-0.19783">
        <ele>2693</ele>
        <time>2013-03-23T10:37:09Z</time>
      </trkpt>
      <trkpt lat="42.86248" lon="-0.1978">
        <ele>2695</ele>
        <time>2013-03-23T10:37:26Z</time>
      </trkpt>
      <trkpt lat="42.86249" lon="-0.19776">
        <ele>2697</ele>
        <time>2013-03-23T10:37:33Z</time>
      </trkpt>
      <trkpt lat="42.86252" lon="-0.19761">
        <ele>2700</ele>
        <time>2013-03-23T10:37:50Z</time>
      </trkpt>
      <trkpt lat="42.86255" lon="-0.19751">
        <ele>2702</ele>
        <time>2013-03-23T10:38:07Z</time>
      </trkpt>
      <trkpt lat="42.8626" lon="-0.19747">
        <ele>2704</ele>
        <time>2013-03-23T10:38:26Z</time>
      </trkpt>
      <trkpt lat="42.86263" lon="-0.19743">
        <ele>2708</ele>
        <time>2013-03-23T10:38:40Z</time>
      </trkpt>
      <trkpt lat="42.86271" lon="-0.19736">
        <ele>2710</ele>
        <time>2013-03-23T10:38:58Z</time>
      </trkpt>
      <trkpt lat="42.86278" lon="-0.19729">
        <ele>2713</ele>
        <time>2013-03-23T10:39:15Z</time>
      </trkpt>
      <trkpt lat="42.8628" lon="-0.19724">
        <ele>2713</ele>
        <time>2013-03-23T10:39:28Z</time>
      </trkpt>
      <trkpt lat="42.86274" lon="-0.19719">
        <ele>2715</ele>
        <time>2013-03-23T10:39:44Z</time>
      </trkpt>
      <trkpt lat="42.86269" lon="-0.19712">
        <ele>2718</ele>
        <time>2013-03-23T10:40:00Z</time>
      </trkpt>
      <trkpt lat="42.86263" lon="-0.19708">
        <ele>2720</ele>
        <time>2013-03-23T10:40:16Z</time>
      </trkpt>
      <trkpt lat="42.86256" lon="-0.19707">
        <ele>2723</ele>
        <time>2013-03-23T10:40:31Z</time>
      </trkpt>
      <trkpt lat="42.86248" lon="-0.19707">
        <ele>2723</ele>
        <time>2013-03-23T10:40:57Z</time>
      </trkpt>
      <trkpt lat="42.8625" lon="-0.19706">
        <ele>2724</ele>
        <time>2013-03-23T10:41:10Z</time>
      </trkpt>
      <trkpt lat="42.86255" lon="-0.19701">
        <ele>2727</ele>
        <time>2013-03-23T10:41:28Z</time>
      </trkpt>
      <trkpt lat="42.86259" lon="-0.19699">
        <ele>2730</ele>
        <time>2013-03-23T10:41:43Z</time>
      </trkpt>
      <trkpt lat="42.86268" lon="-0.1969">
        <ele>2733</ele>
        <time>2013-03-23T10:42:03Z</time>
      </trkpt>
      <trkpt lat="42.86269" lon="-0.19689">
        <ele>2734</ele>
        <time>2013-03-23T10:42:08Z</time>
      </trkpt>
      <trkpt lat="42.86275" lon="-0.19682">
        <ele>2737</ele>
        <time>2013-03-23T10:42:23Z</time>
      </trkpt>
      <trkpt lat="42.86281" lon="-0.19676">
        <ele>2739</ele>
        <time>2013-03-23T10:42:40Z</time>
      </trkpt>
      <trkpt lat="42.86286" lon="-0.19669">
        <ele>2741</ele>
        <time>2013-03-23T10:42:53Z</time>
      </trkpt>
      <trkpt lat="42.86293" lon="-0.19663">
        <ele>2743</ele>
        <time>2013-03-23T10:43:07Z</time>
      </trkpt>
      <trkpt lat="42.86298" lon="-0.19657">
        <ele>2745</ele>
        <time>2013-03-23T10:43:23Z</time>
      </trkpt>
      <trkpt lat="42.863" lon="-0.19657">
        <ele>2745</ele>
        <time>2013-03-23T10:43:43Z</time>
      </trkpt>
      <trkpt lat="42.86295" lon="-0.19655">
        <ele>2746</ele>
        <time>2013-03-23T10:43:58Z</time>
      </trkpt>
      <trkpt lat="42.86289" lon="-0.19652">
        <ele>2748</ele>
        <time>2013-03-23T10:44:12Z</time>
      </trkpt>
      <trkpt lat="42.86282" lon="-0.1965">
        <ele>2750</ele>
        <time>2013-03-23T10:44:27Z</time>
      </trkpt>
      <trkpt lat="42.86275" lon="-0.19651">
        <ele>2752</ele>
        <time>2013-03-23T10:44:42Z</time>
      </trkpt>
      <trkpt lat="42.86276" lon="-0.19651">
        <ele>2753</ele>
        <time>2013-03-23T10:45:01Z</time>
      </trkpt>
      <trkpt lat="42.86283" lon="-0.19646">
        <ele>2756</ele>
        <time>2013-03-23T10:45:17Z</time>
      </trkpt>
      <trkpt lat="42.8629" lon="-0.19639">
        <ele>2759</ele>
        <time>2013-03-23T10:45:35Z</time>
      </trkpt>
      <trkpt lat="42.86293" lon="-0.19637">
        <ele>2760</ele>
        <time>2013-03-23T10:45:46Z</time>
      </trkpt>
      <trkpt lat="42.86298" lon="-0.19634">
        <ele>2762</ele>
        <time>2013-03-23T10:46:03Z</time>
      </trkpt>
      <trkpt lat="42.86303" lon="-0.19631">
        <ele>2765</ele>
        <time>2013-03-23T10:46:15Z</time>
      </trkpt>
      <trkpt lat="42.86304" lon="-0.19631">
        <ele>2765</ele>
        <time>2013-03-23T10:46:16Z</time>
      </trkpt>
      <trkpt lat="42.86313" lon="-0.19623">
        <ele>2766</ele>
        <time>2013-03-23T10:46:34Z</time>
      </trkpt>
      <trkpt lat="42.86315" lon="-0.19623">
        <ele>2766</ele>
        <time>2013-03-23T10:46:50Z</time>
      </trkpt>
      <trkpt lat="42.86315" lon="-0.1962">
        <ele>2770</ele>
        <time>2013-03-23T10:47:03Z</time>
      </trkpt>
      <trkpt lat="42.86314" lon="-0.19619">
        <ele>2770</ele>
        <time>2013-03-23T10:47:04Z</time>
      </trkpt>
      <trkpt lat="42.86305" lon="-0.19616">
        <ele>2769</ele>
        <time>2013-03-23T10:47:21Z</time>
      </trkpt>
      <trkpt lat="42.86295" lon="-0.19615">
        <ele>2772</ele>
        <time>2013-03-23T10:47:39Z</time>
      </trkpt>
      <trkpt lat="42.86292" lon="-0.19615">
        <ele>2773</ele>
        <time>2013-03-23T10:47:57Z</time>
      </trkpt>
      <trkpt lat="42.86293" lon="-0.19616">
        <ele>2772</ele>
        <time>2013-03-23T10:48:08Z</time>
      </trkpt>
      <trkpt lat="42.86294" lon="-0.19612">
        <ele>2772</ele>
        <time>2013-03-23T10:48:24Z</time>
      </trkpt>
      <trkpt lat="42.86295" lon="-0.19611">
        <ele>2772</ele>
        <time>2013-03-23T10:48:40Z</time>
      </trkpt>
      <trkpt lat="42.86294" lon="-0.1961">
        <ele>2772</ele>
        <time>2013-03-23T10:49:00Z</time>
      </trkpt>
      <trkpt lat="42.86295" lon="-0.19612">
        <ele>2771</ele>
        <time>2013-03-23T10:49:18Z</time>
      </trkpt>
      <trkpt lat="42.86294" lon="-0.19613">
        <ele>2770</ele>
        <time>2013-03-23T10:49:49Z</time>
      </trkpt>
      <trkpt lat="42.86293" lon="-0.19614">
        <ele>2770</ele>
        <time>2013-03-23T10:50:24Z</time>
      </trkpt>
      <trkpt lat="42.86291" lon="-0.19614">
        <ele>2770</ele>
        <time>2013-03-23T10:50:50Z</time>
      </trkpt>
      <trkpt lat="42.86294" lon="-0.19612">
        <ele>2770</ele>
        <time>2013-03-23T10:51:26Z</time>
      </trkpt>
      <trkpt lat="42.86293" lon="-0.19614">
        <ele>2770</ele>
        <time>2013-03-23T10:52:01Z</time>
      </trkpt>
      <trkpt lat="42.86291" lon="-0.19617">
        <ele>2770</ele>
        <time>2013-03-23T10:52:39Z</time>
      </trkpt>
      <trkpt lat="42.86294" lon="-0.19614">
        <ele>2770</ele>
        <time>2013-03-23T10:53:07Z</time>
      </trkpt>
      <trkpt lat="42.86293" lon="-0.19614">
        <ele>2768</ele>
        <time>2013-03-23T10:53:38Z</time>
      </trkpt>
      <trkpt lat="42.86291" lon="-0.19617">
        <ele>2769</ele>
        <time>2013-03-23T10:54:09Z</time>
      </trkpt>
      <trkpt lat="42.86292" lon="-0.19613">
        <ele>2768</ele>
        <time>2013-03-23T10:54:36Z</time>
      </trkpt>
      <trkpt lat="42.86292" lon="-0.19612">
        <ele>2767</ele>
        <time>2013-03-23T10:55:09Z</time>
      </trkpt>
      <trkpt lat="42.86296" lon="-0.1961">
        <ele>2766</ele>
        <time>2013-03-23T10:55:40Z</time>
      </trkpt>
      <trkpt lat="42.86294" lon="-0.19611">
        <ele>2769</ele>
        <time>2013-03-23T10:56:19Z</time>
      </trkpt>
      <trkpt lat="42.86295" lon="-0.19611">
        <ele>2768</ele>
        <time>2013-03-23T10:56:44Z</time>
      </trkpt>
      <trkpt lat="42.86293" lon="-0.19611">
        <ele>2768</ele>
        <time>2013-03-23T10:57:18Z</time>
      </trkpt>
      <trkpt lat="42.86293" lon="-0.19611">
        <ele>2769</ele>
        <time>2013-03-23T10:57:50Z</time>
      </trkpt>
      <trkpt lat="42.86294" lon="-0.19611">
        <ele>2770</ele>
        <time>2013-03-23T10:58:19Z</time>
      </trkpt>
      <trkpt lat="42.86293" lon="-0.19611">
        <ele>2770</ele>
        <time>2013-03-23T10:58:55Z</time>
      </trkpt>
      <trkpt lat="42.86294" lon="-0.19614">
        <ele>2770</ele>
        <time>2013-03-23T10:59:31Z</time>
      </trkpt>
      <trkpt lat="42.86293" lon="-0.19612">
        <ele>2770</ele>
        <time>2013-03-23T10:59:50Z</time>
      </trkpt>
      <trkpt lat="42.86293" lon="-0.19612">
        <ele>2770</ele>
        <time>2013-03-23T11:00:09Z</time>
      </trkpt>
      <trkpt lat="42.86294" lon="-0.19612">
        <ele>2771</ele>
        <time>2013-03-23T11:00:34Z</time>
      </trkpt>
      <trkpt lat="42.86293" lon="-0.19611">
        <ele>2771</ele>
        <time>2013-03-23T11:00:56Z</time>
      </trkpt>
      <trkpt lat="42.86294" lon="-0.19611">
        <ele>2770</ele>
        <time>2013-03-23T11:01:06Z</time>
      </trkpt>
      <trkpt lat="42.86296" lon="-0.19613">
        <ele>2772</ele>
        <time>2013-03-23T11:01:26Z</time>
      </trkpt>
      <trkpt lat="42.86295" lon="-0.19615">
        <ele>2770</ele>
        <time>2013-03-23T11:01:48Z</time>
      </trkpt>
      <trkpt lat="42.86294" lon="-0.19614">
        <ele>2770</ele>
        <time>2013-03-23T11:02:11Z</time>
      </trkpt>
      <trkpt lat="42.86295" lon="-0.19612">
        <ele>2771</ele>
        <time>2013-03-23T11:02:30Z</time>
      </trkpt>
      <trkpt lat="42.86294" lon="-0.19612">
        <ele>2770</ele>
        <time>2013-03-23T11:02:52Z</time>
      </trkpt>
      <trkpt lat="42.86294" lon="-0.19611">
        <ele>2770</ele>
        <time>2013-03-23T11:03:11Z</time>
      </trkpt>
      <trkpt lat="42.86292" lon="-0.19612">
        <ele>2769</ele>
        <time>2013-03-23T11:03:37Z</time>
      </trkpt>
      <trkpt lat="42.86291" lon="-0.19612">
        <ele>2769</ele>
        <time>2013-03-23T11:04:03Z</time>
      </trkpt>
      <trkpt lat="42.86291" lon="-0.1961">
        <ele>2769</ele>
        <time>2013-03-23T11:04:31Z</time>
      </trkpt>
      <trkpt lat="42.86291" lon="-0.19612">
        <ele>2769</ele>
        <time>2013-03-23T11:04:58Z</time>
      </trkpt>
      <trkpt lat="42.86294" lon="-0.19611">
        <ele>2768</ele>
        <time>2013-03-23T11:05:34Z</time>
      </trkpt>
      <trkpt lat="42.86291" lon="-0.19617">
        <ele>2767</ele>
        <time>2013-03-23T11:05:59Z</time>
      </trkpt>
      <trkpt lat="42.86289" lon="-0.1962">
        <ele>2765</ele>
        <time>2013-03-23T11:06:07Z</time>
      </trkpt>
      <trkpt lat="42.8629" lon="-0.19624">
        <ele>2762</ele>
        <time>2013-03-23T11:06:16Z</time>
      </trkpt>
      <trkpt lat="42.86291" lon="-0.19625">
        <ele>2763</ele>
        <time>2013-03-23T11:06:19Z</time>
      </trkpt>
      <trkpt lat="42.86288" lon="-0.19633">
        <ele>2760</ele>
        <time>2013-03-23T11:06:23Z</time>
      </trkpt>
      <trkpt lat="42.86282" lon="-0.19636">
        <ele>2758</ele>
        <time>2013-03-23T11:06:26Z</time>
      </trkpt>
      <trkpt lat="42.86278" lon="-0.19639">
        <ele>2757</ele>
        <time>2013-03-23T11:06:28Z</time>
      </trkpt>
      <trkpt lat="42.86275" lon="-0.19642">
        <ele>2754</ele>
        <time>2013-03-23T11:06:33Z</time>
      </trkpt>
      <trkpt lat="42.86278" lon="-0.19649">
        <ele>2751</ele>
        <time>2013-03-23T11:06:36Z</time>
      </trkpt>
      <trkpt lat="42.86279" lon="-0.19649">
        <ele>2750</ele>
        <time>2013-03-23T11:06:39Z</time>
      </trkpt>
      <trkpt lat="42.86283" lon="-0.19652">
        <ele>2749</ele>
        <time>2013-03-23T11:06:44Z</time>
      </trkpt>
      <trkpt lat="42.86278" lon="-0.19664">
        <ele>2743</ele>
        <time>2013-03-23T11:06:49Z</time>
      </trkpt>
      <trkpt lat="42.86262" lon="-0.19673">
        <ele>2740</ele>
        <time>2013-03-23T11:06:57Z</time>
      </trkpt>
      <trkpt lat="42.86259" lon="-0.19675">
        <ele>2739</ele>
        <time>2013-03-23T11:06:59Z</time>
      </trkpt>
      <trkpt lat="42.86258" lon="-0.19677">
        <ele>2738</ele>
        <time>2013-03-23T11:07:00Z</time>
      </trkpt>
      <trkpt lat="42.86262" lon="-0.19682">
        <ele>2734</ele>
        <time>2013-03-23T11:07:04Z</time>
      </trkpt>
      <trkpt lat="42.86257" lon="-0.1969">
        <ele>2731</ele>
        <time>2013-03-23T11:07:08Z</time>
      </trkpt>
      <trkpt lat="42.86252" lon="-0.197">
        <ele>2724</ele>
        <time>2013-03-23T11:07:14Z</time>
      </trkpt>
      <trkpt lat="42.86254" lon="-0.19703">
        <ele>2724</ele>
        <time>2013-03-23T11:07:16Z</time>
      </trkpt>
      <trkpt lat="42.8625" lon="-0.19711">
        <ele>2720</ele>
        <time>2013-03-23T11:07:18Z</time>
      </trkpt>
      <trkpt lat="42.86244" lon="-0.19718">
        <ele>2718</ele>
        <time>2013-03-23T11:07:21Z</time>
      </trkpt>
      <trkpt lat="42.86241" lon="-0.19722">
        <ele>2717</ele>
        <time>2013-03-23T11:07:23Z</time>
      </trkpt>
      <trkpt lat="42.8624" lon="-0.19725">
        <ele>2716</ele>
        <time>2013-03-23T11:07:24Z</time>
      </trkpt>
      <trkpt lat="42.86241" lon="-0.19733">
        <ele>2712</ele>
        <time>2013-03-23T11:07:27Z</time>
      </trkpt>
      <trkpt lat="42.86245" lon="-0.19737">
        <ele>2711</ele>
        <time>2013-03-23T11:07:29Z</time>
      </trkpt>
      <trkpt lat="42.86244" lon="-0.19746">
        <ele>2707</ele>
        <time>2013-03-23T11:07:31Z</time>
      </trkpt>
      <trkpt lat="42.8624" lon="-0.19754">
        <ele>2705</ele>
        <time>2013-03-23T11:07:33Z</time>
      </trkpt>
      <trkpt lat="42.86244" lon="-0.19763">
        <ele>2701</ele>
        <time>2013-03-23T11:07:36Z</time>
      </trkpt>
      <trkpt lat="42.86248" lon="-0.19763">
        <ele>2698</ele>
        <time>2013-03-23T11:07:38Z</time>
      </trkpt>
      <trkpt lat="42.86252" lon="-0.19769">
        <ele>2696</ele>
        <time>2013-03-23T11:07:41Z</time>
      </trkpt>
      <trkpt lat="42.86252" lon="-0.19767">
        <ele>2695</ele>
        <time>2013-03-23T11:07:56Z</time>
      </trkpt>
      <trkpt lat="42.86251" lon="-0.19766">
        <ele>2696</ele>
        <time>2013-03-23T11:08:16Z</time>
      </trkpt>
      <trkpt lat="42.86254" lon="-0.19766">
        <ele>2696</ele>
        <time>2013-03-23T11:08:41Z</time>
      </trkpt>
      <trkpt lat="42.86253" lon="-0.19768">
        <ele>2696</ele>
        <time>2013-03-23T11:09:04Z</time>
      </trkpt>
      <trkpt lat="42.8625" lon="-0.19764">
        <ele>2697</ele>
        <time>2013-03-23T11:09:37Z</time>
      </trkpt>
      <trkpt lat="42.86256" lon="-0.19768">
        <ele>2696</ele>
        <time>2013-03-23T11:09:58Z</time>
      </trkpt>
      <trkpt lat="42.86253" lon="-0.19771">
        <ele>2696</ele>
        <time>2013-03-23T11:10:03Z</time>
      </trkpt>
      <trkpt lat="42.86246" lon="-0.19779">
        <ele>2696</ele>
        <time>2013-03-23T11:10:07Z</time>
      </trkpt>
      <trkpt lat="42.86242" lon="-0.19787">
        <ele>2694</ele>
        <time>2013-03-23T11:10:09Z</time>
      </trkpt>
      <trkpt lat="42.86241" lon="-0.19806">
        <ele>2690</ele>
        <time>2013-03-23T11:10:13Z</time>
      </trkpt>
      <trkpt lat="42.86238" lon="-0.19815">
        <ele>2689</ele>
        <time>2013-03-23T11:10:15Z</time>
      </trkpt>
      <trkpt lat="42.86232" lon="-0.19823">
        <ele>2687</ele>
        <time>2013-03-23T11:10:17Z</time>
      </trkpt>
      <trkpt lat="42.86233" lon="-0.19834">
        <ele>2682</ele>
        <time>2013-03-23T11:10:21Z</time>
      </trkpt>
      <trkpt lat="42.86234" lon="-0.19842">
        <ele>2678</ele>
        <time>2013-03-23T11:10:23Z</time>
      </trkpt>
      <trkpt lat="42.8622" lon="-0.19868">
        <ele>2674</ele>
        <time>2013-03-23T11:10:29Z</time>
      </trkpt>
      <trkpt lat="42.86218" lon="-0.19871">
        <ele>2673</ele>
        <time>2013-03-23T11:10:31Z</time>
      </trkpt>
      <trkpt lat="42.86215" lon="-0.19875">
        <ele>2671</ele>
        <time>2013-03-23T11:10:34Z</time>
      </trkpt>
      <trkpt lat="42.86213" lon="-0.19881">
        <ele>2669</ele>
        <time>2013-03-23T11:10:45Z</time>
      </trkpt>
      <trkpt lat="42.86213" lon="-0.19881">
        <ele>2669</ele>
        <time>2013-03-23T11:10:46Z</time>
      </trkpt>
      <trkpt lat="42.86212" lon="-0.19883">
        <ele>2669</ele>
        <time>2013-03-23T11:10:48Z</time>
      </trkpt>
      <trkpt lat="42.86218" lon="-0.19893">
        <ele>2667</ele>
        <time>2013-03-23T11:10:57Z</time>
      </trkpt>
      <trkpt lat="42.86217" lon="-0.19895">
        <ele>2667</ele>
        <time>2013-03-23T11:11:17Z</time>
      </trkpt>
      <trkpt lat="42.86217" lon="-0.19897">
        <ele>2667</ele>
        <time>2013-03-23T11:11:44Z</time>
      </trkpt>
      <trkpt lat="42.86217" lon="-0.19897">
        <ele>2667</ele>
        <time>2013-03-23T11:12:05Z</time>
      </trkpt>
      <trkpt lat="42.86217" lon="-0.19902">
        <ele>2668</ele>
        <time>2013-03-23T11:12:34Z</time>
      </trkpt>
      <trkpt lat="42.86216" lon="-0.19906">
        <ele>2669</ele>
        <time>2013-03-23T11:12:56Z</time>
      </trkpt>
      <trkpt lat="42.86218" lon="-0.19907">
        <ele>2669</ele>
        <time>2013-03-23T11:13:26Z</time>
      </trkpt>
      <trkpt lat="42.86219" lon="-0.19909">
        <ele>2669</ele>
        <time>2013-03-23T11:13:49Z</time>
      </trkpt>
      <trkpt lat="42.8622" lon="-0.19902">
        <ele>2670</ele>
        <time>2013-03-23T11:14:09Z</time>
      </trkpt>
      <trkpt lat="42.86219" lon="-0.19903">
        <ele>2673</ele>
        <time>2013-03-23T11:14:38Z</time>
      </trkpt>
      <trkpt lat="42.86217" lon="-0.19905">
        <ele>2674</ele>
        <time>2013-03-23T11:14:53Z</time>
      </trkpt>
      <trkpt lat="42.86217" lon="-0.19906">
        <ele>2674</ele>
        <time>2013-03-23T11:15:07Z</time>
      </trkpt>
      <trkpt lat="42.86218" lon="-0.19907">
        <ele>2673</ele>
        <time>2013-03-23T11:15:11Z</time>
      </trkpt>
      <trkpt lat="42.86221" lon="-0.19906">
        <ele>2671</ele>
        <time>2013-03-23T11:15:19Z</time>
      </trkpt>
      <trkpt lat="42.8622" lon="-0.19905">
        <ele>2670</ele>
        <time>2013-03-23T11:15:35Z</time>
      </trkpt>
      <trkpt lat="42.8622" lon="-0.19904">
        <ele>2669</ele>
        <time>2013-03-23T11:15:41Z</time>
      </trkpt>
      <trkpt lat="42.8622" lon="-0.19904">
        <ele>2671</ele>
        <time>2013-03-23T11:15:43Z</time>
      </trkpt>
      <trkpt lat="42.86222" lon="-0.19904">
        <ele>2669</ele>
        <time>2013-03-23T11:16:05Z</time>
      </trkpt>
      <trkpt lat="42.86224" lon="-0.199">
        <ele>2669</ele>
        <time>2013-03-23T11:16:29Z</time>
      </trkpt>
      <trkpt lat="42.86224" lon="-0.199">
        <ele>2670</ele>
        <time>2013-03-23T11:16:43Z</time>
      </trkpt>
      <trkpt lat="42.86224" lon="-0.19902">
        <ele>2668</ele>
        <time>2013-03-23T11:17:03Z</time>
      </trkpt>
      <trkpt lat="42.86223" lon="-0.19898">
        <ele>2668</ele>
        <time>2013-03-23T11:17:33Z</time>
      </trkpt>
      <trkpt lat="42.86225" lon="-0.19901">
        <ele>2669</ele>
        <time>2013-03-23T11:17:54Z</time>
      </trkpt>
      <trkpt lat="42.86227" lon="-0.19903">
        <ele>2669</ele>
        <time>2013-03-23T11:18:21Z</time>
      </trkpt>
      <trkpt lat="42.86228" lon="-0.19903">
        <ele>2669</ele>
        <time>2013-03-23T11:18:26Z</time>
      </trkpt>
      <trkpt lat="42.86232" lon="-0.19906">
        <ele>2665</ele>
        <time>2013-03-23T11:18:30Z</time>
      </trkpt>
      <trkpt lat="42.86242" lon="-0.19905">
        <ele>2662</ele>
        <time>2013-03-23T11:18:34Z</time>
      </trkpt>
      <trkpt lat="42.86245" lon="-0.19913">
        <ele>2658</ele>
        <time>2013-03-23T11:18:36Z</time>
      </trkpt>
      <trkpt lat="42.86255" lon="-0.19918">
        <ele>2654</ele>
        <time>2013-03-23T11:18:39Z</time>
      </trkpt>
      <trkpt lat="42.86258" lon="-0.1992">
        <ele>2652</ele>
        <time>2013-03-23T11:18:40Z</time>
      </trkpt>
      <trkpt lat="42.86261" lon="-0.19919">
        <ele>2650</ele>
        <time>2013-03-23T11:18:41Z</time>
      </trkpt>
      <trkpt lat="42.86265" lon="-0.19916">
        <ele>2649</ele>
        <time>2013-03-23T11:18:43Z</time>
      </trkpt>
      <trkpt lat="42.86268" lon="-0.19914">
        <ele>2648</ele>
        <time>2013-03-23T11:18:44Z</time>
      </trkpt>
      <trkpt lat="42.86273" lon="-0.19919">
        <ele>2644</ele>
        <time>2013-03-23T11:18:47Z</time>
      </trkpt>
      <trkpt lat="42.86277" lon="-0.19929">
        <ele>2639</ele>
        <time>2013-03-23T11:18:50Z</time>
      </trkpt>
      <trkpt lat="42.86282" lon="-0.19932">
        <ele>2635</ele>
        <time>2013-03-23T11:18:53Z</time>
      </trkpt>
      <trkpt lat="42.86301" lon="-0.19937">
        <ele>2630</ele>
        <time>2013-03-23T11:18:58Z</time>
      </trkpt>
      <trkpt lat="42.86308" lon="-0.19938">
        <ele>2626</ele>
        <time>2013-03-23T11:19:00Z</time>
      </trkpt>
      <trkpt lat="42.86314" lon="-0.19937">
        <ele>2625</ele>
        <time>2013-03-23T11:19:02Z</time>
      </trkpt>
      <trkpt lat="42.86318" lon="-0.19942">
        <ele>2621</ele>
        <time>2013-03-23T11:19:04Z</time>
      </trkpt>
      <trkpt lat="42.86316" lon="-0.19942">
        <ele>2620</ele>
        <time>2013-03-23T11:19:06Z</time>
      </trkpt>
      <trkpt lat="42.8631" lon="-0.19935">
        <ele>2621</ele>
        <time>2013-03-23T11:19:33Z</time>
      </trkpt>
      <trkpt lat="42.86309" lon="-0.19932">
        <ele>2621</ele>
        <time>2013-03-23T11:19:40Z</time>
      </trkpt>
      <trkpt lat="42.86306" lon="-0.19946">
        <ele>2618</ele>
        <time>2013-03-23T11:19:45Z</time>
      </trkpt>
      <trkpt lat="42.86311" lon="-0.19952">
        <ele>2616</ele>
        <time>2013-03-23T11:19:49Z</time>
      </trkpt>
      <trkpt lat="42.8632" lon="-0.19953">
        <ele>2613</ele>
        <time>2013-03-23T11:19:52Z</time>
      </trkpt>
      <trkpt lat="42.86323" lon="-0.19953">
        <ele>2610</ele>
        <time>2013-03-23T11:19:53Z</time>
      </trkpt>
      <trkpt lat="42.86332" lon="-0.19952">
        <ele>2606</ele>
        <time>2013-03-23T11:19:56Z</time>
      </trkpt>
      <trkpt lat="42.86338" lon="-0.19953">
        <ele>2602</ele>
        <time>2013-03-23T11:19:58Z</time>
      </trkpt>
      <trkpt lat="42.86343" lon="-0.19951">
        <ele>2600</ele>
        <time>2013-03-23T11:19:59Z</time>
      </trkpt>
      <trkpt lat="42.86348" lon="-0.1995">
        <ele>2597</ele>
        <time>2013-03-23T11:20:00Z</time>
      </trkpt>
      <trkpt lat="42.86352" lon="-0.19947">
        <ele>2597</ele>
        <time>2013-03-23T11:20:01Z</time>
      </trkpt>
      <trkpt lat="42.86357" lon="-0.19944">
        <ele>2594</ele>
        <time>2013-03-23T11:20:02Z</time>
      </trkpt>
      <trkpt lat="42.8636" lon="-0.19944">
        <ele>2590</ele>
        <time>2013-03-23T11:20:03Z</time>
      </trkpt>
      <trkpt lat="42.86367" lon="-0.19935">
        <ele>2587</ele>
        <time>2013-03-23T11:20:05Z</time>
      </trkpt>
      <trkpt lat="42.86376" lon="-0.1992">
        <ele>2580</ele>
        <time>2013-03-23T11:20:08Z</time>
      </trkpt>
      <trkpt lat="42.86381" lon="-0.19929">
        <ele>2577</ele>
        <time>2013-03-23T11:20:13Z</time>
      </trkpt>
      <trkpt lat="42.86384" lon="-0.19929">
        <ele>2577</ele>
        <time>2013-03-23T11:20:24Z</time>
      </trkpt>
      <trkpt lat="42.86396" lon="-0.19942">
        <ele>2572</ele>
        <time>2013-03-23T11:20:28Z</time>
      </trkpt>
      <trkpt lat="42.86413" lon="-0.19959">
        <ele>2567</ele>
        <time>2013-03-23T11:20:32Z</time>
      </trkpt>
      <trkpt lat="42.86419" lon="-0.19965">
        <ele>2566</ele>
        <time>2013-03-23T11:20:34Z</time>
      </trkpt>
      <trkpt lat="42.86427" lon="-0.19957">
        <ele>2563</ele>
        <time>2013-03-23T11:20:38Z</time>
      </trkpt>
      <trkpt lat="42.86437" lon="-0.19944">
        <ele>2557</ele>
        <time>2013-03-23T11:20:41Z</time>
      </trkpt>
      <trkpt lat="42.8644" lon="-0.19941">
        <ele>2553</ele>
        <time>2013-03-23T11:20:42Z</time>
      </trkpt>
      <trkpt lat="42.86443" lon="-0.19938">
        <ele>2550</ele>
        <time>2013-03-23T11:20:43Z</time>
      </trkpt>
      <trkpt lat="42.86451" lon="-0.19939">
        <ele>2544</ele>
        <time>2013-03-23T11:20:46Z</time>
      </trkpt>
      <trkpt lat="42.86455" lon="-0.19947">
        <ele>2541</ele>
        <time>2013-03-23T11:20:48Z</time>
      </trkpt>
      <trkpt lat="42.86456" lon="-0.19951">
        <ele>2539</ele>
        <time>2013-03-23T11:20:50Z</time>
      </trkpt>
      <trkpt lat="42.86457" lon="-0.1995">
        <ele>2541</ele>
        <time>2013-03-23T11:20:56Z</time>
      </trkpt>
      <trkpt lat="42.86467" lon="-0.19946">
        <ele>2536</ele>
        <time>2013-03-23T11:20:59Z</time>
      </trkpt>
      <trkpt lat="42.86473" lon="-0.1995">
        <ele>2532</ele>
        <time>2013-03-23T11:21:01Z</time>
      </trkpt>
      <trkpt lat="42.86479" lon="-0.19947">
        <ele>2525</ele>
        <time>2013-03-23T11:21:04Z</time>
      </trkpt>
      <trkpt lat="42.86481" lon="-0.19947">
        <ele>2524</ele>
        <time>2013-03-23T11:21:05Z</time>
      </trkpt>
      <trkpt lat="42.86485" lon="-0.19942">
        <ele>2520</ele>
        <time>2013-03-23T11:21:08Z</time>
      </trkpt>
      <trkpt lat="42.86498" lon="-0.19986">
        <ele>2520</ele>
        <time>2013-03-23T11:21:17Z</time>
      </trkpt>
      <trkpt lat="42.86502" lon="-0.19982">
        <ele>2517</ele>
        <time>2013-03-23T11:21:20Z</time>
      </trkpt>
      <trkpt lat="42.86504" lon="-0.19985">
        <ele>2513</ele>
        <time>2013-03-23T11:21:22Z</time>
      </trkpt>
      <trkpt lat="42.86508" lon="-0.19987">
        <ele>2513</ele>
        <time>2013-03-23T11:21:24Z</time>
      </trkpt>
      <trkpt lat="42.86513" lon="-0.19977">
        <ele>2508</ele>
        <time>2013-03-23T11:21:26Z</time>
      </trkpt>
      <trkpt lat="42.86518" lon="-0.19973">
        <ele>2501</ele>
        <time>2013-03-23T11:21:29Z</time>
      </trkpt>
      <trkpt lat="42.86519" lon="-0.19976">
        <ele>2500</ele>
        <time>2013-03-23T11:21:30Z</time>
      </trkpt>
      <trkpt lat="42.86521" lon="-0.1998">
        <ele>2500</ele>
        <time>2013-03-23T11:21:32Z</time>
      </trkpt>
      <trkpt lat="42.86523" lon="-0.19985">
        <ele>2496</ele>
        <time>2013-03-23T11:21:33Z</time>
      </trkpt>
      <trkpt lat="42.86523" lon="-0.19986">
        <ele>2494</ele>
        <time>2013-03-23T11:21:35Z</time>
      </trkpt>
      <trkpt lat="42.86532" lon="-0.2001">
        <ele>2494</ele>
        <time>2013-03-23T11:21:47Z</time>
      </trkpt>
      <trkpt lat="42.86534" lon="-0.20007">
        <ele>2493</ele>
        <time>2013-03-23T11:21:49Z</time>
      </trkpt>
      <trkpt lat="42.86537" lon="-0.20016">
        <ele>2490</ele>
        <time>2013-03-23T11:21:51Z</time>
      </trkpt>
      <trkpt lat="42.86545" lon="-0.20026">
        <ele>2487</ele>
        <time>2013-03-23T11:21:54Z</time>
      </trkpt>
      <trkpt lat="42.8655" lon="-0.20025">
        <ele>2482</ele>
        <time>2013-03-23T11:21:56Z</time>
      </trkpt>
      <trkpt lat="42.86557" lon="-0.20029">
        <ele>2479</ele>
        <time>2013-03-23T11:21:58Z</time>
      </trkpt>
      <trkpt lat="42.86559" lon="-0.20033">
        <ele>2476</ele>
        <time>2013-03-23T11:21:59Z</time>
      </trkpt>
      <trkpt lat="42.86564" lon="-0.20048">
        <ele>2471</ele>
        <time>2013-03-23T11:22:02Z</time>
      </trkpt>
      <trkpt lat="42.86569" lon="-0.2005">
        <ele>2466</ele>
        <time>2013-03-23T11:22:05Z</time>
      </trkpt>
      <trkpt lat="42.8657" lon="-0.20047">
        <ele>2465</ele>
        <time>2013-03-23T11:22:06Z</time>
      </trkpt>
      <trkpt lat="42.8658" lon="-0.20041">
        <ele>2461</ele>
        <time>2013-03-23T11:22:09Z</time>
      </trkpt>
      <trkpt lat="42.86581" lon="-0.2005">
        <ele>2456</ele>
        <time>2013-03-23T11:22:11Z</time>
      </trkpt>
      <trkpt lat="42.86575" lon="-0.20077">
        <ele>2452</ele>
        <time>2013-03-23T11:22:19Z</time>
      </trkpt>
      <trkpt lat="42.86572" lon="-0.20096">
        <ele>2454</ele>
        <time>2013-03-23T11:22:26Z</time>
      </trkpt>
      <trkpt lat="42.86573" lon="-0.20111">
        <ele>2451</ele>
        <time>2013-03-23T11:22:30Z</time>
      </trkpt>
      <trkpt lat="42.86575" lon="-0.20108">
        <ele>2449</ele>
        <time>2013-03-23T11:22:33Z</time>
      </trkpt>
      <trkpt lat="42.86582" lon="-0.20105">
        <ele>2443</ele>
        <time>2013-03-23T11:22:36Z</time>
      </trkpt>
      <trkpt lat="42.86589" lon="-0.20104">
        <ele>2438</ele>
        <time>2013-03-23T11:22:39Z</time>
      </trkpt>
      <trkpt lat="42.86594" lon="-0.201">
        <ele>2433</ele>
        <time>2013-03-23T11:22:41Z</time>
      </trkpt>
      <trkpt lat="42.86598" lon="-0.201">
        <ele>2431</ele>
        <time>2013-03-23T11:22:43Z</time>
      </trkpt>
      <trkpt lat="42.86603" lon="-0.20101">
        <ele>2428</ele>
        <time>2013-03-23T11:22:44Z</time>
      </trkpt>
      <trkpt lat="42.86605" lon="-0.20104">
        <ele>2426</ele>
        <time>2013-03-23T11:22:45Z</time>
      </trkpt>
      <trkpt lat="42.86609" lon="-0.20108">
        <ele>2425</ele>
        <time>2013-03-23T11:22:47Z</time>
      </trkpt>
      <trkpt lat="42.86618" lon="-0.2011">
        <ele>2420</ele>
        <time>2013-03-23T11:22:49Z</time>
      </trkpt>
      <trkpt lat="42.86621" lon="-0.20118">
        <ele>2416</ele>
        <time>2013-03-23T11:22:51Z</time>
      </trkpt>
      <trkpt lat="42.86621" lon="-0.20128">
        <ele>2416</ele>
        <time>2013-03-23T11:22:53Z</time>
      </trkpt>
      <trkpt lat="42.86624" lon="-0.20134">
        <ele>2414</ele>
        <time>2013-03-23T11:22:55Z</time>
      </trkpt>
      <trkpt lat="42.8663" lon="-0.20141">
        <ele>2414</ele>
        <time>2013-03-23T11:22:57Z</time>
      </trkpt>
      <trkpt lat="42.86641" lon="-0.20136">
        <ele>2408</ele>
        <time>2013-03-23T11:23:00Z</time>
      </trkpt>
      <trkpt lat="42.86648" lon="-0.20148">
        <ele>2406</ele>
        <time>2013-03-23T11:23:03Z</time>
      </trkpt>
      <trkpt lat="42.86652" lon="-0.20152">
        <ele>2407</ele>
        <time>2013-03-23T11:23:04Z</time>
      </trkpt>
      <trkpt lat="42.86656" lon="-0.20148">
        <ele>2404</ele>
        <time>2013-03-23T11:23:06Z</time>
      </trkpt>
      <trkpt lat="42.86667" lon="-0.20137">
        <ele>2401</ele>
        <time>2013-03-23T11:23:07Z</time>
      </trkpt>
      <trkpt lat="42.86679" lon="-0.20135">
        <ele>2398</ele>
        <time>2013-03-23T11:23:09Z</time>
      </trkpt>
      <trkpt lat="42.8669" lon="-0.2011">
        <ele>2403</ele>
        <time>2013-03-23T11:34:30Z</time>
      </trkpt>
      <trkpt lat="42.86679" lon="-0.20105">
        <ele>2405</ele>
        <time>2013-03-23T11:34:50Z</time>
      </trkpt>
      <trkpt lat="42.86673" lon="-0.20113">
        <ele>2407</ele>
        <time>2013-03-23T11:35:01Z</time>
      </trkpt>
      <trkpt lat="42.86672" lon="-0.20122">
        <ele>2409</ele>
        <time>2013-03-23T11:35:12Z</time>
      </trkpt>
      <trkpt lat="42.86672" lon="-0.20136">
        <ele>2411</ele>
        <time>2013-03-23T11:35:27Z</time>
      </trkpt>
      <trkpt lat="42.86674" lon="-0.20145">
        <ele>2414</ele>
        <time>2013-03-23T11:35:44Z</time>
      </trkpt>
      <trkpt lat="42.86674" lon="-0.20151">
        <ele>2416</ele>
        <time>2013-03-23T11:36:01Z</time>
      </trkpt>
      <trkpt lat="42.8667" lon="-0.20153">
        <ele>2419</ele>
        <time>2013-03-23T11:36:20Z</time>
      </trkpt>
      <trkpt lat="42.86664" lon="-0.20153">
        <ele>2421</ele>
        <time>2013-03-23T11:36:36Z</time>
      </trkpt>
      <trkpt lat="42.86662" lon="-0.20153">
        <ele>2422</ele>
        <time>2013-03-23T11:36:40Z</time>
      </trkpt>
      <trkpt lat="42.86659" lon="-0.20152">
        <ele>2423</ele>
        <time>2013-03-23T11:36:52Z</time>
      </trkpt>
      <trkpt lat="42.86658" lon="-0.2016">
        <ele>2423</ele>
        <time>2013-03-23T11:37:05Z</time>
      </trkpt>
      <trkpt lat="42.86657" lon="-0.20164">
        <ele>2425</ele>
        <time>2013-03-23T11:37:13Z</time>
      </trkpt>
      <trkpt lat="42.86659" lon="-0.20177">
        <ele>2427</ele>
        <time>2013-03-23T11:37:32Z</time>
      </trkpt>
      <trkpt lat="42.86662" lon="-0.20185">
        <ele>2428</ele>
        <time>2013-03-23T11:37:48Z</time>
      </trkpt>
      <trkpt lat="42.86657" lon="-0.20185">
        <ele>2431</ele>
        <time>2013-03-23T11:37:57Z</time>
      </trkpt>
      <trkpt lat="42.86653" lon="-0.20185">
        <ele>2432</ele>
        <time>2013-03-23T11:38:08Z</time>
      </trkpt>
      <trkpt lat="42.86648" lon="-0.20184">
        <ele>2435</ele>
        <time>2013-03-23T11:38:22Z</time>
      </trkpt>
      <trkpt lat="42.86642" lon="-0.20185">
        <ele>2437</ele>
        <time>2013-03-23T11:38:37Z</time>
      </trkpt>
      <trkpt lat="42.86642" lon="-0.20196">
        <ele>2438</ele>
        <time>2013-03-23T11:38:52Z</time>
      </trkpt>
      <trkpt lat="42.86645" lon="-0.20208">
        <ele>2441</ele>
        <time>2013-03-23T11:39:10Z</time>
      </trkpt>
      <trkpt lat="42.86649" lon="-0.20217">
        <ele>2442</ele>
        <time>2013-03-23T11:39:23Z</time>
      </trkpt>
      <trkpt lat="42.86652" lon="-0.20221">
        <ele>2444</ele>
        <time>2013-03-23T11:39:30Z</time>
      </trkpt>
      <trkpt lat="42.8665" lon="-0.2022">
        <ele>2445</ele>
        <time>2013-03-23T11:39:38Z</time>
      </trkpt>
      <trkpt lat="42.86648" lon="-0.20219">
        <ele>2446</ele>
        <time>2013-03-23T11:39:44Z</time>
      </trkpt>
      <trkpt lat="42.86642" lon="-0.2022">
        <ele>2448</ele>
        <time>2013-03-23T11:39:59Z</time>
      </trkpt>
      <trkpt lat="42.86633" lon="-0.20221">
        <ele>2450</ele>
        <time>2013-03-23T11:40:15Z</time>
      </trkpt>
      <trkpt lat="42.86626" lon="-0.2022">
        <ele>2453</ele>
        <time>2013-03-23T11:40:30Z</time>
      </trkpt>
      <trkpt lat="42.86624" lon="-0.2023">
        <ele>2454</ele>
        <time>2013-03-23T11:40:42Z</time>
      </trkpt>
      <trkpt lat="42.86623" lon="-0.20239">
        <ele>2457</ele>
        <time>2013-03-23T11:40:55Z</time>
      </trkpt>
      <trkpt lat="42.86625" lon="-0.20246">
        <ele>2460</ele>
        <time>2013-03-23T11:41:08Z</time>
      </trkpt>
      <trkpt lat="42.86626" lon="-0.20247">
        <ele>2460</ele>
        <time>2013-03-23T11:41:22Z</time>
      </trkpt>
      <trkpt lat="42.86621" lon="-0.20248">
        <ele>2463</ele>
        <time>2013-03-23T11:41:33Z</time>
      </trkpt>
      <trkpt lat="42.86621" lon="-0.20248">
        <ele>2463</ele>
        <time>2013-03-23T11:41:34Z</time>
      </trkpt>
      <trkpt lat="42.86612" lon="-0.20251">
        <ele>2465</ele>
        <time>2013-03-23T11:41:50Z</time>
      </trkpt>
      <trkpt lat="42.86605" lon="-0.20249">
        <ele>2467</ele>
        <time>2013-03-23T11:42:04Z</time>
      </trkpt>
      <trkpt lat="42.86599" lon="-0.20247">
        <ele>2468</ele>
        <time>2013-03-23T11:42:12Z</time>
      </trkpt>
      <trkpt lat="42.86598" lon="-0.20255">
        <ele>2469</ele>
        <time>2013-03-23T11:42:23Z</time>
      </trkpt>
      <trkpt lat="42.86599" lon="-0.20264">
        <ele>2471</ele>
        <time>2013-03-23T11:42:35Z</time>
      </trkpt>
      <trkpt lat="42.86602" lon="-0.2027">
        <ele>2472</ele>
        <time>2013-03-23T11:42:49Z</time>
      </trkpt>
      <trkpt lat="42.86602" lon="-0.20271">
        <ele>2471</ele>
        <time>2013-03-23T11:42:52Z</time>
      </trkpt>
      <trkpt lat="42.866" lon="-0.20271">
        <ele>2473</ele>
        <time>2013-03-23T11:43:04Z</time>
      </trkpt>
      <trkpt lat="42.86593" lon="-0.2027">
        <ele>2475</ele>
        <time>2013-03-23T11:43:18Z</time>
      </trkpt>
      <trkpt lat="42.86591" lon="-0.20269">
        <ele>2476</ele>
        <time>2013-03-23T11:43:21Z</time>
      </trkpt>
      <trkpt lat="42.86583" lon="-0.20264">
        <ele>2479</ele>
        <time>2013-03-23T11:43:34Z</time>
      </trkpt>
      <trkpt lat="42.86576" lon="-0.20259">
        <ele>2481</ele>
        <time>2013-03-23T11:43:47Z</time>
      </trkpt>
      <trkpt lat="42.86574" lon="-0.20264">
        <ele>2481</ele>
        <time>2013-03-23T11:44:02Z</time>
      </trkpt>
      <trkpt lat="42.86575" lon="-0.20278">
        <ele>2483</ele>
        <time>2013-03-23T11:44:17Z</time>
      </trkpt>
      <trkpt lat="42.86575" lon="-0.20281">
        <ele>2483</ele>
        <time>2013-03-23T11:44:20Z</time>
      </trkpt>
      <trkpt lat="42.86578" lon="-0.20295">
        <ele>2485</ele>
        <time>2013-03-23T11:44:35Z</time>
      </trkpt>
      <trkpt lat="42.86583" lon="-0.20306">
        <ele>2488</ele>
        <time>2013-03-23T11:44:50Z</time>
      </trkpt>
      <trkpt lat="42.86584" lon="-0.20307">
        <ele>2488</ele>
        <time>2013-03-23T11:44:52Z</time>
      </trkpt>
      <trkpt lat="42.86582" lon="-0.20307">
        <ele>2489</ele>
        <time>2013-03-23T11:45:01Z</time>
      </trkpt>
      <trkpt lat="42.86574" lon="-0.20304">
        <ele>2491</ele>
        <time>2013-03-23T11:45:16Z</time>
      </trkpt>
      <trkpt lat="42.86568" lon="-0.20302">
        <ele>2494</ele>
        <time>2013-03-23T11:45:26Z</time>
      </trkpt>
      <trkpt lat="42.86566" lon="-0.20301">
        <ele>2496</ele>
        <time>2013-03-23T11:45:31Z</time>
      </trkpt>
      <trkpt lat="42.86565" lon="-0.20302">
        <ele>2496</ele>
        <time>2013-03-23T11:45:34Z</time>
      </trkpt>
      <trkpt lat="42.86566" lon="-0.20315">
        <ele>2497</ele>
        <time>2013-03-23T11:45:49Z</time>
      </trkpt>
      <trkpt lat="42.86568" lon="-0.2032">
        <ele>2497</ele>
        <time>2013-03-23T11:45:54Z</time>
      </trkpt>
      <trkpt lat="42.86571" lon="-0.20326">
        <ele>2498</ele>
        <time>2013-03-23T11:46:08Z</time>
      </trkpt>
      <trkpt lat="42.86572" lon="-0.20325">
        <ele>2499</ele>
        <time>2013-03-23T11:46:12Z</time>
      </trkpt>
      <trkpt lat="42.86568" lon="-0.20323">
        <ele>2499</ele>
        <time>2013-03-23T11:46:23Z</time>
      </trkpt>
      <trkpt lat="42.86561" lon="-0.20323">
        <ele>2501</ele>
        <time>2013-03-23T11:46:38Z</time>
      </trkpt>
      <trkpt lat="42.86555" lon="-0.20323">
        <ele>2504</ele>
        <time>2013-03-23T11:46:51Z</time>
      </trkpt>
      <trkpt lat="42.86555" lon="-0.20325">
        <ele>2505</ele>
        <time>2013-03-23T11:46:55Z</time>
      </trkpt>
      <trkpt lat="42.86557" lon="-0.2034">
        <ele>2508</ele>
        <time>2013-03-23T11:47:11Z</time>
      </trkpt>
      <trkpt lat="42.86553" lon="-0.20343">
        <ele>2508</ele>
        <time>2013-03-23T11:47:24Z</time>
      </trkpt>
      <trkpt lat="42.86553" lon="-0.20343">
        <ele>2508</ele>
        <time>2013-03-23T11:47:29Z</time>
      </trkpt>
      <trkpt lat="42.86547" lon="-0.20341">
        <ele>2510</ele>
        <time>2013-03-23T11:47:42Z</time>
      </trkpt>
      <trkpt lat="42.86542" lon="-0.20339">
        <ele>2512</ele>
        <time>2013-03-23T11:47:54Z</time>
      </trkpt>
      <trkpt lat="42.8654" lon="-0.20338">
        <ele>2513</ele>
        <time>2013-03-23T11:47:58Z</time>
      </trkpt>
      <trkpt lat="42.86539" lon="-0.20338">
        <ele>2513</ele>
        <time>2013-03-23T11:47:59Z</time>
      </trkpt>
      <trkpt lat="42.86534" lon="-0.20331">
        <ele>2515</ele>
        <time>2013-03-23T11:48:14Z</time>
      </trkpt>
      <trkpt lat="42.86534" lon="-0.20327">
        <ele>2515</ele>
        <time>2013-03-23T11:48:26Z</time>
      </trkpt>
      <trkpt lat="42.86532" lon="-0.20332">
        <ele>2516</ele>
        <time>2013-03-23T11:48:37Z</time>
      </trkpt>
      <trkpt lat="42.86532" lon="-0.20348">
        <ele>2519</ele>
        <time>2013-03-23T11:48:51Z</time>
      </trkpt>
      <trkpt lat="42.86533" lon="-0.20356">
        <ele>2520</ele>
        <time>2013-03-23T11:49:00Z</time>
      </trkpt>
      <trkpt lat="42.86536" lon="-0.20361">
        <ele>2522</ele>
        <time>2013-03-23T11:49:13Z</time>
      </trkpt>
      <trkpt lat="42.86533" lon="-0.20357">
        <ele>2521</ele>
        <time>2013-03-23T11:49:24Z</time>
      </trkpt>
      <trkpt lat="42.86533" lon="-0.20356">
        <ele>2522</ele>
        <time>2013-03-23T11:49:25Z</time>
      </trkpt>
      <trkpt lat="42.86526" lon="-0.20352">
        <ele>2524</ele>
        <time>2013-03-23T11:49:38Z</time>
      </trkpt>
      <trkpt lat="42.86527" lon="-0.20357">
        <ele>2525</ele>
        <time>2013-03-23T11:49:50Z</time>
      </trkpt>
      <trkpt lat="42.86529" lon="-0.20363">
        <ele>2526</ele>
        <time>2013-03-23T11:49:56Z</time>
      </trkpt>
      <trkpt lat="42.86531" lon="-0.20368">
        <ele>2527</ele>
        <time>2013-03-23T11:50:08Z</time>
      </trkpt>
      <trkpt lat="42.8653" lon="-0.20364">
        <ele>2527</ele>
        <time>2013-03-23T11:50:20Z</time>
      </trkpt>
      <trkpt lat="42.86525" lon="-0.20357">
        <ele>2529</ele>
        <time>2013-03-23T11:50:31Z</time>
      </trkpt>
      <trkpt lat="42.8652" lon="-0.20359">
        <ele>2531</ele>
        <time>2013-03-23T11:50:45Z</time>
      </trkpt>
      <trkpt lat="42.86519" lon="-0.20365">
        <ele>2532</ele>
        <time>2013-03-23T11:50:50Z</time>
      </trkpt>
      <trkpt lat="42.86517" lon="-0.20371">
        <ele>2533</ele>
        <time>2013-03-23T11:51:05Z</time>
      </trkpt>
      <trkpt lat="42.86514" lon="-0.20369">
        <ele>2534</ele>
        <time>2013-03-23T11:51:19Z</time>
      </trkpt>
      <trkpt lat="42.86511" lon="-0.20369">
        <ele>2537</ele>
        <time>2013-03-23T11:51:31Z</time>
      </trkpt>
      <trkpt lat="42.86505" lon="-0.20365">
        <ele>2538</ele>
        <time>2013-03-23T11:51:45Z</time>
      </trkpt>
      <trkpt lat="42.86504" lon="-0.20373">
        <ele>2539</ele>
        <time>2013-03-23T11:51:58Z</time>
      </trkpt>
      <trkpt lat="42.86503" lon="-0.20375">
        <ele>2541</ele>
        <time>2013-03-23T11:52:13Z</time>
      </trkpt>
      <trkpt lat="42.86498" lon="-0.20368">
        <ele>2544</ele>
        <time>2013-03-23T11:52:28Z</time>
      </trkpt>
      <trkpt lat="42.86494" lon="-0.20368">
        <ele>2545</ele>
        <time>2013-03-23T11:52:40Z</time>
      </trkpt>
      <trkpt lat="42.86493" lon="-0.20374">
        <ele>2546</ele>
        <time>2013-03-23T11:52:50Z</time>
      </trkpt>
      <trkpt lat="42.86495" lon="-0.20372">
        <ele>2546</ele>
        <time>2013-03-23T11:53:06Z</time>
      </trkpt>
      <trkpt lat="42.86494" lon="-0.20377">
        <ele>2546</ele>
        <time>2013-03-23T11:53:18Z</time>
      </trkpt>
      <trkpt lat="42.86495" lon="-0.20378">
        <ele>2545</ele>
        <time>2013-03-23T11:53:35Z</time>
      </trkpt>
      <trkpt lat="42.86495" lon="-0.20376">
        <ele>2545</ele>
        <time>2013-03-23T11:53:54Z</time>
      </trkpt>
      <trkpt lat="42.86498" lon="-0.20373">
        <ele>2545</ele>
        <time>2013-03-23T11:54:13Z</time>
      </trkpt>
      <trkpt lat="42.86497" lon="-0.20375">
        <ele>2541</ele>
        <time>2013-03-23T11:54:18Z</time>
      </trkpt>
      <trkpt lat="42.86497" lon="-0.20375">
        <ele>2543</ele>
        <time>2013-03-23T11:54:19Z</time>
      </trkpt>
      <trkpt lat="42.86497" lon="-0.20375">
        <ele>2544</ele>
        <time>2013-03-23T11:54:21Z</time>
      </trkpt>
      <trkpt lat="42.86497" lon="-0.20374">
        <ele>2548</ele>
        <time>2013-03-23T11:54:22Z</time>
      </trkpt>
      <trkpt lat="42.86496" lon="-0.20374">
        <ele>2545</ele>
        <time>2013-03-23T11:54:23Z</time>
      </trkpt>
      <trkpt lat="42.86494" lon="-0.20376">
        <ele>2544</ele>
        <time>2013-03-23T11:54:31Z</time>
      </trkpt>
      <trkpt lat="42.86494" lon="-0.20376">
        <ele>2544</ele>
        <time>2013-03-23T11:55:02Z</time>
      </trkpt>
      <trkpt lat="42.86494" lon="-0.20374">
        <ele>2544</ele>
        <time>2013-03-23T11:55:32Z</time>
      </trkpt>
      <trkpt lat="42.86495" lon="-0.20375">
        <ele>2544</ele>
        <time>2013-03-23T11:56:02Z</time>
      </trkpt>
      <trkpt lat="42.86494" lon="-0.20377">
        <ele>2543</ele>
        <time>2013-03-23T11:56:37Z</time>
      </trkpt>
      <trkpt lat="42.86495" lon="-0.20377">
        <ele>2543</ele>
        <time>2013-03-23T11:57:09Z</time>
      </trkpt>
      <trkpt lat="42.86495" lon="-0.20378">
        <ele>2544</ele>
        <time>2013-03-23T11:57:42Z</time>
      </trkpt>
      <trkpt lat="42.86495" lon="-0.20378">
        <ele>2544</ele>
        <time>2013-03-23T11:58:17Z</time>
      </trkpt>
      <trkpt lat="42.86494" lon="-0.20377">
        <ele>2543</ele>
        <time>2013-03-23T11:58:54Z</time>
      </trkpt>
      <trkpt lat="42.86496" lon="-0.20379">
        <ele>2541</ele>
        <time>2013-03-23T11:59:23Z</time>
      </trkpt>
      <trkpt lat="42.86495" lon="-0.20379">
        <ele>2541</ele>
        <time>2013-03-23T11:59:31Z</time>
      </trkpt>
      <trkpt lat="42.86495" lon="-0.20378">
        <ele>2542</ele>
        <time>2013-03-23T11:59:33Z</time>
      </trkpt>
      <trkpt lat="42.86495" lon="-0.20379">
        <ele>2542</ele>
        <time>2013-03-23T12:00:15Z</time>
      </trkpt>
      <trkpt lat="42.86493" lon="-0.20378">
        <ele>2541</ele>
        <time>2013-03-23T12:00:50Z</time>
      </trkpt>
      <trkpt lat="42.86496" lon="-0.20382">
        <ele>2541</ele>
        <time>2013-03-23T12:01:31Z</time>
      </trkpt>
      <trkpt lat="42.86492" lon="-0.20385">
        <ele>2541</ele>
        <time>2013-03-23T12:02:19Z</time>
      </trkpt>
      <trkpt lat="42.86492" lon="-0.20391">
        <ele>2542</ele>
        <time>2013-03-23T12:02:57Z</time>
      </trkpt>
      <trkpt lat="42.86492" lon="-0.20391">
        <ele>2542</ele>
        <time>2013-03-23T12:03:39Z</time>
      </trkpt>
      <trkpt lat="42.86492" lon="-0.20385">
        <ele>2544</ele>
        <time>2013-03-23T12:04:18Z</time>
      </trkpt>
      <trkpt lat="42.86494" lon="-0.20384">
        <ele>2547</ele>
        <time>2013-03-23T12:04:36Z</time>
      </trkpt>
      <trkpt lat="42.86495" lon="-0.20385">
        <ele>2546</ele>
        <time>2013-03-23T12:04:59Z</time>
      </trkpt>
      <trkpt lat="42.86492" lon="-0.20381">
        <ele>2543</ele>
        <time>2013-03-23T12:05:18Z</time>
      </trkpt>
      <trkpt lat="42.86494" lon="-0.20379">
        <ele>2540</ele>
        <time>2013-03-23T12:05:51Z</time>
      </trkpt>
      <trkpt lat="42.86494" lon="-0.2038">
        <ele>2542</ele>
        <time>2013-03-23T12:05:59Z</time>
      </trkpt>
      <trkpt lat="42.8649" lon="-0.20393">
        <ele>2542</ele>
        <time>2013-03-23T12:06:36Z</time>
      </trkpt>
      <trkpt lat="42.86491" lon="-0.20391">
        <ele>2545</ele>
        <time>2013-03-23T12:06:38Z</time>
      </trkpt>
      <trkpt lat="42.86491" lon="-0.20391">
        <ele>2544</ele>
        <time>2013-03-23T12:06:39Z</time>
      </trkpt>
      <trkpt lat="42.86491" lon="-0.2039">
        <ele>2542</ele>
        <time>2013-03-23T12:06:41Z</time>
      </trkpt>
      <trkpt lat="42.86493" lon="-0.20379">
        <ele>2541</ele>
        <time>2013-03-23T12:07:18Z</time>
      </trkpt>
      <trkpt lat="42.86495" lon="-0.20378">
        <ele>2542</ele>
        <time>2013-03-23T12:07:59Z</time>
      </trkpt>
      <trkpt lat="42.86491" lon="-0.20375">
        <ele>2542</ele>
        <time>2013-03-23T12:08:23Z</time>
      </trkpt>
      <trkpt lat="42.86487" lon="-0.20379">
        <ele>2544</ele>
        <time>2013-03-23T12:08:42Z</time>
      </trkpt>
      <trkpt lat="42.86488" lon="-0.20377">
        <ele>2543</ele>
        <time>2013-03-23T12:08:55Z</time>
      </trkpt>
      <trkpt lat="42.86488" lon="-0.20378">
        <ele>2544</ele>
        <time>2013-03-23T12:09:01Z</time>
      </trkpt>
      <trkpt lat="42.86487" lon="-0.20381">
        <ele>2543</ele>
        <time>2013-03-23T12:09:14Z</time>
      </trkpt>
      <trkpt lat="42.8649" lon="-0.20379">
        <ele>2544</ele>
        <time>2013-03-23T12:09:22Z</time>
      </trkpt>
      <trkpt lat="42.86492" lon="-0.2038">
        <ele>2543</ele>
        <time>2013-03-23T12:09:38Z</time>
      </trkpt>
      <trkpt lat="42.86493" lon="-0.20379">
        <ele>2543</ele>
        <time>2013-03-23T12:09:50Z</time>
      </trkpt>
      <trkpt lat="42.86492" lon="-0.20377">
        <ele>2541</ele>
        <time>2013-03-23T12:10:13Z</time>
      </trkpt>
      <trkpt lat="42.8649" lon="-0.20377">
        <ele>2542</ele>
        <time>2013-03-23T12:10:31Z</time>
      </trkpt>
      <trkpt lat="42.8649" lon="-0.20378">
        <ele>2541</ele>
        <time>2013-03-23T12:10:43Z</time>
      </trkpt>
      <trkpt lat="42.86493" lon="-0.20371">
        <ele>2540</ele>
        <time>2013-03-23T12:10:47Z</time>
      </trkpt>
      <trkpt lat="42.86499" lon="-0.20372">
        <ele>2536</ele>
        <time>2013-03-23T12:10:50Z</time>
      </trkpt>
      <trkpt lat="42.86506" lon="-0.20372">
        <ele>2533</ele>
        <time>2013-03-23T12:10:54Z</time>
      </trkpt>
      <trkpt lat="42.86508" lon="-0.20372">
        <ele>2532</ele>
        <time>2013-03-23T12:10:55Z</time>
      </trkpt>
      <trkpt lat="42.86513" lon="-0.20367">
        <ele>2529</ele>
        <time>2013-03-23T12:10:57Z</time>
      </trkpt>
      <trkpt lat="42.86519" lon="-0.20359">
        <ele>2526</ele>
        <time>2013-03-23T12:10:59Z</time>
      </trkpt>
      <trkpt lat="42.8652" lon="-0.20347">
        <ele>2521</ele>
        <time>2013-03-23T12:11:02Z</time>
      </trkpt>
      <trkpt lat="42.8652" lon="-0.20344">
        <ele>2521</ele>
        <time>2013-03-23T12:11:03Z</time>
      </trkpt>
      <trkpt lat="42.86524" lon="-0.20329">
        <ele>2517</ele>
        <time>2013-03-23T12:11:06Z</time>
      </trkpt>
      <trkpt lat="42.86526" lon="-0.20307">
        <ele>2510</ele>
        <time>2013-03-23T12:11:09Z</time>
      </trkpt>
      <trkpt lat="42.86527" lon="-0.203">
        <ele>2507</ele>
        <time>2013-03-23T12:11:10Z</time>
      </trkpt>
      <trkpt lat="42.86538" lon="-0.20294">
        <ele>2501</ele>
        <time>2013-03-23T12:11:13Z</time>
      </trkpt>
      <trkpt lat="42.86538" lon="-0.20283">
        <ele>2498</ele>
        <time>2013-03-23T12:11:15Z</time>
      </trkpt>
      <trkpt lat="42.8654" lon="-0.20271">
        <ele>2496</ele>
        <time>2013-03-23T12:11:18Z</time>
      </trkpt>
      <trkpt lat="42.86541" lon="-0.20268">
        <ele>2495</ele>
        <time>2013-03-23T12:11:19Z</time>
      </trkpt>
      <trkpt lat="42.86547" lon="-0.20254">
        <ele>2490</ele>
        <time>2013-03-23T12:11:22Z</time>
      </trkpt>
      <trkpt lat="42.86551" lon="-0.20247">
        <ele>2487</ele>
        <time>2013-03-23T12:11:24Z</time>
      </trkpt>
      <trkpt lat="42.86549" lon="-0.20236">
        <ele>2483</ele>
        <time>2013-03-23T12:11:26Z</time>
      </trkpt>
      <trkpt lat="42.8655" lon="-0.2023">
        <ele>2482</ele>
        <time>2013-03-23T12:11:27Z</time>
      </trkpt>
      <trkpt lat="42.86561" lon="-0.20228">
        <ele>2478</ele>
        <time>2013-03-23T12:11:29Z</time>
      </trkpt>
      <trkpt lat="42.86561" lon="-0.20219">
        <ele>2475</ele>
        <time>2013-03-23T12:11:30Z</time>
      </trkpt>
      <trkpt lat="42.86567" lon="-0.20214">
        <ele>2473</ele>
        <time>2013-03-23T12:11:32Z</time>
      </trkpt>
      <trkpt lat="42.86571" lon="-0.20207">
        <ele>2471</ele>
        <time>2013-03-23T12:11:34Z</time>
      </trkpt>
      <trkpt lat="42.86573" lon="-0.20203">
        <ele>2470</ele>
        <time>2013-03-23T12:11:35Z</time>
      </trkpt>
      <trkpt lat="42.86572" lon="-0.20198">
        <ele>2468</ele>
        <time>2013-03-23T12:11:36Z</time>
      </trkpt>
      <trkpt lat="42.8657" lon="-0.20193">
        <ele>2467</ele>
        <time>2013-03-23T12:11:37Z</time>
      </trkpt>
      <trkpt lat="42.86561" lon="-0.20179">
        <ele>2465</ele>
        <time>2013-03-23T12:11:40Z</time>
      </trkpt>
      <trkpt lat="42.86559" lon="-0.20174">
        <ele>2464</ele>
        <time>2013-03-23T12:11:42Z</time>
      </trkpt>
      <trkpt lat="42.8656" lon="-0.2017">
        <ele>2463</ele>
        <time>2013-03-23T12:11:43Z</time>
      </trkpt>
      <trkpt lat="42.86569" lon="-0.20162">
        <ele>2459</ele>
        <time>2013-03-23T12:11:46Z</time>
      </trkpt>
      <trkpt lat="42.86576" lon="-0.20161">
        <ele>2456</ele>
        <time>2013-03-23T12:11:48Z</time>
      </trkpt>
      <trkpt lat="42.86579" lon="-0.20157">
        <ele>2455</ele>
        <time>2013-03-23T12:11:49Z</time>
      </trkpt>
      <trkpt lat="42.8658" lon="-0.20156">
        <ele>2454</ele>
        <time>2013-03-23T12:11:50Z</time>
      </trkpt>
      <trkpt lat="42.86594" lon="-0.20158">
        <ele>2450</ele>
        <time>2013-03-23T12:11:53Z</time>
      </trkpt>
      <trkpt lat="42.86598" lon="-0.20162">
        <ele>2447</ele>
        <time>2013-03-23T12:11:54Z</time>
      </trkpt>
      <trkpt lat="42.86599" lon="-0.20161">
        <ele>2446</ele>
        <time>2013-03-23T12:11:55Z</time>
      </trkpt>
      <trkpt lat="42.86612" lon="-0.20161">
        <ele>2442</ele>
        <time>2013-03-23T12:11:59Z</time>
      </trkpt>
      <trkpt lat="42.86621" lon="-0.20158">
        <ele>2437</ele>
        <time>2013-03-23T12:12:02Z</time>
      </trkpt>
      <trkpt lat="42.86625" lon="-0.20163">
        <ele>2433</ele>
        <time>2013-03-23T12:12:04Z</time>
      </trkpt>
      <trkpt lat="42.86627" lon="-0.20166">
        <ele>2433</ele>
        <time>2013-03-23T12:12:05Z</time>
      </trkpt>
      <trkpt lat="42.86636" lon="-0.20187">
        <ele>2435</ele>
        <time>2013-03-23T12:12:23Z</time>
      </trkpt>
      <trkpt lat="42.86639" lon="-0.20193">
        <ele>2434</ele>
        <time>2013-03-23T12:12:27Z</time>
      </trkpt>
      <trkpt lat="42.86642" lon="-0.20202">
        <ele>2434</ele>
        <time>2013-03-23T12:12:30Z</time>
      </trkpt>
      <trkpt lat="42.86642" lon="-0.20193">
        <ele>2429</ele>
        <time>2013-03-23T12:12:34Z</time>
      </trkpt>
      <trkpt lat="42.86645" lon="-0.20181">
        <ele>2424</ele>
        <time>2013-03-23T12:12:37Z</time>
      </trkpt>
      <trkpt lat="42.86648" lon="-0.20178">
        <ele>2421</ele>
        <time>2013-03-23T12:12:38Z</time>
      </trkpt>
      <trkpt lat="42.86652" lon="-0.20178">
        <ele>2419</ele>
        <time>2013-03-23T12:12:40Z</time>
      </trkpt>
      <trkpt lat="42.86655" lon="-0.20177">
        <ele>2418</ele>
        <time>2013-03-23T12:12:41Z</time>
      </trkpt>
      <trkpt lat="42.86657" lon="-0.20171">
        <ele>2415</ele>
        <time>2013-03-23T12:12:42Z</time>
      </trkpt>
      <trkpt lat="42.86663" lon="-0.20164">
        <ele>2410</ele>
        <time>2013-03-23T12:12:44Z</time>
      </trkpt>
      <trkpt lat="42.86667" lon="-0.20163">
        <ele>2409</ele>
        <time>2013-03-23T12:12:45Z</time>
      </trkpt>
      <trkpt lat="42.86671" lon="-0.20162">
        <ele>2407</ele>
        <time>2013-03-23T12:12:46Z</time>
      </trkpt>
      <trkpt lat="42.86673" lon="-0.20159">
        <ele>2405</ele>
        <time>2013-03-23T12:12:47Z</time>
      </trkpt>
      <trkpt lat="42.86672" lon="-0.20147">
        <ele>2403</ele>
        <time>2013-03-23T12:12:50Z</time>
      </trkpt>
      <trkpt lat="42.86674" lon="-0.20148">
        <ele>2400</ele>
        <time>2013-03-23T12:12:51Z</time>
      </trkpt>
      <trkpt lat="42.86682" lon="-0.20148">
        <ele>2397</ele>
        <time>2013-03-23T12:12:53Z</time>
      </trkpt>
      <trkpt lat="42.86683" lon="-0.20145">
        <ele>2396</ele>
        <time>2013-03-23T12:12:54Z</time>
      </trkpt>
      <trkpt lat="42.86684" lon="-0.20124">
        <ele>2392</ele>
        <time>2013-03-23T12:12:58Z</time>
      </trkpt>
      <trkpt lat="42.86686" lon="-0.20104">
        <ele>2390</ele>
        <time>2013-03-23T12:13:02Z</time>
      </trkpt>
      <trkpt lat="42.86696" lon="-0.20093">
        <ele>2385</ele>
        <time>2013-03-23T12:13:05Z</time>
      </trkpt>
      <trkpt lat="42.867" lon="-0.20084">
        <ele>2382</ele>
        <time>2013-03-23T12:13:07Z</time>
      </trkpt>
      <trkpt lat="42.867" lon="-0.20083">
        <ele>2382</ele>
        <time>2013-03-23T12:13:08Z</time>
      </trkpt>
      <trkpt lat="42.86701" lon="-0.20085">
        <ele>2381</ele>
        <time>2013-03-23T12:13:17Z</time>
      </trkpt>
      <trkpt lat="42.86718" lon="-0.20071">
        <ele>2376</ele>
        <time>2013-03-23T12:13:23Z</time>
      </trkpt>
      <trkpt lat="42.86727" lon="-0.20068">
        <ele>2372</ele>
        <time>2013-03-23T12:13:25Z</time>
      </trkpt>
      <trkpt lat="42.86737" lon="-0.20066">
        <ele>2368</ele>
        <time>2013-03-23T12:13:27Z</time>
      </trkpt>
      <trkpt lat="42.86741" lon="-0.20056">
        <ele>2363</ele>
        <time>2013-03-23T12:13:29Z</time>
      </trkpt>
      <trkpt lat="42.8675" lon="-0.20053">
        <ele>2356</ele>
        <time>2013-03-23T12:13:32Z</time>
      </trkpt>
      <trkpt lat="42.86755" lon="-0.20057">
        <ele>2355</ele>
        <time>2013-03-23T12:13:33Z</time>
      </trkpt>
      <trkpt lat="42.8676" lon="-0.20047">
        <ele>2352</ele>
        <time>2013-03-23T12:13:35Z</time>
      </trkpt>
      <trkpt lat="42.86761" lon="-0.20043">
        <ele>2352</ele>
        <time>2013-03-23T12:13:36Z</time>
      </trkpt>
      <trkpt lat="42.86766" lon="-0.2003">
        <ele>2347</ele>
        <time>2013-03-23T12:13:39Z</time>
      </trkpt>
      <trkpt lat="42.86773" lon="-0.20037">
        <ele>2342</ele>
        <time>2013-03-23T12:13:41Z</time>
      </trkpt>
      <trkpt lat="42.8678" lon="-0.20021">
        <ele>2337</ele>
        <time>2013-03-23T12:13:45Z</time>
      </trkpt>
      <trkpt lat="42.86789" lon="-0.19994">
        <ele>2334</ele>
        <time>2013-03-23T12:13:49Z</time>
      </trkpt>
      <trkpt lat="42.86791" lon="-0.19991">
        <ele>2335</ele>
        <time>2013-03-23T12:13:50Z</time>
      </trkpt>
      <trkpt lat="42.86802" lon="-0.19997">
        <ele>2331</ele>
        <time>2013-03-23T12:13:54Z</time>
      </trkpt>
      <trkpt lat="42.86802" lon="-0.20001">
        <ele>2329</ele>
        <time>2013-03-23T12:13:56Z</time>
      </trkpt>
      <trkpt lat="42.86802" lon="-0.20001">
        <ele>2328</ele>
        <time>2013-03-23T12:13:58Z</time>
      </trkpt>
      <trkpt lat="42.86808" lon="-0.19991">
        <ele>2326</ele>
        <time>2013-03-23T12:14:00Z</time>
      </trkpt>
      <trkpt lat="42.8681" lon="-0.19987">
        <ele>2326</ele>
        <time>2013-03-23T12:14:01Z</time>
      </trkpt>
      <trkpt lat="42.86824" lon="-0.19975">
        <ele>2324</ele>
        <time>2013-03-23T12:14:03Z</time>
      </trkpt>
      <trkpt lat="42.86833" lon="-0.19975">
        <ele>2319</ele>
        <time>2013-03-23T12:14:04Z</time>
      </trkpt>
      <trkpt lat="42.8685" lon="-0.19984">
        <ele>2316</ele>
        <time>2013-03-23T12:14:07Z</time>
      </trkpt>
      <trkpt lat="42.86856" lon="-0.19986">
        <ele>2316</ele>
        <time>2013-03-23T12:14:08Z</time>
      </trkpt>
      <trkpt lat="42.8688" lon="-0.1998">
        <ele>2312</ele>
        <time>2013-03-23T12:14:12Z</time>
      </trkpt>
      <trkpt lat="42.86888" lon="-0.19976">
        <ele>2309</ele>
        <time>2013-03-23T12:14:14Z</time>
      </trkpt>
      <trkpt lat="42.86902" lon="-0.19972">
        <ele>2308</ele>
        <time>2013-03-23T12:14:17Z</time>
      </trkpt>
      <trkpt lat="42.86909" lon="-0.19954">
        <ele>2305</ele>
        <time>2013-03-23T12:14:21Z</time>
      </trkpt>
      <trkpt lat="42.869" lon="-0.19936">
        <ele>2303</ele>
        <time>2013-03-23T12:14:24Z</time>
      </trkpt>
      <trkpt lat="42.8691" lon="-0.19921">
        <ele>2300</ele>
        <time>2013-03-23T12:14:29Z</time>
      </trkpt>
      <trkpt lat="42.86925" lon="-0.19925">
        <ele>2297</ele>
        <time>2013-03-23T12:14:32Z</time>
      </trkpt>
      <trkpt lat="42.86952" lon="-0.1993">
        <ele>2295</ele>
        <time>2013-03-23T12:14:37Z</time>
      </trkpt>
      <trkpt lat="42.8696" lon="-0.19935">
        <ele>2291</ele>
        <time>2013-03-23T12:14:40Z</time>
      </trkpt>
      <trkpt lat="42.86962" lon="-0.19936">
        <ele>2292</ele>
        <time>2013-03-23T12:14:41Z</time>
      </trkpt>
      <trkpt lat="42.86966" lon="-0.19937">
        <ele>2290</ele>
        <time>2013-03-23T12:14:43Z</time>
      </trkpt>
      <trkpt lat="42.86971" lon="-0.19933">
        <ele>2289</ele>
        <time>2013-03-23T12:14:44Z</time>
      </trkpt>
      <trkpt lat="42.86974" lon="-0.19914">
        <ele>2285</ele>
        <time>2013-03-23T12:14:47Z</time>
      </trkpt>
      <trkpt lat="42.86975" lon="-0.19907">
        <ele>2285</ele>
        <time>2013-03-23T12:14:48Z</time>
      </trkpt>
      <trkpt lat="42.8698" lon="-0.19903">
        <ele>2280</ele>
        <time>2013-03-23T12:14:51Z</time>
      </trkpt>
      <trkpt lat="42.86986" lon="-0.19897">
        <ele>2277</ele>
        <time>2013-03-23T12:14:53Z</time>
      </trkpt>
      <trkpt lat="42.86999" lon="-0.19908">
        <ele>2272</ele>
        <time>2013-03-23T12:14:57Z</time>
      </trkpt>
      <trkpt lat="42.87009" lon="-0.19898">
        <ele>2269</ele>
        <time>2013-03-23T12:15:00Z</time>
      </trkpt>
      <trkpt lat="42.87017" lon="-0.19862">
        <ele>2264</ele>
        <time>2013-03-23T12:15:06Z</time>
      </trkpt>
      <trkpt lat="42.87035" lon="-0.19874">
        <ele>2260</ele>
        <time>2013-03-23T12:15:12Z</time>
      </trkpt>
      <trkpt lat="42.87038" lon="-0.1988">
        <ele>2259</ele>
        <time>2013-03-23T12:15:13Z</time>
      </trkpt>
      <trkpt lat="42.87052" lon="-0.19893">
        <ele>2257</ele>
        <time>2013-03-23T12:15:17Z</time>
      </trkpt>
      <trkpt lat="42.87059" lon="-0.19899">
        <ele>2253</ele>
        <time>2013-03-23T12:15:20Z</time>
      </trkpt>
      <trkpt lat="42.87067" lon="-0.1989">
        <ele>2252</ele>
        <time>2013-03-23T12:15:23Z</time>
      </trkpt>
      <trkpt lat="42.87073" lon="-0.19892">
        <ele>2250</ele>
        <time>2013-03-23T12:15:24Z</time>
      </trkpt>
      <trkpt lat="42.87075" lon="-0.19895">
        <ele>2248</ele>
        <time>2013-03-23T12:15:25Z</time>
      </trkpt>
      <trkpt lat="42.87084" lon="-0.19911">
        <ele>2245</ele>
        <time>2013-03-23T12:15:30Z</time>
      </trkpt>
      <trkpt lat="42.87088" lon="-0.19918">
        <ele>2242</ele>
        <time>2013-03-23T12:15:33Z</time>
      </trkpt>
      <trkpt lat="42.87091" lon="-0.1992">
        <ele>2242</ele>
        <time>2013-03-23T12:15:34Z</time>
      </trkpt>
      <trkpt lat="42.87101" lon="-0.19919">
        <ele>2240</ele>
        <time>2013-03-23T12:15:36Z</time>
      </trkpt>
      <trkpt lat="42.87107" lon="-0.19914">
        <ele>2239</ele>
        <time>2013-03-23T12:15:37Z</time>
      </trkpt>
      <trkpt lat="42.87114" lon="-0.19904">
        <ele>2237</ele>
        <time>2013-03-23T12:15:39Z</time>
      </trkpt>
      <trkpt lat="42.87121" lon="-0.19902">
        <ele>2233</ele>
        <time>2013-03-23T12:15:41Z</time>
      </trkpt>
      <trkpt lat="42.87122" lon="-0.19904">
        <ele>2232</ele>
        <time>2013-03-23T12:15:42Z</time>
      </trkpt>
      <trkpt lat="42.87124" lon="-0.19909">
        <ele>2230</ele>
        <time>2013-03-23T12:15:43Z</time>
      </trkpt>
      <trkpt lat="42.8713" lon="-0.1991">
        <ele>2228</ele>
        <time>2013-03-23T12:15:45Z</time>
      </trkpt>
      <trkpt lat="42.87139" lon="-0.19907">
        <ele>2227</ele>
        <time>2013-03-23T12:15:47Z</time>
      </trkpt>
      <trkpt lat="42.87143" lon="-0.19903">
        <ele>2227</ele>
        <time>2013-03-23T12:15:48Z</time>
      </trkpt>
      <trkpt lat="42.87146" lon="-0.19898">
        <ele>2222</ele>
        <time>2013-03-23T12:15:50Z</time>
      </trkpt>
      <trkpt lat="42.87146" lon="-0.19898">
        <ele>2222</ele>
        <time>2013-03-23T12:15:51Z</time>
      </trkpt>
      <trkpt lat="42.87146" lon="-0.19899">
        <ele>2222</ele>
        <time>2013-03-23T12:15:52Z</time>
      </trkpt>
      <trkpt lat="42.87152" lon="-0.19916">
        <ele>2218</ele>
        <time>2013-03-23T12:15:55Z</time>
      </trkpt>
      <trkpt lat="42.87155" lon="-0.19922">
        <ele>2217</ele>
        <time>2013-03-23T12:15:57Z</time>
      </trkpt>
      <trkpt lat="42.87157" lon="-0.19929">
        <ele>2216</ele>
        <time>2013-03-23T12:16:00Z</time>
      </trkpt>
      <trkpt lat="42.87159" lon="-0.19933">
        <ele>2216</ele>
        <time>2013-03-23T12:16:01Z</time>
      </trkpt>
      <trkpt lat="42.87163" lon="-0.19935">
        <ele>2217</ele>
        <time>2013-03-23T12:16:02Z</time>
      </trkpt>
      <trkpt lat="42.87171" lon="-0.19934">
        <ele>2213</ele>
        <time>2013-03-23T12:16:04Z</time>
      </trkpt>
      <trkpt lat="42.87177" lon="-0.19927">
        <ele>2207</ele>
        <time>2013-03-23T12:16:06Z</time>
      </trkpt>
      <trkpt lat="42.87178" lon="-0.19925">
        <ele>2205</ele>
        <time>2013-03-23T12:16:07Z</time>
      </trkpt>
      <trkpt lat="42.87178" lon="-0.19924">
        <ele>2205</ele>
        <time>2013-03-23T12:16:08Z</time>
      </trkpt>
      <trkpt lat="42.87182" lon="-0.19928">
        <ele>2203</ele>
        <time>2013-03-23T12:16:09Z</time>
      </trkpt>
      <trkpt lat="42.87182" lon="-0.19928">
        <ele>2202</ele>
        <time>2013-03-23T12:16:10Z</time>
      </trkpt>
      <trkpt lat="42.87189" lon="-0.19931">
        <ele>2199</ele>
        <time>2013-03-23T12:16:12Z</time>
      </trkpt>
      <trkpt lat="42.87198" lon="-0.19945">
        <ele>2193</ele>
        <time>2013-03-23T12:16:14Z</time>
      </trkpt>
      <trkpt lat="42.87203" lon="-0.19947">
        <ele>2193</ele>
        <time>2013-03-23T12:16:15Z</time>
      </trkpt>
      <trkpt lat="42.87213" lon="-0.19939">
        <ele>2189</ele>
        <time>2013-03-23T12:16:17Z</time>
      </trkpt>
      <trkpt lat="42.87223" lon="-0.19921">
        <ele>2186</ele>
        <time>2013-03-23T12:16:21Z</time>
      </trkpt>
      <trkpt lat="42.87241" lon="-0.19916">
        <ele>2182</ele>
        <time>2013-03-23T12:16:28Z</time>
      </trkpt>
      <trkpt lat="42.87252" lon="-0.19906">
        <ele>2179</ele>
        <time>2013-03-23T12:16:34Z</time>
      </trkpt>
      <trkpt lat="42.87259" lon="-0.19896">
        <ele>2178</ele>
        <time>2013-03-23T12:16:37Z</time>
      </trkpt>
      <trkpt lat="42.87264" lon="-0.19887">
        <ele>2175</ele>
        <time>2013-03-23T12:16:39Z</time>
      </trkpt>
      <trkpt lat="42.87279" lon="-0.19872">
        <ele>2172</ele>
        <time>2013-03-23T12:16:44Z</time>
      </trkpt>
      <trkpt lat="42.8729" lon="-0.19875">
        <ele>2169</ele>
        <time>2013-03-23T12:16:48Z</time>
      </trkpt>
      <trkpt lat="42.87297" lon="-0.19873">
        <ele>2166</ele>
        <time>2013-03-23T12:16:50Z</time>
      </trkpt>
      <trkpt lat="42.87299" lon="-0.19873">
        <ele>2163</ele>
        <time>2013-03-23T12:16:55Z</time>
      </trkpt>
      <trkpt lat="42.8731" lon="-0.19871">
        <ele>2162</ele>
        <time>2013-03-23T12:16:58Z</time>
      </trkpt>
      <trkpt lat="42.87329" lon="-0.19878">
        <ele>2160</ele>
        <time>2013-03-23T12:17:02Z</time>
      </trkpt>
      <trkpt lat="42.87336" lon="-0.19883">
        <ele>2158</ele>
        <time>2013-03-23T12:17:04Z</time>
      </trkpt>
      <trkpt lat="42.87345" lon="-0.19892">
        <ele>2156</ele>
        <time>2013-03-23T12:17:06Z</time>
      </trkpt>
      <trkpt lat="42.87349" lon="-0.19896">
        <ele>2155</ele>
        <time>2013-03-23T12:17:07Z</time>
      </trkpt>
      <trkpt lat="42.87353" lon="-0.19899">
        <ele>2153</ele>
        <time>2013-03-23T12:17:08Z</time>
      </trkpt>
      <trkpt lat="42.87367" lon="-0.1991">
        <ele>2152</ele>
        <time>2013-03-23T12:17:11Z</time>
      </trkpt>
      <trkpt lat="42.8737" lon="-0.19912">
        <ele>2151</ele>
        <time>2013-03-23T12:17:12Z</time>
      </trkpt>
      <trkpt lat="42.87375" lon="-0.19916">
        <ele>2150</ele>
        <time>2013-03-23T12:17:13Z</time>
      </trkpt>
      <trkpt lat="42.87384" lon="-0.19917">
        <ele>2148</ele>
        <time>2013-03-23T12:17:14Z</time>
      </trkpt>
      <trkpt lat="42.87396" lon="-0.1992">
        <ele>2145</ele>
        <time>2013-03-23T12:17:16Z</time>
      </trkpt>
      <trkpt lat="42.87413" lon="-0.19922">
        <ele>2144</ele>
        <time>2013-03-23T12:17:20Z</time>
      </trkpt>
      <trkpt lat="42.87423" lon="-0.19925">
        <ele>2142</ele>
        <time>2013-03-23T12:17:22Z</time>
      </trkpt>
      <trkpt lat="42.87436" lon="-0.19926">
        <ele>2141</ele>
        <time>2013-03-23T12:17:25Z</time>
      </trkpt>
      <trkpt lat="42.87452" lon="-0.19924">
        <ele>2138</ele>
        <time>2013-03-23T12:17:29Z</time>
      </trkpt>
      <trkpt lat="42.87456" lon="-0.19932">
        <ele>2135</ele>
        <time>2013-03-23T12:17:32Z</time>
      </trkpt>
      <trkpt lat="42.87454" lon="-0.19941">
        <ele>2132</ele>
        <time>2013-03-23T12:17:34Z</time>
      </trkpt>
      <trkpt lat="42.87454" lon="-0.19947">
        <ele>2132</ele>
        <time>2013-03-23T12:17:36Z</time>
      </trkpt>
      <trkpt lat="42.87464" lon="-0.19964">
        <ele>2128</ele>
        <time>2013-03-23T12:17:39Z</time>
      </trkpt>
      <trkpt lat="42.87465" lon="-0.19971">
        <ele>2128</ele>
        <time>2013-03-23T12:17:40Z</time>
      </trkpt>
      <trkpt lat="42.87467" lon="-0.19991">
        <ele>2128</ele>
        <time>2013-03-23T12:17:43Z</time>
      </trkpt>
      <trkpt lat="42.87468" lon="-0.19994">
        <ele>2127</ele>
        <time>2013-03-23T12:17:44Z</time>
      </trkpt>
      <trkpt lat="42.87475" lon="-0.19988">
        <ele>2126</ele>
        <time>2013-03-23T12:17:54Z</time>
      </trkpt>
      <trkpt lat="42.87475" lon="-0.19988">
        <ele>2126</ele>
        <time>2013-03-23T12:17:56Z</time>
      </trkpt>
      <trkpt lat="42.87479" lon="-0.19999">
        <ele>2126</ele>
        <time>2013-03-23T12:18:00Z</time>
      </trkpt>
      <trkpt lat="42.87485" lon="-0.20008">
        <ele>2123</ele>
        <time>2013-03-23T12:18:02Z</time>
      </trkpt>
      <trkpt lat="42.87514" lon="-0.20022">
        <ele>2121</ele>
        <time>2013-03-23T12:18:09Z</time>
      </trkpt>
      <trkpt lat="42.87527" lon="-0.20023">
        <ele>2120</ele>
        <time>2013-03-23T12:18:15Z</time>
      </trkpt>
      <trkpt lat="42.87528" lon="-0.20019">
        <ele>2120</ele>
        <time>2013-03-23T12:18:27Z</time>
      </trkpt>
      <trkpt lat="42.87531" lon="-0.20019">
        <ele>2120</ele>
        <time>2013-03-23T12:18:31Z</time>
      </trkpt>
      <trkpt lat="42.8754" lon="-0.20011">
        <ele>2119</ele>
        <time>2013-03-23T12:18:36Z</time>
      </trkpt>
      <trkpt lat="42.87553" lon="-0.19994">
        <ele>2117</ele>
        <time>2013-03-23T12:18:47Z</time>
      </trkpt>
      <trkpt lat="42.87557" lon="-0.1999">
        <ele>2118</ele>
        <time>2013-03-23T12:19:03Z</time>
      </trkpt>
      <trkpt lat="42.87564" lon="-0.19988">
        <ele>2117</ele>
        <time>2013-03-23T12:19:07Z</time>
      </trkpt>
      <trkpt lat="42.87566" lon="-0.19989">
        <ele>2116</ele>
        <time>2013-03-23T12:19:08Z</time>
      </trkpt>
      <trkpt lat="42.87569" lon="-0.19999">
        <ele>2111</ele>
        <time>2013-03-23T12:19:11Z</time>
      </trkpt>
      <trkpt lat="42.8758" lon="-0.19999">
        <ele>2107</ele>
        <time>2013-03-23T12:19:14Z</time>
      </trkpt>
      <trkpt lat="42.87592" lon="-0.1999">
        <ele>2103</ele>
        <time>2013-03-23T12:19:17Z</time>
      </trkpt>
      <trkpt lat="42.87597" lon="-0.19986">
        <ele>2102</ele>
        <time>2013-03-23T12:19:18Z</time>
      </trkpt>
      <trkpt lat="42.87601" lon="-0.19983">
        <ele>2101</ele>
        <time>2013-03-23T12:19:19Z</time>
      </trkpt>
      <trkpt lat="42.87609" lon="-0.19985">
        <ele>2097</ele>
        <time>2013-03-23T12:19:22Z</time>
      </trkpt>
      <trkpt lat="42.87616" lon="-0.19997">
        <ele>2092</ele>
        <time>2013-03-23T12:19:24Z</time>
      </trkpt>
      <trkpt lat="42.8762" lon="-0.19998">
        <ele>2092</ele>
        <time>2013-03-23T12:19:25Z</time>
      </trkpt>
      <trkpt lat="42.87624" lon="-0.20002">
        <ele>2090</ele>
        <time>2013-03-23T12:19:26Z</time>
      </trkpt>
      <trkpt lat="42.87626" lon="-0.20007">
        <ele>2088</ele>
        <time>2013-03-23T12:19:27Z</time>
      </trkpt>
      <trkpt lat="42.87632" lon="-0.20014">
        <ele>2086</ele>
        <time>2013-03-23T12:19:29Z</time>
      </trkpt>
      <trkpt lat="42.87651" lon="-0.20015">
        <ele>2083</ele>
        <time>2013-03-23T12:19:34Z</time>
      </trkpt>
      <trkpt lat="42.87654" lon="-0.20013">
        <ele>2084</ele>
        <time>2013-03-23T12:19:42Z</time>
      </trkpt>
      <trkpt lat="42.87661" lon="-0.2001">
        <ele>2083</ele>
        <time>2013-03-23T12:19:45Z</time>
      </trkpt>
      <trkpt lat="42.87664" lon="-0.20016">
        <ele>2080</ele>
        <time>2013-03-23T12:19:47Z</time>
      </trkpt>
      <trkpt lat="42.87667" lon="-0.20023">
        <ele>2076</ele>
        <time>2013-03-23T12:19:49Z</time>
      </trkpt>
      <trkpt lat="42.87673" lon="-0.20022">
        <ele>2074</ele>
        <time>2013-03-23T12:19:51Z</time>
      </trkpt>
      <trkpt lat="42.8769" lon="-0.20018">
        <ele>2070</ele>
        <time>2013-03-23T12:19:55Z</time>
      </trkpt>
      <trkpt lat="42.87699" lon="-0.20017">
        <ele>2066</ele>
        <time>2013-03-23T12:19:58Z</time>
      </trkpt>
      <trkpt lat="42.87708" lon="-0.20015">
        <ele>2065</ele>
        <time>2013-03-23T12:20:01Z</time>
      </trkpt>
      <trkpt lat="42.87717" lon="-0.20013">
        <ele>2063</ele>
        <time>2013-03-23T12:20:03Z</time>
      </trkpt>
      <trkpt lat="42.87732" lon="-0.2001">
        <ele>2060</ele>
        <time>2013-03-23T12:20:06Z</time>
      </trkpt>
      <trkpt lat="42.87763" lon="-0.19986">
        <ele>2057</ele>
        <time>2013-03-23T12:20:16Z</time>
      </trkpt>
      <trkpt lat="42.87769" lon="-0.19967">
        <ele>2056</ele>
        <time>2013-03-23T12:20:21Z</time>
      </trkpt>
      <trkpt lat="42.87777" lon="-0.19943">
        <ele>2056</ele>
        <time>2013-03-23T12:20:39Z</time>
      </trkpt>
      <trkpt lat="42.87782" lon="-0.19938">
        <ele>2057</ele>
        <time>2013-03-23T12:21:07Z</time>
      </trkpt>
      <trkpt lat="42.8779" lon="-0.19931">
        <ele>2053</ele>
        <time>2013-03-23T12:21:11Z</time>
      </trkpt>
      <trkpt lat="42.878" lon="-0.19925">
        <ele>2050</ele>
        <time>2013-03-23T12:21:14Z</time>
      </trkpt>
      <trkpt lat="42.87807" lon="-0.19924">
        <ele>2045</ele>
        <time>2013-03-23T12:21:16Z</time>
      </trkpt>
      <trkpt lat="42.8781" lon="-0.19914">
        <ele>2042</ele>
        <time>2013-03-23T12:21:18Z</time>
      </trkpt>
      <trkpt lat="42.87814" lon="-0.19902">
        <ele>2038</ele>
        <time>2013-03-23T12:21:22Z</time>
      </trkpt>
      <trkpt lat="42.87814" lon="-0.19902">
        <ele>2037</ele>
        <time>2013-03-23T12:21:23Z</time>
      </trkpt>
      <trkpt lat="42.87811" lon="-0.19901">
        <ele>2037</ele>
        <time>2013-03-23T12:21:28Z</time>
      </trkpt>
      <trkpt lat="42.87817" lon="-0.19908">
        <ele>2034</ele>
        <time>2013-03-23T12:21:31Z</time>
      </trkpt>
      <trkpt lat="42.87822" lon="-0.19913">
        <ele>2033</ele>
        <time>2013-03-23T12:21:33Z</time>
      </trkpt>
      <trkpt lat="42.8783" lon="-0.19905">
        <ele>2029</ele>
        <time>2013-03-23T12:21:36Z</time>
      </trkpt>
      <trkpt lat="42.87837" lon="-0.1991">
        <ele>2026</ele>
        <time>2013-03-23T12:21:38Z</time>
      </trkpt>
      <trkpt lat="42.8784" lon="-0.19913">
        <ele>2026</ele>
        <time>2013-03-23T12:21:39Z</time>
      </trkpt>
      <trkpt lat="42.87848" lon="-0.19926">
        <ele>2020</ele>
        <time>2013-03-23T12:21:43Z</time>
      </trkpt>
      <trkpt lat="42.87851" lon="-0.19927">
        <ele>2019</ele>
        <time>2013-03-23T12:21:44Z</time>
      </trkpt>
      <trkpt lat="42.87853" lon="-0.19925">
        <ele>2017</ele>
        <time>2013-03-23T12:21:45Z</time>
      </trkpt>
      <trkpt lat="42.87863" lon="-0.19922">
        <ele>2014</ele>
        <time>2013-03-23T12:21:48Z</time>
      </trkpt>
      <trkpt lat="42.8787" lon="-0.19929">
        <ele>2012</ele>
        <time>2013-03-23T12:21:50Z</time>
      </trkpt>
      <trkpt lat="42.87875" lon="-0.19931">
        <ele>2012</ele>
        <time>2013-03-23T12:21:51Z</time>
      </trkpt>
      <trkpt lat="42.87892" lon="-0.19926">
        <ele>2008</ele>
        <time>2013-03-23T12:21:55Z</time>
      </trkpt>
      <trkpt lat="42.879" lon="-0.19928">
        <ele>2004</ele>
        <time>2013-03-23T12:21:58Z</time>
      </trkpt>
      <trkpt lat="42.87908" lon="-0.19917">
        <ele>2000</ele>
        <time>2013-03-23T12:22:02Z</time>
      </trkpt>
      <trkpt lat="42.87914" lon="-0.1992">
        <ele>1997</ele>
        <time>2013-03-23T12:22:04Z</time>
      </trkpt>
      <trkpt lat="42.87924" lon="-0.1992">
        <ele>1997</ele>
        <time>2013-03-23T12:22:06Z</time>
      </trkpt>
      <trkpt lat="42.87938" lon="-0.19921">
        <ele>1995</ele>
        <time>2013-03-23T12:22:09Z</time>
      </trkpt>
      <trkpt lat="42.87946" lon="-0.19922">
        <ele>1993</ele>
        <time>2013-03-23T12:22:11Z</time>
      </trkpt>
      <trkpt lat="42.87948" lon="-0.19918">
        <ele>1992</ele>
        <time>2013-03-23T12:22:13Z</time>
      </trkpt>
      <trkpt lat="42.8795" lon="-0.19908">
        <ele>1991</ele>
        <time>2013-03-23T12:22:16Z</time>
      </trkpt>
      <trkpt lat="42.87955" lon="-0.19912">
        <ele>1989</ele>
        <time>2013-03-23T12:22:19Z</time>
      </trkpt>
      <trkpt lat="42.87959" lon="-0.19895">
        <ele>1985</ele>
        <time>2013-03-23T12:22:24Z</time>
      </trkpt>
      <trkpt lat="42.87958" lon="-0.19891">
        <ele>1985</ele>
        <time>2013-03-23T12:22:25Z</time>
      </trkpt>
      <trkpt lat="42.87966" lon="-0.19882">
        <ele>1980</ele>
        <time>2013-03-23T12:22:30Z</time>
      </trkpt>
      <trkpt lat="42.87974" lon="-0.19879">
        <ele>1978</ele>
        <time>2013-03-23T12:22:32Z</time>
      </trkpt>
      <trkpt lat="42.87978" lon="-0.1987">
        <ele>1976</ele>
        <time>2013-03-23T12:22:34Z</time>
      </trkpt>
      <trkpt lat="42.87983" lon="-0.19867">
        <ele>1971</ele>
        <time>2013-03-23T12:22:36Z</time>
      </trkpt>
      <trkpt lat="42.87984" lon="-0.19868">
        <ele>1971</ele>
        <time>2013-03-23T12:22:37Z</time>
      </trkpt>
      <trkpt lat="42.87991" lon="-0.1988">
        <ele>1967</ele>
        <time>2013-03-23T12:22:41Z</time>
      </trkpt>
      <trkpt lat="42.87998" lon="-0.19887">
        <ele>1964</ele>
        <time>2013-03-23T12:22:44Z</time>
      </trkpt>
      <trkpt lat="42.88006" lon="-0.19876">
        <ele>1959</ele>
        <time>2013-03-23T12:22:48Z</time>
      </trkpt>
      <trkpt lat="42.88008" lon="-0.19873">
        <ele>1959</ele>
        <time>2013-03-23T12:22:49Z</time>
      </trkpt>
      <trkpt lat="42.88014" lon="-0.19876">
        <ele>1954</ele>
        <time>2013-03-23T12:22:51Z</time>
      </trkpt>
      <trkpt lat="42.88024" lon="-0.19875">
        <ele>1951</ele>
        <time>2013-03-23T12:22:53Z</time>
      </trkpt>
      <trkpt lat="42.88024" lon="-0.19863">
        <ele>1948</ele>
        <time>2013-03-23T12:22:55Z</time>
      </trkpt>
      <trkpt lat="42.88028" lon="-0.1985">
        <ele>1944</ele>
        <time>2013-03-23T12:22:59Z</time>
      </trkpt>
      <trkpt lat="42.88034" lon="-0.1986">
        <ele>1942</ele>
        <time>2013-03-23T12:23:02Z</time>
      </trkpt>
      <trkpt lat="42.88053" lon="-0.19871">
        <ele>1940</ele>
        <time>2013-03-23T12:23:06Z</time>
      </trkpt>
      <trkpt lat="42.88058" lon="-0.19876">
        <ele>1938</ele>
        <time>2013-03-23T12:23:08Z</time>
      </trkpt>
      <trkpt lat="42.8806" lon="-0.19858">
        <ele>1934</ele>
        <time>2013-03-23T12:23:13Z</time>
      </trkpt>
      <trkpt lat="42.88062" lon="-0.19855">
        <ele>1935</ele>
        <time>2013-03-23T12:23:14Z</time>
      </trkpt>
      <trkpt lat="42.88071" lon="-0.19852">
        <ele>1930</ele>
        <time>2013-03-23T12:23:17Z</time>
      </trkpt>
      <trkpt lat="42.88076" lon="-0.19847">
        <ele>1927</ele>
        <time>2013-03-23T12:23:19Z</time>
      </trkpt>
      <trkpt lat="42.88078" lon="-0.19848">
        <ele>1926</ele>
        <time>2013-03-23T12:23:20Z</time>
      </trkpt>
      <trkpt lat="42.88084" lon="-0.19846">
        <ele>1924</ele>
        <time>2013-03-23T12:23:23Z</time>
      </trkpt>
      <trkpt lat="42.88084" lon="-0.19842">
        <ele>1922</ele>
        <time>2013-03-23T12:23:24Z</time>
      </trkpt>
      <trkpt lat="42.88084" lon="-0.19837">
        <ele>1922</ele>
        <time>2013-03-23T12:23:25Z</time>
      </trkpt>
      <trkpt lat="42.88093" lon="-0.19834">
        <ele>1917</ele>
        <time>2013-03-23T12:23:28Z</time>
      </trkpt>
      <trkpt lat="42.88101" lon="-0.19825">
        <ele>1913</ele>
        <time>2013-03-23T12:23:31Z</time>
      </trkpt>
      <trkpt lat="42.88107" lon="-0.19819">
        <ele>1911</ele>
        <time>2013-03-23T12:23:33Z</time>
      </trkpt>
      <trkpt lat="42.88115" lon="-0.19824">
        <ele>1907</ele>
        <time>2013-03-23T12:23:35Z</time>
      </trkpt>
      <trkpt lat="42.88126" lon="-0.19808">
        <ele>1904</ele>
        <time>2013-03-23T12:23:39Z</time>
      </trkpt>
      <trkpt lat="42.88131" lon="-0.19807">
        <ele>1902</ele>
        <time>2013-03-23T12:23:41Z</time>
      </trkpt>
      <trkpt lat="42.88134" lon="-0.19809">
        <ele>1901</ele>
        <time>2013-03-23T12:23:52Z</time>
      </trkpt>
      <trkpt lat="42.88139" lon="-0.19805">
        <ele>1901</ele>
        <time>2013-03-23T12:24:08Z</time>
      </trkpt>
      <trkpt lat="42.88132" lon="-0.19801">
        <ele>1901</ele>
        <time>2013-03-23T12:24:32Z</time>
      </trkpt>
      <trkpt lat="42.88144" lon="-0.19794">
        <ele>1901</ele>
        <time>2013-03-23T12:24:49Z</time>
      </trkpt>
      <trkpt lat="42.8814" lon="-0.19796">
        <ele>1900</ele>
        <time>2013-03-23T12:25:06Z</time>
      </trkpt>
      <trkpt lat="42.88133" lon="-0.19798">
        <ele>1901</ele>
        <time>2013-03-23T12:25:36Z</time>
      </trkpt>
      <trkpt lat="42.88136" lon="-0.198">
        <ele>1901</ele>
        <time>2013-03-23T12:25:59Z</time>
      </trkpt>
      <trkpt lat="42.88136" lon="-0.19799">
        <ele>1900</ele>
        <time>2013-03-23T12:26:01Z</time>
      </trkpt>
      <trkpt lat="42.88142" lon="-0.19796">
        <ele>1901</ele>
        <time>2013-03-23T12:26:14Z</time>
      </trkpt>
      <trkpt lat="42.88144" lon="-0.19794">
        <ele>1901</ele>
        <time>2013-03-23T12:26:17Z</time>
      </trkpt>
      <trkpt lat="42.88152" lon="-0.19804">
        <ele>1900</ele>
        <time>2013-03-23T12:26:22Z</time>
      </trkpt>
      <trkpt lat="42.88152" lon="-0.19808">
        <ele>1898</ele>
        <time>2013-03-23T12:26:23Z</time>
      </trkpt>
      <trkpt lat="42.88152" lon="-0.19812">
        <ele>1899</ele>
        <time>2013-03-23T12:26:24Z</time>
      </trkpt>
      <trkpt lat="42.88151" lon="-0.19816">
        <ele>1898</ele>
        <time>2013-03-23T12:26:25Z</time>
      </trkpt>
      <trkpt lat="42.8815" lon="-0.19821">
        <ele>1897</ele>
        <time>2013-03-23T12:26:27Z</time>
      </trkpt>
      <trkpt lat="42.88157" lon="-0.19825">
        <ele>1894</ele>
        <time>2013-03-23T12:26:30Z</time>
      </trkpt>
      <trkpt lat="42.88159" lon="-0.19827">
        <ele>1892</ele>
        <time>2013-03-23T12:26:31Z</time>
      </trkpt>
      <trkpt lat="42.88159" lon="-0.19834">
        <ele>1891</ele>
        <time>2013-03-23T12:26:33Z</time>
      </trkpt>
      <trkpt lat="42.88161" lon="-0.19839">
        <ele>1888</ele>
        <time>2013-03-23T12:26:34Z</time>
      </trkpt>
      <trkpt lat="42.8817" lon="-0.19836">
        <ele>1884</ele>
        <time>2013-03-23T12:26:37Z</time>
      </trkpt>
      <trkpt lat="42.88173" lon="-0.19833">
        <ele>1883</ele>
        <time>2013-03-23T12:26:38Z</time>
      </trkpt>
      <trkpt lat="42.88186" lon="-0.19826">
        <ele>1879</ele>
        <time>2013-03-23T12:26:42Z</time>
      </trkpt>
      <trkpt lat="42.88189" lon="-0.19824">
        <ele>1877</ele>
        <time>2013-03-23T12:26:43Z</time>
      </trkpt>
      <trkpt lat="42.88193" lon="-0.19822">
        <ele>1873</ele>
        <time>2013-03-23T12:26:45Z</time>
      </trkpt>
      <trkpt lat="42.88193" lon="-0.19827">
        <ele>1870</ele>
        <time>2013-03-23T12:26:46Z</time>
      </trkpt>
      <trkpt lat="42.88193" lon="-0.19836">
        <ele>1867</ele>
        <time>2013-03-23T12:26:49Z</time>
      </trkpt>
      <trkpt lat="42.88198" lon="-0.19835">
        <ele>1867</ele>
        <time>2013-03-23T12:26:51Z</time>
      </trkpt>
      <trkpt lat="42.88206" lon="-0.19836">
        <ele>1860</ele>
        <time>2013-03-23T12:26:57Z</time>
      </trkpt>
      <trkpt lat="42.8821" lon="-0.19836">
        <ele>1860</ele>
        <time>2013-03-23T12:27:12Z</time>
      </trkpt>
      <trkpt lat="42.88212" lon="-0.1983">
        <ele>1860</ele>
        <time>2013-03-23T12:27:26Z</time>
      </trkpt>
      <trkpt lat="42.88214" lon="-0.19839">
        <ele>1858</ele>
        <time>2013-03-23T12:27:34Z</time>
      </trkpt>
      <trkpt lat="42.88215" lon="-0.19843">
        <ele>1856</ele>
        <time>2013-03-23T12:27:35Z</time>
      </trkpt>
      <trkpt lat="42.88216" lon="-0.19844">
        <ele>1856</ele>
        <time>2013-03-23T12:27:36Z</time>
      </trkpt>
      <trkpt lat="42.88215" lon="-0.19845">
        <ele>1855</ele>
        <time>2013-03-23T12:27:49Z</time>
      </trkpt>
      <trkpt lat="42.88226" lon="-0.19837">
        <ele>1852</ele>
        <time>2013-03-23T12:27:54Z</time>
      </trkpt>
      <trkpt lat="42.88228" lon="-0.19839">
        <ele>1851</ele>
        <time>2013-03-23T12:27:55Z</time>
      </trkpt>
      <trkpt lat="42.88229" lon="-0.19843">
        <ele>1848</ele>
        <time>2013-03-23T12:27:56Z</time>
      </trkpt>
      <trkpt lat="42.8823" lon="-0.19848">
        <ele>1847</ele>
        <time>2013-03-23T12:27:57Z</time>
      </trkpt>
      <trkpt lat="42.88233" lon="-0.19853">
        <ele>1845</ele>
        <time>2013-03-23T12:27:58Z</time>
      </trkpt>
      <trkpt lat="42.88244" lon="-0.19854">
        <ele>1840</ele>
        <time>2013-03-23T12:28:01Z</time>
      </trkpt>
      <trkpt lat="42.88249" lon="-0.19862">
        <ele>1839</ele>
        <time>2013-03-23T12:28:03Z</time>
      </trkpt>
      <trkpt lat="42.88251" lon="-0.19866">
        <ele>1838</ele>
        <time>2013-03-23T12:28:04Z</time>
      </trkpt>
      <trkpt lat="42.88255" lon="-0.19874">
        <ele>1837</ele>
        <time>2013-03-23T12:28:06Z</time>
      </trkpt>
      <trkpt lat="42.88266" lon="-0.19873">
        <ele>1833</ele>
        <time>2013-03-23T12:28:10Z</time>
      </trkpt>
      <trkpt lat="42.88269" lon="-0.19871">
        <ele>1833</ele>
        <time>2013-03-23T12:28:11Z</time>
      </trkpt>
      <trkpt lat="42.88273" lon="-0.19874">
        <ele>1830</ele>
        <time>2013-03-23T12:28:13Z</time>
      </trkpt>
      <trkpt lat="42.88284" lon="-0.19897">
        <ele>1827</ele>
        <time>2013-03-23T12:28:22Z</time>
      </trkpt>
      <trkpt lat="42.88286" lon="-0.19897">
        <ele>1825</ele>
        <time>2013-03-23T12:28:24Z</time>
      </trkpt>
      <trkpt lat="42.88294" lon="-0.19901">
        <ele>1823</ele>
        <time>2013-03-23T12:28:28Z</time>
      </trkpt>
      <trkpt lat="42.88305" lon="-0.1991">
        <ele>1821</ele>
        <time>2013-03-23T12:28:32Z</time>
      </trkpt>
      <trkpt lat="42.8831" lon="-0.19899">
        <ele>1816</ele>
        <time>2013-03-23T12:28:37Z</time>
      </trkpt>
      <trkpt lat="42.88309" lon="-0.19894">
        <ele>1815</ele>
        <time>2013-03-23T12:28:38Z</time>
      </trkpt>
      <trkpt lat="42.88313" lon="-0.19878">
        <ele>1813</ele>
        <time>2013-03-23T12:28:43Z</time>
      </trkpt>
      <trkpt lat="42.88311" lon="-0.1987">
        <ele>1811</ele>
        <time>2013-03-23T12:28:45Z</time>
      </trkpt>
      <trkpt lat="42.88317" lon="-0.19868">
        <ele>1807</ele>
        <time>2013-03-23T12:28:49Z</time>
      </trkpt>
      <trkpt lat="42.88319" lon="-0.19872">
        <ele>1807</ele>
        <time>2013-03-23T12:28:50Z</time>
      </trkpt>
      <trkpt lat="42.88328" lon="-0.19864">
        <ele>1804</ele>
        <time>2013-03-23T12:28:53Z</time>
      </trkpt>
      <trkpt lat="42.88337" lon="-0.19868">
        <ele>1800</ele>
        <time>2013-03-23T12:28:55Z</time>
      </trkpt>
      <trkpt lat="42.88339" lon="-0.19881">
        <ele>1798</ele>
        <time>2013-03-23T12:28:57Z</time>
      </trkpt>
      <trkpt lat="42.88357" lon="-0.19881">
        <ele>1794</ele>
        <time>2013-03-23T12:29:01Z</time>
      </trkpt>
      <trkpt lat="42.88363" lon="-0.19893">
        <ele>1791</ele>
        <time>2013-03-23T12:29:04Z</time>
      </trkpt>
      <trkpt lat="42.8837" lon="-0.19893">
        <ele>1788</ele>
        <time>2013-03-23T12:29:06Z</time>
      </trkpt>
      <trkpt lat="42.88374" lon="-0.19891">
        <ele>1786</ele>
        <time>2013-03-23T12:29:07Z</time>
      </trkpt>
      <trkpt lat="42.88384" lon="-0.19892">
        <ele>1782</ele>
        <time>2013-03-23T12:29:10Z</time>
      </trkpt>
      <trkpt lat="42.88389" lon="-0.19904">
        <ele>1780</ele>
        <time>2013-03-23T12:29:13Z</time>
      </trkpt>
      <trkpt lat="42.88399" lon="-0.19926">
        <ele>1778</ele>
        <time>2013-03-23T12:29:17Z</time>
      </trkpt>
      <trkpt lat="42.88406" lon="-0.19938">
        <ele>1774</ele>
        <time>2013-03-23T12:29:21Z</time>
      </trkpt>
      <trkpt lat="42.88409" lon="-0.19937">
        <ele>1774</ele>
        <time>2013-03-23T12:29:22Z</time>
      </trkpt>
      <trkpt lat="42.88417" lon="-0.1994">
        <ele>1770</ele>
        <time>2013-03-23T12:29:24Z</time>
      </trkpt>
      <trkpt lat="42.88428" lon="-0.19951">
        <ele>1769</ele>
        <time>2013-03-23T12:29:26Z</time>
      </trkpt>
      <trkpt lat="42.88433" lon="-0.19956">
        <ele>1768</ele>
        <time>2013-03-23T12:29:27Z</time>
      </trkpt>
      <trkpt lat="42.88438" lon="-0.19959">
        <ele>1768</ele>
        <time>2013-03-23T12:29:28Z</time>
      </trkpt>
      <trkpt lat="42.88453" lon="-0.19972">
        <ele>1764</ele>
        <time>2013-03-23T12:29:31Z</time>
      </trkpt>
      <trkpt lat="42.88461" lon="-0.19976">
        <ele>1763</ele>
        <time>2013-03-23T12:29:32Z</time>
      </trkpt>
      <trkpt lat="42.88482" lon="-0.1999">
        <ele>1759</ele>
        <time>2013-03-23T12:29:36Z</time>
      </trkpt>
      <trkpt lat="42.88502" lon="-0.20004">
        <ele>1755</ele>
        <time>2013-03-23T12:29:39Z</time>
      </trkpt>
      <trkpt lat="42.88518" lon="-0.20014">
        <ele>1753</ele>
        <time>2013-03-23T12:29:41Z</time>
      </trkpt>
      <trkpt lat="42.88531" lon="-0.20017">
        <ele>1751</ele>
        <time>2013-03-23T12:29:43Z</time>
      </trkpt>
      <trkpt lat="42.88552" lon="-0.20022">
        <ele>1747</ele>
        <time>2013-03-23T12:29:47Z</time>
      </trkpt>
      <trkpt lat="42.88572" lon="-0.20031">
        <ele>1744</ele>
        <time>2013-03-23T12:29:52Z</time>
      </trkpt>
      <trkpt lat="42.88584" lon="-0.20037">
        <ele>1742</ele>
        <time>2013-03-23T12:29:55Z</time>
      </trkpt>
      <trkpt lat="42.88601" lon="-0.20044">
        <ele>1738</ele>
        <time>2013-03-23T12:29:59Z</time>
      </trkpt>
      <trkpt lat="42.88615" lon="-0.20052">
        <ele>1736</ele>
        <time>2013-03-23T12:30:02Z</time>
      </trkpt>
      <trkpt lat="42.88621" lon="-0.20067">
        <ele>1733</ele>
        <time>2013-03-23T12:30:07Z</time>
      </trkpt>
      <trkpt lat="42.88623" lon="-0.20065">
        <ele>1734</ele>
        <time>2013-03-23T12:30:15Z</time>
      </trkpt>
      <trkpt lat="42.88631" lon="-0.20068">
        <ele>1732</ele>
        <time>2013-03-23T12:30:19Z</time>
      </trkpt>
      <trkpt lat="42.88645" lon="-0.20063">
        <ele>1728</ele>
        <time>2013-03-23T12:30:24Z</time>
      </trkpt>
      <trkpt lat="42.88652" lon="-0.20047">
        <ele>1722</ele>
        <time>2013-03-23T12:30:27Z</time>
      </trkpt>
      <trkpt lat="42.88659" lon="-0.20051">
        <ele>1718</ele>
        <time>2013-03-23T12:30:29Z</time>
      </trkpt>
      <trkpt lat="42.88668" lon="-0.20048">
        <ele>1716</ele>
        <time>2013-03-23T12:30:31Z</time>
      </trkpt>
      <trkpt lat="42.88676" lon="-0.20044">
        <ele>1714</ele>
        <time>2013-03-23T12:30:33Z</time>
      </trkpt>
      <trkpt lat="42.88684" lon="-0.20031">
        <ele>1707</ele>
        <time>2013-03-23T12:30:39Z</time>
      </trkpt>
      <trkpt lat="42.88694" lon="-0.20029">
        <ele>1705</ele>
        <time>2013-03-23T12:30:43Z</time>
      </trkpt>
      <trkpt lat="42.88696" lon="-0.20031">
        <ele>1705</ele>
        <time>2013-03-23T12:30:44Z</time>
      </trkpt>
      <trkpt lat="42.88706" lon="-0.20034">
        <ele>1701</ele>
        <time>2013-03-23T12:30:48Z</time>
      </trkpt>
      <trkpt lat="42.88716" lon="-0.20025">
        <ele>1698</ele>
        <time>2013-03-23T12:30:51Z</time>
      </trkpt>
      <trkpt lat="42.88726" lon="-0.20034">
        <ele>1696</ele>
        <time>2013-03-23T12:30:54Z</time>
      </trkpt>
      <trkpt lat="42.88728" lon="-0.20043">
        <ele>1694</ele>
        <time>2013-03-23T12:30:56Z</time>
      </trkpt>
      <trkpt lat="42.88745" lon="-0.20039">
        <ele>1689</ele>
        <time>2013-03-23T12:31:00Z</time>
      </trkpt>
      <trkpt lat="42.88746" lon="-0.20034">
        <ele>1688</ele>
        <time>2013-03-23T12:31:01Z</time>
      </trkpt>
      <trkpt lat="42.88757" lon="-0.20037">
        <ele>1684</ele>
        <time>2013-03-23T12:31:06Z</time>
      </trkpt>
      <trkpt lat="42.88758" lon="-0.20041">
        <ele>1684</ele>
        <time>2013-03-23T12:31:07Z</time>
      </trkpt>
      <trkpt lat="42.88763" lon="-0.20057">
        <ele>1681</ele>
        <time>2013-03-23T12:31:11Z</time>
      </trkpt>
      <trkpt lat="42.88771" lon="-0.20085">
        <ele>1678</ele>
        <time>2013-03-23T12:31:16Z</time>
      </trkpt>
      <trkpt lat="42.88773" lon="-0.2009">
        <ele>1677</ele>
        <time>2013-03-23T12:31:17Z</time>
      </trkpt>
      <trkpt lat="42.88775" lon="-0.20096">
        <ele>1677</ele>
        <time>2013-03-23T12:31:18Z</time>
      </trkpt>
      <trkpt lat="42.88789" lon="-0.20114">
        <ele>1673</ele>
        <time>2013-03-23T12:31:25Z</time>
      </trkpt>
      <trkpt lat="42.88794" lon="-0.20108">
        <ele>1671</ele>
        <time>2013-03-23T12:31:27Z</time>
      </trkpt>
      <trkpt lat="42.88819" lon="-0.20107">
        <ele>1669</ele>
        <time>2013-03-23T12:31:34Z</time>
      </trkpt>
      <trkpt lat="42.88818" lon="-0.201">
        <ele>1670</ele>
        <time>2013-03-23T12:31:49Z</time>
      </trkpt>
      <trkpt lat="42.88815" lon="-0.20102">
        <ele>1670</ele>
        <time>2013-03-23T12:32:07Z</time>
      </trkpt>
      <trkpt lat="42.88819" lon="-0.20097">
        <ele>1670</ele>
        <time>2013-03-23T12:32:28Z</time>
      </trkpt>
      <trkpt lat="42.88807" lon="-0.20103">
        <ele>1671</ele>
        <time>2013-03-23T12:32:46Z</time>
      </trkpt>
      <trkpt lat="42.88807" lon="-0.20102">
        <ele>1671</ele>
        <time>2013-03-23T12:32:50Z</time>
      </trkpt>
      <trkpt lat="42.88819" lon="-0.20106">
        <ele>1668</ele>
        <time>2013-03-23T12:32:55Z</time>
      </trkpt>
      <trkpt lat="42.88829" lon="-0.20099">
        <ele>1667</ele>
        <time>2013-03-23T12:32:59Z</time>
      </trkpt>
      <trkpt lat="42.88835" lon="-0.20104">
        <ele>1664</ele>
        <time>2013-03-23T12:33:03Z</time>
      </trkpt>
      <trkpt lat="42.88836" lon="-0.20106">
        <ele>1661</ele>
        <time>2013-03-23T12:33:04Z</time>
      </trkpt>
      <trkpt lat="42.8884" lon="-0.20105">
        <ele>1659</ele>
        <time>2013-03-23T12:33:07Z</time>
      </trkpt>
      <trkpt lat="42.88843" lon="-0.20099">
        <ele>1655</ele>
        <time>2013-03-23T12:33:09Z</time>
      </trkpt>
      <trkpt lat="42.88851" lon="-0.20099">
        <ele>1651</ele>
        <time>2013-03-23T12:33:11Z</time>
      </trkpt>
      <trkpt lat="42.88853" lon="-0.20101">
        <ele>1648</ele>
        <time>2013-03-23T12:33:12Z</time>
      </trkpt>
      <trkpt lat="42.88856" lon="-0.20096">
        <ele>1645</ele>
        <time>2013-03-23T12:33:14Z</time>
      </trkpt>
      <trkpt lat="42.8886" lon="-0.20093">
        <ele>1645</ele>
        <time>2013-03-23T12:33:15Z</time>
      </trkpt>
      <trkpt lat="42.88893" lon="-0.20091">
        <ele>1639</ele>
        <time>2013-03-23T12:33:20Z</time>
      </trkpt>
      <trkpt lat="42.88924" lon="-0.20108">
        <ele>1634</ele>
        <time>2013-03-23T12:33:25Z</time>
      </trkpt>
      <trkpt lat="42.88935" lon="-0.20117">
        <ele>1632</ele>
        <time>2013-03-23T12:33:27Z</time>
      </trkpt>
      <trkpt lat="42.88957" lon="-0.20136">
        <ele>1628</ele>
        <time>2013-03-23T12:33:31Z</time>
      </trkpt>
      <trkpt lat="42.88984" lon="-0.20157">
        <ele>1623</ele>
        <time>2013-03-23T12:33:36Z</time>
      </trkpt>
      <trkpt lat="42.8899" lon="-0.20161">
        <ele>1623</ele>
        <time>2013-03-23T12:33:37Z</time>
      </trkpt>
      <trkpt lat="42.88997" lon="-0.20166">
        <ele>1622</ele>
        <time>2013-03-23T12:33:38Z</time>
      </trkpt>
      <trkpt lat="42.89019" lon="-0.20177">
        <ele>1619</ele>
        <time>2013-03-23T12:33:42Z</time>
      </trkpt>
      <trkpt lat="42.89042" lon="-0.20192">
        <ele>1616</ele>
        <time>2013-03-23T12:33:46Z</time>
      </trkpt>
      <trkpt lat="42.89069" lon="-0.20206">
        <ele>1612</ele>
        <time>2013-03-23T12:33:51Z</time>
      </trkpt>
      <trkpt lat="42.89073" lon="-0.20209">
        <ele>1612</ele>
        <time>2013-03-23T12:33:52Z</time>
      </trkpt>
      <trkpt lat="42.89094" lon="-0.20218">
        <ele>1609</ele>
        <time>2013-03-23T12:33:57Z</time>
      </trkpt>
      <trkpt lat="42.89115" lon="-0.20245">
        <ele>1606</ele>
        <time>2013-03-23T12:34:08Z</time>
      </trkpt>
      <trkpt lat="42.89125" lon="-0.20263">
        <ele>1606</ele>
        <time>2013-03-23T12:34:19Z</time>
      </trkpt>
      <trkpt lat="42.89125" lon="-0.20264">
        <ele>1606</ele>
        <time>2013-03-23T12:34:20Z</time>
      </trkpt>
      <trkpt lat="42.89127" lon="-0.20268">
        <ele>1606</ele>
        <time>2013-03-23T12:34:24Z</time>
      </trkpt>
      <trkpt lat="42.89142" lon="-0.20285">
        <ele>1603</ele>
        <time>2013-03-23T12:34:35Z</time>
      </trkpt>
      <trkpt lat="42.89156" lon="-0.20296">
        <ele>1599</ele>
        <time>2013-03-23T12:34:40Z</time>
      </trkpt>
      <trkpt lat="42.89163" lon="-0.20297">
        <ele>1599</ele>
        <time>2013-03-23T12:34:42Z</time>
      </trkpt>
      <trkpt lat="42.89165" lon="-0.203">
        <ele>1598</ele>
        <time>2013-03-23T12:34:44Z</time>
      </trkpt>
      <trkpt lat="42.89163" lon="-0.20292">
        <ele>1598</ele>
        <time>2013-03-23T12:35:05Z</time>
      </trkpt>
      <trkpt lat="42.89164" lon="-0.20294">
        <ele>1598</ele>
        <time>2013-03-23T12:35:26Z</time>
      </trkpt>
      <trkpt lat="42.89172" lon="-0.20292">
        <ele>1597</ele>
        <time>2013-03-23T12:35:41Z</time>
      </trkpt>
      <trkpt lat="42.89176" lon="-0.20296">
        <ele>1595</ele>
        <time>2013-03-23T12:35:43Z</time>
      </trkpt>
      <trkpt lat="42.89186" lon="-0.20299">
        <ele>1592</ele>
        <time>2013-03-23T12:35:45Z</time>
      </trkpt>
      <trkpt lat="42.89194" lon="-0.20297">
        <ele>1591</ele>
        <time>2013-03-23T12:35:47Z</time>
      </trkpt>
      <trkpt lat="42.89207" lon="-0.20296">
        <ele>1588</ele>
        <time>2013-03-23T12:35:50Z</time>
      </trkpt>
      <trkpt lat="42.89221" lon="-0.20294">
        <ele>1586</ele>
        <time>2013-03-23T12:35:56Z</time>
      </trkpt>
      <trkpt lat="42.89244" lon="-0.20291">
        <ele>1582</ele>
        <time>2013-03-23T12:36:03Z</time>
      </trkpt>
      <trkpt lat="42.89257" lon="-0.20291">
        <ele>1581</ele>
        <time>2013-03-23T12:36:06Z</time>
      </trkpt>
      <trkpt lat="42.89266" lon="-0.20293">
        <ele>1579</ele>
        <time>2013-03-23T12:36:08Z</time>
      </trkpt>
      <trkpt lat="42.89292" lon="-0.20296">
        <ele>1576</ele>
        <time>2013-03-23T12:36:16Z</time>
      </trkpt>
      <trkpt lat="42.89298" lon="-0.20298">
        <ele>1575</ele>
        <time>2013-03-23T12:36:18Z</time>
      </trkpt>
      <trkpt lat="42.89316" lon="-0.20294">
        <ele>1573</ele>
        <time>2013-03-23T12:36:28Z</time>
      </trkpt>
      <trkpt lat="42.89322" lon="-0.20289">
        <ele>1572</ele>
        <time>2013-03-23T12:36:39Z</time>
      </trkpt>
      <trkpt lat="42.89326" lon="-0.20289">
        <ele>1572</ele>
        <time>2013-03-23T12:36:53Z</time>
      </trkpt>
      <trkpt lat="42.89349" lon="-0.20303">
        <ele>1569</ele>
        <time>2013-03-23T12:37:02Z</time>
      </trkpt>
      <trkpt lat="42.89353" lon="-0.20308">
        <ele>1568</ele>
        <time>2013-03-23T12:37:05Z</time>
      </trkpt>
      <trkpt lat="42.89354" lon="-0.20308">
        <ele>1568</ele>
        <time>2013-03-23T12:37:08Z</time>
      </trkpt>
      <trkpt lat="42.8937" lon="-0.20326">
        <ele>1566</ele>
        <time>2013-03-23T12:37:17Z</time>
      </trkpt>
      <trkpt lat="42.89382" lon="-0.2034">
        <ele>1564</ele>
        <time>2013-03-23T12:37:20Z</time>
      </trkpt>
      <trkpt lat="42.89407" lon="-0.20353">
        <ele>1561</ele>
        <time>2013-03-23T12:37:29Z</time>
      </trkpt>
      <trkpt lat="42.89418" lon="-0.20357">
        <ele>1560</ele>
        <time>2013-03-23T12:37:34Z</time>
      </trkpt>
      <trkpt lat="42.89434" lon="-0.20364">
        <ele>1557</ele>
        <time>2013-03-23T12:37:41Z</time>
      </trkpt>
      <trkpt lat="42.89458" lon="-0.20373">
        <ele>1555</ele>
        <time>2013-03-23T12:37:48Z</time>
      </trkpt>
      <trkpt lat="42.89473" lon="-0.20383">
        <ele>1553</ele>
        <time>2013-03-23T12:37:52Z</time>
      </trkpt>
      <trkpt lat="42.89501" lon="-0.20389">
        <ele>1550</ele>
        <time>2013-03-23T12:38:02Z</time>
      </trkpt>
      <trkpt lat="42.89527" lon="-0.20397">
        <ele>1547</ele>
        <time>2013-03-23T12:38:11Z</time>
      </trkpt>
      <trkpt lat="42.89543" lon="-0.20403">
        <ele>1545</ele>
        <time>2013-03-23T12:38:16Z</time>
      </trkpt>
      <trkpt lat="42.89556" lon="-0.20405">
        <ele>1544</ele>
        <time>2013-03-23T12:38:19Z</time>
      </trkpt>
      <trkpt lat="42.89585" lon="-0.20414">
        <ele>1541</ele>
        <time>2013-03-23T12:38:27Z</time>
      </trkpt>
      <trkpt lat="42.8962" lon="-0.20418">
        <ele>1537</ele>
        <time>2013-03-23T12:38:36Z</time>
      </trkpt>
      <trkpt lat="42.89648" lon="-0.20425">
        <ele>1534</ele>
        <time>2013-03-23T12:38:44Z</time>
      </trkpt>
      <trkpt lat="42.89653" lon="-0.20427">
        <ele>1533</ele>
        <time>2013-03-23T12:38:46Z</time>
      </trkpt>
      <trkpt lat="42.89664" lon="-0.20429">
        <ele>1532</ele>
        <time>2013-03-23T12:38:50Z</time>
      </trkpt>
      <trkpt lat="42.89685" lon="-0.20434">
        <ele>1529</ele>
        <time>2013-03-23T12:38:56Z</time>
      </trkpt>
      <trkpt lat="42.89708" lon="-0.20437">
        <ele>1526</ele>
        <time>2013-03-23T12:39:01Z</time>
      </trkpt>
      <trkpt lat="42.89726" lon="-0.20439">
        <ele>1523</ele>
        <time>2013-03-23T12:39:06Z</time>
      </trkpt>
      <trkpt lat="42.89732" lon="-0.20443">
        <ele>1521</ele>
        <time>2013-03-23T12:39:09Z</time>
      </trkpt>
      <trkpt lat="42.89731" lon="-0.20452">
        <ele>1521</ele>
        <time>2013-03-23T12:39:11Z</time>
      </trkpt>
      <trkpt lat="42.89732" lon="-0.20455">
        <ele>1519</ele>
        <time>2013-03-23T12:39:12Z</time>
      </trkpt>
      <trkpt lat="42.89737" lon="-0.20465">
        <ele>1518</ele>
        <time>2013-03-23T12:39:15Z</time>
      </trkpt>
      <trkpt lat="42.89741" lon="-0.20478">
        <ele>1517</ele>
        <time>2013-03-23T12:39:19Z</time>
      </trkpt>
      <trkpt lat="42.89744" lon="-0.20502">
        <ele>1515</ele>
        <time>2013-03-23T12:39:23Z</time>
      </trkpt>
      <trkpt lat="42.89741" lon="-0.2052">
        <ele>1513</ele>
        <time>2013-03-23T12:39:27Z</time>
      </trkpt>
      <trkpt lat="42.89742" lon="-0.20524">
        <ele>1510</ele>
        <time>2013-03-23T12:39:28Z</time>
      </trkpt>
      <trkpt lat="42.89742" lon="-0.20524">
        <ele>1510</ele>
        <time>2013-03-23T12:39:29Z</time>
      </trkpt>
      <trkpt lat="42.89743" lon="-0.20521">
        <ele>1508</ele>
        <time>2013-03-23T12:39:30Z</time>
      </trkpt>
      <trkpt lat="42.89743" lon="-0.20518">
        <ele>1507</ele>
        <time>2013-03-23T12:39:31Z</time>
      </trkpt>
      <trkpt lat="42.89761" lon="-0.20516">
        <ele>1505</ele>
        <time>2013-03-23T12:39:34Z</time>
      </trkpt>
      <trkpt lat="42.89764" lon="-0.20514">
        <ele>1503</ele>
        <time>2013-03-23T12:39:35Z</time>
      </trkpt>
      <trkpt lat="42.89769" lon="-0.20509">
        <ele>1501</ele>
        <time>2013-03-23T12:39:37Z</time>
      </trkpt>
      <trkpt lat="42.89773" lon="-0.20507">
        <ele>1499</ele>
        <time>2013-03-23T12:39:40Z</time>
      </trkpt>
      <trkpt lat="42.89776" lon="-0.20508">
        <ele>1495</ele>
        <time>2013-03-23T12:39:42Z</time>
      </trkpt>
      <trkpt lat="42.89777" lon="-0.2051">
        <ele>1494</ele>
        <time>2013-03-23T12:39:43Z</time>
      </trkpt>
      <trkpt lat="42.89778" lon="-0.20511">
        <ele>1492</ele>
        <time>2013-03-23T12:39:44Z</time>
      </trkpt>
      <trkpt lat="42.89785" lon="-0.20497">
        <ele>1487</ele>
        <time>2013-03-23T12:39:49Z</time>
      </trkpt>
      <trkpt lat="42.89789" lon="-0.20491">
        <ele>1484</ele>
        <time>2013-03-23T12:39:51Z</time>
      </trkpt>
      <trkpt lat="42.89796" lon="-0.20482">
        <ele>1482</ele>
        <time>2013-03-23T12:39:54Z</time>
      </trkpt>
      <trkpt lat="42.898" lon="-0.20483">
        <ele>1481</ele>
        <time>2013-03-23T12:39:55Z</time>
      </trkpt>
      <trkpt lat="42.89804" lon="-0.20485">
        <ele>1479</ele>
        <time>2013-03-23T12:39:56Z</time>
      </trkpt>
      <trkpt lat="42.89807" lon="-0.20485">
        <ele>1478</ele>
        <time>2013-03-23T12:39:57Z</time>
      </trkpt>
      <trkpt lat="42.89815" lon="-0.20482">
        <ele>1478</ele>
        <time>2013-03-23T12:40:06Z</time>
      </trkpt>
      <trkpt lat="42.89835" lon="-0.20473">
        <ele>1476</ele>
        <time>2013-03-23T12:40:20Z</time>
      </trkpt>
      <trkpt lat="42.89858" lon="-0.20467">
        <ele>1475</ele>
        <time>2013-03-23T12:40:31Z</time>
      </trkpt>
      <trkpt lat="42.8987" lon="-0.20463">
        <ele>1474</ele>
        <time>2013-03-23T12:40:38Z</time>
      </trkpt>
      <trkpt lat="42.89882" lon="-0.20446">
        <ele>1474</ele>
        <time>2013-03-23T12:40:51Z</time>
      </trkpt>
      <trkpt lat="42.89905" lon="-0.20432">
        <ele>1472</ele>
        <time>2013-03-23T12:41:03Z</time>
      </trkpt>
      <trkpt lat="42.8993" lon="-0.20423">
        <ele>1471</ele>
        <time>2013-03-23T12:41:18Z</time>
      </trkpt>
      <trkpt lat="42.89953" lon="-0.20408">
        <ele>1471</ele>
        <time>2013-03-23T12:41:32Z</time>
      </trkpt>
      <trkpt lat="42.89973" lon="-0.20409">
        <ele>1471</ele>
        <time>2013-03-23T12:41:46Z</time>
      </trkpt>
      <trkpt lat="42.89975" lon="-0.20409">
        <ele>1471</ele>
        <time>2013-03-23T12:41:48Z</time>
      </trkpt>
      <trkpt lat="42.89977" lon="-0.20408">
        <ele>1471</ele>
        <time>2013-03-23T12:41:50Z</time>
      </trkpt>
      <trkpt lat="42.89981" lon="-0.20408">
        <ele>1471</ele>
        <time>2013-03-23T12:41:54Z</time>
      </trkpt>
      <trkpt lat="42.89985" lon="-0.20406">
        <ele>1470</ele>
        <time>2013-03-23T12:41:57Z</time>
      </trkpt>
      <trkpt lat="42.89988" lon="-0.20405">
        <ele>1471</ele>
        <time>2013-03-23T12:41:59Z</time>
      </trkpt>
      <trkpt lat="42.89993" lon="-0.20404">
        <ele>1471</ele>
        <time>2013-03-23T12:42:04Z</time>
      </trkpt>
      <trkpt lat="42.90006" lon="-0.20404">
        <ele>1471</ele>
        <time>2013-03-23T12:42:17Z</time>
      </trkpt>
      <trkpt lat="42.90011" lon="-0.20405">
        <ele>1472</ele>
        <time>2013-03-23T12:42:22Z</time>
      </trkpt>
      <trkpt lat="42.90013" lon="-0.20406">
        <ele>1471</ele>
        <time>2013-03-23T12:42:24Z</time>
      </trkpt>
      <trkpt lat="42.9002" lon="-0.20408">
        <ele>1472</ele>
        <time>2013-03-23T12:42:33Z</time>
      </trkpt>
      <trkpt lat="42.90023" lon="-0.20408">
        <ele>1472</ele>
        <time>2013-03-23T12:42:37Z</time>
      </trkpt>
      <trkpt lat="42.9003" lon="-0.20411">
        <ele>1470</ele>
        <time>2013-03-23T12:42:42Z</time>
      </trkpt>
      <trkpt lat="42.90031" lon="-0.20412">
        <ele>1472</ele>
        <time>2013-03-23T12:42:43Z</time>
      </trkpt>
      <trkpt lat="42.90048" lon="-0.20425">
        <ele>1471</ele>
        <time>2013-03-23T12:42:57Z</time>
      </trkpt>
      <trkpt lat="42.90069" lon="-0.20444">
        <ele>1469</ele>
        <time>2013-03-23T12:43:07Z</time>
      </trkpt>
      <trkpt lat="42.90098" lon="-0.20461">
        <ele>1466</ele>
        <time>2013-03-23T12:43:16Z</time>
      </trkpt>
      <trkpt lat="42.90128" lon="-0.20477">
        <ele>1462</ele>
        <time>2013-03-23T12:43:23Z</time>
      </trkpt>
      <trkpt lat="42.90139" lon="-0.20482">
        <ele>1463</ele>
        <time>2013-03-23T12:43:34Z</time>
      </trkpt>
      <trkpt lat="42.90137" lon="-0.20475">
        <ele>1463</ele>
        <time>2013-03-23T12:43:55Z</time>
      </trkpt>
      <trkpt lat="42.90154" lon="-0.20448">
        <ele>1460</ele>
        <time>2013-03-23T12:44:05Z</time>
      </trkpt>
      <trkpt lat="42.90163" lon="-0.20434">
        <ele>1458</ele>
        <time>2013-03-23T12:44:08Z</time>
      </trkpt>
      <trkpt lat="42.90166" lon="-0.20429">
        <ele>1457</ele>
        <time>2013-03-23T12:44:09Z</time>
      </trkpt>
      <trkpt lat="42.90173" lon="-0.2042">
        <ele>1457</ele>
        <time>2013-03-23T12:44:11Z</time>
      </trkpt>
      <trkpt lat="42.90175" lon="-0.20416">
        <ele>1457</ele>
        <time>2013-03-23T12:44:12Z</time>
      </trkpt>
      <trkpt lat="42.90185" lon="-0.20401">
        <ele>1455</ele>
        <time>2013-03-23T12:44:15Z</time>
      </trkpt>
      <trkpt lat="42.9021" lon="-0.20361">
        <ele>1452</ele>
        <time>2013-03-23T12:44:20Z</time>
      </trkpt>
      <trkpt lat="42.90218" lon="-0.20349">
        <ele>1452</ele>
        <time>2013-03-23T12:44:21Z</time>
      </trkpt>
      <trkpt lat="42.90236" lon="-0.20328">
        <ele>1450</ele>
        <time>2013-03-23T12:44:24Z</time>
      </trkpt>
      <trkpt lat="42.90258" lon="-0.20295">
        <ele>1447</ele>
        <time>2013-03-23T12:44:29Z</time>
      </trkpt>
      <trkpt lat="42.90272" lon="-0.20272">
        <ele>1444</ele>
        <time>2013-03-23T12:44:32Z</time>
      </trkpt>
      <trkpt lat="42.90275" lon="-0.20268">
        <ele>1445</ele>
        <time>2013-03-23T12:44:33Z</time>
      </trkpt>
      <trkpt lat="42.90296" lon="-0.20244">
        <ele>1442</ele>
        <time>2013-03-23T12:44:38Z</time>
      </trkpt>
      <trkpt lat="42.90311" lon="-0.20232">
        <ele>1441</ele>
        <time>2013-03-23T12:44:41Z</time>
      </trkpt>
      <trkpt lat="42.90315" lon="-0.2023">
        <ele>1439</ele>
        <time>2013-03-23T12:44:42Z</time>
      </trkpt>
      <trkpt lat="42.9033" lon="-0.20215">
        <ele>1437</ele>
        <time>2013-03-23T12:44:47Z</time>
      </trkpt>
      <trkpt lat="42.90332" lon="-0.2021">
        <ele>1437</ele>
        <time>2013-03-23T12:44:48Z</time>
      </trkpt>
      <trkpt lat="42.90333" lon="-0.20205">
        <ele>1436</ele>
        <time>2013-03-23T12:44:49Z</time>
      </trkpt>
      <trkpt lat="42.90334" lon="-0.20158">
        <ele>1433</ele>
        <time>2013-03-23T12:44:59Z</time>
      </trkpt>
      <trkpt lat="42.90337" lon="-0.20125">
        <ele>1431</ele>
        <time>2013-03-23T12:45:09Z</time>
      </trkpt>
      <trkpt lat="42.90339" lon="-0.20126">
        <ele>1429</ele>
        <time>2013-03-23T12:45:10Z</time>
      </trkpt>
      <trkpt lat="42.90343" lon="-0.20132">
        <ele>1428</ele>
        <time>2013-03-23T12:45:12Z</time>
      </trkpt>
      <trkpt lat="42.90344" lon="-0.20135">
        <ele>1428</ele>
        <time>2013-03-23T12:45:13Z</time>
      </trkpt>
      <trkpt lat="42.90355" lon="-0.20165">
        <ele>1425</ele>
        <time>2013-03-23T12:45:24Z</time>
      </trkpt>
      <trkpt lat="42.90363" lon="-0.20192">
        <ele>1421</ele>
        <time>2013-03-23T12:45:31Z</time>
      </trkpt>
      <trkpt lat="42.90363" lon="-0.20203">
        <ele>1421</ele>
        <time>2013-03-23T12:45:33Z</time>
      </trkpt>
      <trkpt lat="42.90362" lon="-0.20208">
        <ele>1420</ele>
        <time>2013-03-23T12:45:34Z</time>
      </trkpt>
      <trkpt lat="42.90358" lon="-0.20229">
        <ele>1419</ele>
        <time>2013-03-23T12:45:38Z</time>
      </trkpt>
      <trkpt lat="42.9035" lon="-0.20245">
        <ele>1417</ele>
        <time>2013-03-23T12:45:42Z</time>
      </trkpt>
      <trkpt lat="42.9034" lon="-0.2028">
        <ele>1415</ele>
        <time>2013-03-23T12:45:52Z</time>
      </trkpt>
      <trkpt lat="42.90333" lon="-0.20311">
        <ele>1412</ele>
        <time>2013-03-23T12:46:00Z</time>
      </trkpt>
      <trkpt lat="42.90327" lon="-0.20347">
        <ele>1409</ele>
        <time>2013-03-23T12:46:08Z</time>
      </trkpt>
      <trkpt lat="42.90321" lon="-0.20398">
        <ele>1405</ele>
        <time>2013-03-23T12:46:18Z</time>
      </trkpt>
      <trkpt lat="42.90307" lon="-0.20452">
        <ele>1403</ele>
        <time>2013-03-23T12:46:29Z</time>
      </trkpt>
      <trkpt lat="42.90306" lon="-0.20463">
        <ele>1402</ele>
        <time>2013-03-23T12:46:31Z</time>
      </trkpt>
      <trkpt lat="42.90308" lon="-0.20473">
        <ele>1401</ele>
        <time>2013-03-23T12:46:33Z</time>
      </trkpt>
      <trkpt lat="42.9031" lon="-0.20482">
        <ele>1400</ele>
        <time>2013-03-23T12:46:35Z</time>
      </trkpt>
      <trkpt lat="42.90311" lon="-0.20483">
        <ele>1400</ele>
        <time>2013-03-23T12:46:36Z</time>
      </trkpt>
      <trkpt lat="42.90312" lon="-0.20481">
        <ele>1399</ele>
        <time>2013-03-23T12:46:37Z</time>
      </trkpt>
      <trkpt lat="42.90312" lon="-0.20479">
        <ele>1400</ele>
        <time>2013-03-23T12:46:38Z</time>
      </trkpt>
      <trkpt lat="42.90311" lon="-0.20476">
        <ele>1399</ele>
        <time>2013-03-23T12:46:39Z</time>
      </trkpt>
      <trkpt lat="42.90311" lon="-0.20472">
        <ele>1398</ele>
        <time>2013-03-23T12:46:40Z</time>
      </trkpt>
      <trkpt lat="42.9032" lon="-0.20431">
        <ele>1395</ele>
        <time>2013-03-23T12:46:52Z</time>
      </trkpt>
      <trkpt lat="42.90323" lon="-0.20424">
        <ele>1394</ele>
        <time>2013-03-23T12:46:54Z</time>
      </trkpt>
      <trkpt lat="42.90338" lon="-0.20379">
        <ele>1391</ele>
        <time>2013-03-23T12:47:04Z</time>
      </trkpt>
      <trkpt lat="42.90348" lon="-0.20338">
        <ele>1388</ele>
        <time>2013-03-23T12:47:11Z</time>
      </trkpt>
      <trkpt lat="42.90359" lon="-0.20302">
        <ele>1386</ele>
        <time>2013-03-23T12:47:17Z</time>
      </trkpt>
      <trkpt lat="42.90363" lon="-0.20291">
        <ele>1385</ele>
        <time>2013-03-23T12:47:19Z</time>
      </trkpt>
      <trkpt lat="42.90372" lon="-0.20276">
        <ele>1382</ele>
        <time>2013-03-23T12:47:22Z</time>
      </trkpt>
      <trkpt lat="42.90378" lon="-0.20271">
        <ele>1382</ele>
        <time>2013-03-23T12:47:23Z</time>
      </trkpt>
      <trkpt lat="42.90384" lon="-0.20265">
        <ele>1382</ele>
        <time>2013-03-23T12:47:24Z</time>
      </trkpt>
      <trkpt lat="42.90389" lon="-0.2026">
        <ele>1381</ele>
        <time>2013-03-23T12:47:25Z</time>
      </trkpt>
      <trkpt lat="42.90393" lon="-0.20256">
        <ele>1381</ele>
        <time>2013-03-23T12:47:26Z</time>
      </trkpt>
      <trkpt lat="42.90398" lon="-0.20252">
        <ele>1380</ele>
        <time>2013-03-23T12:47:27Z</time>
      </trkpt>
      <trkpt lat="42.90418" lon="-0.20234">
        <ele>1377</ele>
        <time>2013-03-23T12:47:33Z</time>
      </trkpt>
      <trkpt lat="42.9042" lon="-0.20229">
        <ele>1376</ele>
        <time>2013-03-23T12:47:34Z</time>
      </trkpt>
      <trkpt lat="42.90427" lon="-0.20181">
        <ele>1373</ele>
        <time>2013-03-23T12:47:44Z</time>
      </trkpt>
      <trkpt lat="42.90432" lon="-0.2018">
        <ele>1371</ele>
        <time>2013-03-23T12:47:46Z</time>
      </trkpt>
      <trkpt lat="42.90441" lon="-0.20188">
        <ele>1370</ele>
        <time>2013-03-23T12:47:49Z</time>
      </trkpt>
      <trkpt lat="42.90444" lon="-0.20197">
        <ele>1368</ele>
        <time>2013-03-23T12:47:51Z</time>
      </trkpt>
      <trkpt lat="42.90443" lon="-0.20226">
        <ele>1366</ele>
        <time>2013-03-23T12:48:00Z</time>
      </trkpt>
      <trkpt lat="42.90422" lon="-0.20263">
        <ele>1364</ele>
        <time>2013-03-23T12:48:12Z</time>
      </trkpt>
      <trkpt lat="42.90421" lon="-0.20298">
        <ele>1361</ele>
        <time>2013-03-23T12:48:20Z</time>
      </trkpt>
      <trkpt lat="42.90423" lon="-0.20325">
        <ele>1358</ele>
        <time>2013-03-23T12:48:24Z</time>
      </trkpt>
      <trkpt lat="42.90423" lon="-0.20333">
        <ele>1358</ele>
        <time>2013-03-23T12:48:25Z</time>
      </trkpt>
      <trkpt lat="42.90422" lon="-0.20365">
        <ele>1355</ele>
        <time>2013-03-23T12:48:29Z</time>
      </trkpt>
      <trkpt lat="42.90418" lon="-0.20391">
        <ele>1353</ele>
        <time>2013-03-23T12:48:32Z</time>
      </trkpt>
      <trkpt lat="42.90413" lon="-0.20406">
        <ele>1352</ele>
        <time>2013-03-23T12:48:34Z</time>
      </trkpt>
      <trkpt lat="42.90409" lon="-0.20419">
        <ele>1351</ele>
        <time>2013-03-23T12:48:36Z</time>
      </trkpt>
      <trkpt lat="42.90407" lon="-0.20427">
        <ele>1349</ele>
        <time>2013-03-23T12:48:37Z</time>
      </trkpt>
      <trkpt lat="42.90401" lon="-0.20451">
        <ele>1347</ele>
        <time>2013-03-23T12:48:41Z</time>
      </trkpt>
      <trkpt lat="42.90398" lon="-0.20483">
        <ele>1345</ele>
        <time>2013-03-23T12:48:45Z</time>
      </trkpt>
      <trkpt lat="42.90393" lon="-0.20507">
        <ele>1342</ele>
        <time>2013-03-23T12:48:48Z</time>
      </trkpt>
      <trkpt lat="42.90392" lon="-0.20513">
        <ele>1342</ele>
        <time>2013-03-23T12:48:49Z</time>
      </trkpt>
      <trkpt lat="42.90394" lon="-0.20537">
        <ele>1340</ele>
        <time>2013-03-23T12:48:53Z</time>
      </trkpt>
      <trkpt lat="42.90393" lon="-0.20545">
        <ele>1339</ele>
        <time>2013-03-23T12:48:54Z</time>
      </trkpt>
      <trkpt lat="42.90393" lon="-0.20551">
        <ele>1338</ele>
        <time>2013-03-23T12:48:55Z</time>
      </trkpt>
      <trkpt lat="42.90392" lon="-0.20558">
        <ele>1338</ele>
        <time>2013-03-23T12:48:56Z</time>
      </trkpt>
      <trkpt lat="42.9039" lon="-0.20588">
        <ele>1336</ele>
        <time>2013-03-23T12:49:01Z</time>
      </trkpt>
      <trkpt lat="42.90382" lon="-0.20602">
        <ele>1335</ele>
        <time>2013-03-23T12:49:04Z</time>
      </trkpt>
      <trkpt lat="42.90379" lon="-0.20607">
        <ele>1334</ele>
        <time>2013-03-23T12:49:05Z</time>
      </trkpt>
      <trkpt lat="42.90377" lon="-0.20613">
        <ele>1334</ele>
        <time>2013-03-23T12:49:06Z</time>
      </trkpt>
      <trkpt lat="42.90375" lon="-0.20616">
        <ele>1333</ele>
        <time>2013-03-23T12:49:07Z</time>
      </trkpt>
      <trkpt lat="42.90372" lon="-0.20618">
        <ele>1333</ele>
        <time>2013-03-23T12:49:08Z</time>
      </trkpt>
      <trkpt lat="42.90352" lon="-0.20625">
        <ele>1330</ele>
        <time>2013-03-23T12:49:14Z</time>
      </trkpt>
      <trkpt lat="42.90333" lon="-0.20654">
        <ele>1327</ele>
        <time>2013-03-23T12:49:23Z</time>
      </trkpt>
      <trkpt lat="42.90331" lon="-0.20697">
        <ele>1323</ele>
        <time>2013-03-23T12:49:30Z</time>
      </trkpt>
      <trkpt lat="42.9033" lon="-0.20703">
        <ele>1323</ele>
        <time>2013-03-23T12:49:31Z</time>
      </trkpt>
      <trkpt lat="42.90323" lon="-0.20744">
        <ele>1320</ele>
        <time>2013-03-23T12:49:39Z</time>
      </trkpt>
      <trkpt lat="42.90303" lon="-0.20794">
        <ele>1318</ele>
        <time>2013-03-23T12:49:51Z</time>
      </trkpt>
      <trkpt lat="42.90301" lon="-0.20796">
        <ele>1318</ele>
        <time>2013-03-23T12:49:52Z</time>
      </trkpt>
      <trkpt lat="42.90299" lon="-0.20802">
        <ele>1317</ele>
        <time>2013-03-23T12:49:54Z</time>
      </trkpt>
      <trkpt lat="42.903" lon="-0.20802">
        <ele>1316</ele>
        <time>2013-03-23T12:49:55Z</time>
      </trkpt>
      <trkpt lat="42.90295" lon="-0.20798">
        <ele>1316</ele>
        <time>2013-03-23T12:50:02Z</time>
      </trkpt>
      <trkpt lat="42.90295" lon="-0.20794">
        <ele>1316</ele>
        <time>2013-03-23T12:50:04Z</time>
      </trkpt>
      <trkpt lat="42.90304" lon="-0.20759">
        <ele>1314</ele>
        <time>2013-03-23T12:50:17Z</time>
      </trkpt>
      <trkpt lat="42.90303" lon="-0.20741">
        <ele>1312</ele>
        <time>2013-03-23T12:50:25Z</time>
      </trkpt>
      <trkpt lat="42.90308" lon="-0.20737">
        <ele>1311</ele>
        <time>2013-03-23T12:50:28Z</time>
      </trkpt>
      <trkpt lat="42.90316" lon="-0.20731">
        <ele>1309</ele>
        <time>2013-03-23T12:50:31Z</time>
      </trkpt>
      <trkpt lat="42.9032" lon="-0.2073">
        <ele>1308</ele>
        <time>2013-03-23T12:50:32Z</time>
      </trkpt>
      <trkpt lat="42.90323" lon="-0.20728">
        <ele>1308</ele>
        <time>2013-03-23T12:50:33Z</time>
      </trkpt>
      <trkpt lat="42.90332" lon="-0.20729">
        <ele>1307</ele>
        <time>2013-03-23T12:50:36Z</time>
      </trkpt>
      <trkpt lat="42.90333" lon="-0.20731">
        <ele>1307</ele>
        <time>2013-03-23T12:50:37Z</time>
      </trkpt>
      <trkpt lat="42.90334" lon="-0.20741">
        <ele>1304</ele>
        <time>2013-03-23T12:50:41Z</time>
      </trkpt>
      <trkpt lat="42.90319" lon="-0.20763">
        <ele>1301</ele>
        <time>2013-03-23T12:50:48Z</time>
      </trkpt>
      <trkpt lat="42.90325" lon="-0.2078">
        <ele>1298</ele>
        <time>2013-03-23T12:50:51Z</time>
      </trkpt>
      <trkpt lat="42.90331" lon="-0.20801">
        <ele>1295</ele>
        <time>2013-03-23T12:50:55Z</time>
      </trkpt>
      <trkpt lat="42.90332" lon="-0.20803">
        <ele>1295</ele>
        <time>2013-03-23T12:50:56Z</time>
      </trkpt>
      <trkpt lat="42.90334" lon="-0.20807">
        <ele>1294</ele>
        <time>2013-03-23T12:50:58Z</time>
      </trkpt>
      <trkpt lat="42.90336" lon="-0.2081">
        <ele>1295</ele>
        <time>2013-03-23T12:51:00Z</time>
      </trkpt>
      <trkpt lat="42.90344" lon="-0.20807">
        <ele>1293</ele>
        <time>2013-03-23T12:51:05Z</time>
      </trkpt>
      <trkpt lat="42.90351" lon="-0.20797">
        <ele>1293</ele>
        <time>2013-03-23T12:51:09Z</time>
      </trkpt>
      <trkpt lat="42.90352" lon="-0.20794">
        <ele>1291</ele>
        <time>2013-03-23T12:51:10Z</time>
      </trkpt>
      <trkpt lat="42.90354" lon="-0.20791">
        <ele>1289</ele>
        <time>2013-03-23T12:51:12Z</time>
      </trkpt>
      <trkpt lat="42.90356" lon="-0.20789">
        <ele>1287</ele>
        <time>2013-03-23T12:51:15Z</time>
      </trkpt>
      <trkpt lat="42.90361" lon="-0.20791">
        <ele>1285</ele>
        <time>2013-03-23T12:51:21Z</time>
      </trkpt>
      <trkpt lat="42.90363" lon="-0.2079">
        <ele>1284</ele>
        <time>2013-03-23T12:51:22Z</time>
      </trkpt>
      <trkpt lat="42.90365" lon="-0.20787">
        <ele>1283</ele>
        <time>2013-03-23T12:51:25Z</time>
      </trkpt>
      <trkpt lat="42.90368" lon="-0.20781">
        <ele>1280</ele>
        <time>2013-03-23T12:51:29Z</time>
      </trkpt>
      <trkpt lat="42.90375" lon="-0.2078">
        <ele>1277</ele>
        <time>2013-03-23T12:51:34Z</time>
      </trkpt>
      <trkpt lat="42.90383" lon="-0.20782">
        <ele>1274</ele>
        <time>2013-03-23T12:51:39Z</time>
      </trkpt>
      <trkpt lat="42.90391" lon="-0.20778">
        <ele>1272</ele>
        <time>2013-03-23T12:51:42Z</time>
      </trkpt>
      <trkpt lat="42.90398" lon="-0.20772">
        <ele>1270</ele>
        <time>2013-03-23T12:51:45Z</time>
      </trkpt>
      <trkpt lat="42.90405" lon="-0.20776">
        <ele>1269</ele>
        <time>2013-03-23T12:51:47Z</time>
      </trkpt>
      <trkpt lat="42.90421" lon="-0.20817">
        <ele>1266</ele>
        <time>2013-03-23T12:51:55Z</time>
      </trkpt>
      <trkpt lat="42.90406" lon="-0.20864">
        <ele>1263</ele>
        <time>2013-03-23T12:52:06Z</time>
      </trkpt>
      <trkpt lat="42.904" lon="-0.20884">
        <ele>1262</ele>
        <time>2013-03-23T12:52:10Z</time>
      </trkpt>
      <trkpt lat="42.9039" lon="-0.2092">
        <ele>1260</ele>
        <time>2013-03-23T12:52:19Z</time>
      </trkpt>
      <trkpt lat="42.90376" lon="-0.20972">
        <ele>1258</ele>
        <time>2013-03-23T12:52:29Z</time>
      </trkpt>
      <trkpt lat="42.90366" lon="-0.20997">
        <ele>1256</ele>
        <time>2013-03-23T12:52:32Z</time>
      </trkpt>
      <trkpt lat="42.90362" lon="-0.21006">
        <ele>1255</ele>
        <time>2013-03-23T12:52:35Z</time>
      </trkpt>
      <trkpt lat="42.90361" lon="-0.21009">
        <ele>1255</ele>
        <time>2013-03-23T12:52:36Z</time>
      </trkpt>
      <trkpt lat="42.90354" lon="-0.2103">
        <ele>1251</ele>
        <time>2013-03-23T12:52:42Z</time>
      </trkpt>
      <trkpt lat="42.90337" lon="-0.21063">
        <ele>1249</ele>
        <time>2013-03-23T12:52:49Z</time>
      </trkpt>
      <trkpt lat="42.90331" lon="-0.21068">
        <ele>1248</ele>
        <time>2013-03-23T12:52:51Z</time>
      </trkpt>
      <trkpt lat="42.90325" lon="-0.21081">
        <ele>1246</ele>
        <time>2013-03-23T12:52:53Z</time>
      </trkpt>
      <trkpt lat="42.90309" lon="-0.21095">
        <ele>1243</ele>
        <time>2013-03-23T12:52:58Z</time>
      </trkpt>
      <trkpt lat="42.90302" lon="-0.211">
        <ele>1242</ele>
        <time>2013-03-23T12:53:00Z</time>
      </trkpt>
      <trkpt lat="42.90294" lon="-0.21106">
        <ele>1240</ele>
        <time>2013-03-23T12:53:03Z</time>
      </trkpt>
      <trkpt lat="42.90284" lon="-0.21123">
        <ele>1236</ele>
        <time>2013-03-23T12:53:09Z</time>
      </trkpt>
      <trkpt lat="42.90265" lon="-0.2114">
        <ele>1233</ele>
        <time>2013-03-23T12:53:17Z</time>
      </trkpt>
      <trkpt lat="42.90238" lon="-0.21157">
        <ele>1232</ele>
        <time>2013-03-23T12:53:22Z</time>
      </trkpt>
      <trkpt lat="42.90232" lon="-0.21199">
        <ele>1229</ele>
        <time>2013-03-23T12:53:30Z</time>
      </trkpt>
      <trkpt lat="42.90249" lon="-0.21211">
        <ele>1225</ele>
        <time>2013-03-23T12:53:39Z</time>
      </trkpt>
      <trkpt lat="42.90277" lon="-0.21192">
        <ele>1221</ele>
        <time>2013-03-23T12:53:47Z</time>
      </trkpt>
      <trkpt lat="42.90279" lon="-0.2119">
        <ele>1221</ele>
        <time>2013-03-23T12:53:48Z</time>
      </trkpt>
      <trkpt lat="42.9031" lon="-0.21168">
        <ele>1218</ele>
        <time>2013-03-23T12:53:56Z</time>
      </trkpt>
      <trkpt lat="42.90336" lon="-0.21154">
        <ele>1215</ele>
        <time>2013-03-23T12:54:03Z</time>
      </trkpt>
      <trkpt lat="42.90341" lon="-0.21151">
        <ele>1215</ele>
        <time>2013-03-23T12:54:04Z</time>
      </trkpt>
      <trkpt lat="42.90345" lon="-0.21149">
        <ele>1214</ele>
        <time>2013-03-23T12:54:05Z</time>
      </trkpt>
      <trkpt lat="42.90367" lon="-0.21142">
        <ele>1212</ele>
        <time>2013-03-23T12:54:12Z</time>
      </trkpt>
      <trkpt lat="42.90366" lon="-0.21143">
        <ele>1213</ele>
        <time>2013-03-23T12:54:13Z</time>
      </trkpt>
      <trkpt lat="42.90383" lon="-0.21135">
        <ele>1213</ele>
        <time>2013-03-23T12:54:19Z</time>
      </trkpt>
      <trkpt lat="42.90389" lon="-0.21143">
        <ele>1214</ele>
        <time>2013-03-23T12:54:23Z</time>
      </trkpt>
      <trkpt lat="42.90389" lon="-0.21148">
        <ele>1213</ele>
        <time>2013-03-23T12:54:25Z</time>
      </trkpt>
      <trkpt lat="42.90395" lon="-0.21159">
        <ele>1213</ele>
        <time>2013-03-23T12:54:29Z</time>
      </trkpt>
      <trkpt lat="42.90415" lon="-0.21195">
        <ele>1211</ele>
        <time>2013-03-23T12:54:41Z</time>
      </trkpt>
      <trkpt lat="42.90416" lon="-0.21196">
        <ele>1211</ele>
        <time>2013-03-23T12:54:42Z</time>
      </trkpt>
      <trkpt lat="42.90417" lon="-0.21202">
        <ele>1212</ele>
        <time>2013-03-23T12:54:44Z</time>
      </trkpt>
      <trkpt lat="42.90418" lon="-0.21209">
        <ele>1211</ele>
        <time>2013-03-23T12:54:47Z</time>
      </trkpt>
      <trkpt lat="42.90438" lon="-0.21235">
        <ele>1211</ele>
        <time>2013-03-23T12:55:00Z</time>
      </trkpt>
      <trkpt lat="42.90443" lon="-0.2124">
        <ele>1211</ele>
        <time>2013-03-23T12:55:03Z</time>
      </trkpt>
      <trkpt lat="42.90466" lon="-0.21242">
        <ele>1211</ele>
        <time>2013-03-23T12:55:11Z</time>
      </trkpt>
      <trkpt lat="42.9047" lon="-0.21244">
        <ele>1210</ele>
        <time>2013-03-23T12:55:13Z</time>
      </trkpt>
      <trkpt lat="42.90481" lon="-0.2126">
        <ele>1209</ele>
        <time>2013-03-23T12:55:27Z</time>
      </trkpt>
      <trkpt lat="42.90484" lon="-0.21268">
        <ele>1208</ele>
        <time>2013-03-23T12:55:40Z</time>
      </trkpt>
      <trkpt lat="42.90484" lon="-0.21271">
        <ele>1209</ele>
        <time>2013-03-23T12:55:54Z</time>
      </trkpt>
      <trkpt lat="42.90487" lon="-0.21268">
        <ele>1208</ele>
        <time>2013-03-23T12:56:27Z</time>
      </trkpt>
      <trkpt lat="42.90485" lon="-0.21267">
        <ele>1209</ele>
        <time>2013-03-23T12:56:42Z</time>
      </trkpt>
      <trkpt lat="42.90486" lon="-0.21266">
        <ele>1208</ele>
        <time>2013-03-23T12:56:58Z</time>
      </trkpt>
      <trkpt lat="42.90487" lon="-0.21267">
        <ele>1207</ele>
        <time>2013-03-23T12:57:14Z</time>
      </trkpt>
      <trkpt lat="42.90486" lon="-0.21267">
        <ele>1207</ele>
        <time>2013-03-23T12:57:35Z</time>
      </trkpt>
      <trkpt lat="42.90487" lon="-0.21264">
        <ele>1205</ele>
        <time>2013-03-23T12:57:55Z</time>
      </trkpt>
      <trkpt lat="42.90491" lon="-0.21266">
        <ele>1206</ele>
        <time>2013-03-23T12:58:30Z</time>
      </trkpt>
      <trkpt lat="42.90488" lon="-0.21267">
        <ele>1205</ele>
        <time>2013-03-23T12:59:06Z</time>
      </trkpt>
      <trkpt lat="42.90487" lon="-0.21268">
        <ele>1204</ele>
        <time>2013-03-23T12:59:49Z</time>
      </trkpt>
      <trkpt lat="42.90487" lon="-0.21268">
        <ele>1204</ele>
        <time>2013-03-23T13:00:20Z</time>
      </trkpt>
      <trkpt lat="42.90488" lon="-0.21266">
        <ele>1203</ele>
        <time>2013-03-23T13:00:45Z</time>
      </trkpt>
      <trkpt lat="42.90485" lon="-0.21268">
        <ele>1203</ele>
        <time>2013-03-23T13:01:07Z</time>
      </trkpt>
      <trkpt lat="42.90485" lon="-0.21268">
        <ele>1202</ele>
        <time>2013-03-23T13:01:48Z</time>
      </trkpt>
      <trkpt lat="42.90485" lon="-0.21269">
        <ele>1201</ele>
        <time>2013-03-23T13:02:22Z</time>
      </trkpt>
      <trkpt lat="42.90483" lon="-0.2127">
        <ele>1201</ele>
        <time>2013-03-23T13:03:01Z</time>
      </trkpt>
      <trkpt lat="42.90483" lon="-0.21269">
        <ele>1200</ele>
        <time>2013-03-23T13:03:45Z</time>
      </trkpt>
      <trkpt lat="42.90483" lon="-0.21272">
        <ele>1200</ele>
        <time>2013-03-23T13:04:26Z</time>
      </trkpt>
      <trkpt lat="42.90484" lon="-0.21272">
        <ele>1199</ele>
        <time>2013-03-23T13:05:07Z</time>
      </trkpt>
      <trkpt lat="42.90486" lon="-0.21273">
        <ele>1198</ele>
        <time>2013-03-23T13:05:47Z</time>
      </trkpt>
      <trkpt lat="42.90487" lon="-0.21269">
        <ele>1197</ele>
        <time>2013-03-23T13:06:34Z</time>
      </trkpt>
      <trkpt lat="42.90489" lon="-0.2127">
        <ele>1197</ele>
        <time>2013-03-23T13:07:19Z</time>
      </trkpt>
      <trkpt lat="42.90485" lon="-0.21273">
        <ele>1196</ele>
        <time>2013-03-23T13:08:02Z</time>
      </trkpt>
      <trkpt lat="42.90484" lon="-0.21271">
        <ele>1195</ele>
        <time>2013-03-23T13:08:39Z</time>
      </trkpt>
      <trkpt lat="42.90484" lon="-0.21271">
        <ele>1195</ele>
        <time>2013-03-23T13:09:25Z</time>
      </trkpt>
      <trkpt lat="42.90485" lon="-0.21274">
        <ele>1195</ele>
        <time>2013-03-23T13:10:02Z</time>
      </trkpt>
      <trkpt lat="42.90483" lon="-0.21275">
        <ele>1195</ele>
        <time>2013-03-23T13:10:41Z</time>
      </trkpt>
      <trkpt lat="42.90483" lon="-0.21276">
        <ele>1194</ele>
        <time>2013-03-23T13:10:48Z</time>
      </trkpt>
      <trkpt lat="42.90488" lon="-0.21275">
        <ele>1195</ele>
        <time>2013-03-23T13:10:59Z</time>
      </trkpt>
      <trkpt lat="42.90491" lon="-0.21274">
        <ele>1194</ele>
        <time>2013-03-23T13:11:18Z</time>
      </trkpt>
      <trkpt lat="42.90493" lon="-0.21271">
        <ele>1194</ele>
        <time>2013-03-23T13:11:38Z</time>
      </trkpt>
      <trkpt lat="42.90494" lon="-0.21272">
        <ele>1195</ele>
        <time>2013-03-23T13:12:10Z</time>
      </trkpt>
      <trkpt lat="42.90493" lon="-0.21269">
        <ele>1194</ele>
        <time>2013-03-23T13:12:32Z</time>
      </trkpt>
      <trkpt lat="42.90492" lon="-0.21269">
        <ele>1196</ele>
        <time>2013-03-23T13:12:58Z</time>
      </trkpt>
      <trkpt lat="42.90492" lon="-0.2127">
        <ele>1193</ele>
        <time>2013-03-23T13:13:07Z</time>
      </trkpt>
      <trkpt lat="42.90494" lon="-0.21269">
        <ele>1192</ele>
        <time>2013-03-23T13:13:20Z</time>
      </trkpt>
    </trkseg>
  </trk>
</gpx>